     2.10           OBSERVATION DATA    G (GPS)             RINEX VERSION / TYPE
teqc 2002Mar14 SOPAC 20050725 21:28:59UTC                   PGM / RUN BY / DATE
Linux 2.0.36|Pentium II|gcc -static|Linux|486/DX+           COMMENT
BIT 2 OF LLI FLAGS DATA COLLECTED UNDER A/S CONDITION       COMMENT
HPGN D CA 01 F4                                             MARKER NAME
01F4                                                        MARKER NUMBER
Tom Stephens                                                OBSERVER / AGENCY
0440100994 TRIMBLE 5700                                     REC # / TYPE / VERS
12354346 TRM41249.00 NONE                                   ANT # / TYPE
 -2736843.0000 -4094750.0000  4038996.0000                  APPROX POSITION XYZ
        1.8000        0.0000        0.0000                  ANTENNA: DELTA H/E/N
     1     1                                                WAVELENGTH FACT L1/2
     6    L1    L2    C1    P2    P1    D1                  # / TYPES OF OBSERV
    15.0000                                                 INTERVAL
Northern California Height Modernization 2004               COMMENT
                                                            COMMENT
SOPAC - Scripps Orbit and Permanent Array Center            COMMENT
IGPP - Institute of Geophysics and Planetary Physics        COMMENT
SIO - Scripps Institution of Oceanography                   COMMENT
UCSD - University of California, San Diego                  COMMENT
                                                            COMMENT
email: archive@gpsmail.ucsd.edu                             COMMENT
ftp://garner.ucsd.edu                                       COMMENT
http://sopac.ucsd.edu                                       COMMENT
                                                            COMMENT
                                                            COMMENT
Approximate Lat, Lon : 39.543, -123.758                     COMMENT
                                                            COMMENT
SNR is mapped to RINEX snr flag value [1-9]                 COMMENT
L1: 3 -> 1; 8 -> 5; 40 -> 9                                 COMMENT
L2: 1 -> 1; 5 -> 5; 60 -> 9                                 COMMENT
  2004     9    14    20    57   45.0000000     GPS         TIME OF FIRST OBS
                                                            END OF HEADER
 04  9 14 20 57 45.0000000  0  6G 3G 8G13G19G23G27
    -42713.52359    -27851.85257  23205676.2664   23205676.5004

    -87742.98059    -52666.40257  22411437.2894   22411435.4184
    -21743.59459
    -16783.61758                  20380600.1254   20380597.9614

    -85755.38359    -53541.84857  23800964.9454   23800963.3714
     34496.94559
     14589.92657                  22108700.2734   22108696.3914
    -55905.80559
    -35272.39558                  21326812.9304   21326811.5354

 04  9 14 20 58  0.0000000  0  6G 3G 8G13G19G23G27
    -68667.65249    -48075.84847  23200737.7034   23200737.1994
      1730.2754
   -140882.50849    -94073.82447  22401324.7974   22401323.3364
      3542.6354
    -35130.02749    -27214.62148  20378052.7194   20378050.3834
       892.4294
   -139820.62549    -95670.56647  23790676.9304   23790674.9344
      3604.3494
     54874.89849     30468.82047  22112577.2194   22112574.0664
     -1358.5304
    -90185.34049    -61983.72348  21320289.7734   21320288.1134
      2285.3024
 04  9 14 20 58 15.0000000  0  6G 3G 8G13G19G23G27
    -94636.65649    -68311.44547  23195796.3204   23195795.7304
      1731.2674
   -194127.55149   -135563.45347  22391192.5704   22391191.2194
      3549.6704
    -48554.45749    -37675.23048  20375498.6094   20375495.9384
       894.9624
   -193970.00849   -137864.88747  23780372.4384   23780370.8874
      3609.9594
     75182.32449     46292.75847  22116442.2344   22116438.0434
     -1353.8284
   -124572.28549    -88778.74648  21313746.1024   21313743.8984
      2292.4634
 04  9 14 20 58 30.0000000  0  6G 3G 8G13G19G23G27
   -120545.23449    -88499.94547  23190866.3054   23190865.0744
      1727.2394
   -247403.09849   -177076.86347  22381054.2894   22381053.6374
      3551.7034
    -61941.70749    -48106.86748  20372950.9614   20372948.4964
       892.4834
   -248127.98049   -180065.87947  23770066.2814   23770064.4454
      3610.5324
     95494.24649     62120.19147  22120307.1414   22120303.6414
     -1354.1284
   -158991.35549   -115598.81248  21307196.4454   21307194.3634
      2294.6054
 04  9 14 20 58 45.0000000  0  6G 3G 8G13G19G23G27
   -146360.53949   -108615.77047  23185953.0394   23185952.8364
      1721.0204
   -300676.23449   -218588.37147  22370916.5164   22370916.0314
      3551.5424
    -75259.00849    -58483.99248  20370416.7114   20370414.4264
       887.8204
   -302261.30949   -222247.66847  23759765.5394   23759763.1684
      3608.8894
    115843.34449     77976.60547  22124179.5314   22124175.9924
     -1356.6074
   -193409.85249   -142418.43048  21300646.7424   21300645.4844
      2294.5664
 04  9 14 20 59  0.0000000  0  6G 3G 8G13G19G23G27
   -172068.10549   -128647.63747  23181061.6024   23181060.2274
      1713.8384
   -353932.46149   -260086.71547  22360782.2504   22360781.2114
      3550.4154
    -88491.65249    -68795.16048  20367898.5394   20367896.2504
       882.1764
   -356355.35249   -264398.83647  23749471.8134   23749469.2814
      3606.2704
    136243.76249     93873.01247  22128061.3834   22128057.8794
     -1360.0284
   -227813.43449   -169226.41448  21294100.1334   21294098.3554
      2293.5724
 04  9 14 20 59 15.0000000  0  6G 3G 8G13G19G23G27
   -197660.28949   -148589.61347  23176191.5004   23176190.6414
      1706.1464
   -407164.15249   -301565.94947  22350652.8204   22350651.8164
      3548.7794
   -101632.18749    -79034.54748  20365398.2114   20365395.9654
       876.0364
   -410402.28549   -306513.32047  23739187.1564   23739184.3954
      3603.1294
    156702.82449    109815.10547  22131954.4384   22131951.3164
     -1363.9374
   -262194.77749   -196017.07048  21287557.1484   21287556.4064
      2292.0904
 04  9 14 20 59 30.0000000  0  6G 3G 8G13G19G23G27
   -223132.36749   -168438.00447  23171344.3134   23171343.7424
      1698.1394
   -460366.82049   -343022.55947  22340528.3444   22340527.7424
      3546.8454
   -114675.83649    -89198.44548  20362916.0084   20362913.7424
       869.5774
   -464397.10549   -348587.17647  23728911.9694   23728909.6134
      3599.6554
    177225.17249    125806.52047  22135859.9454   22135856.8594
     -1368.1574
   -296549.00849   -222786.60248  21281020.0084   21281018.6254
      2290.2824
 04  9 14 20 59 45.0000000  0  6G 3G 8G13G19G23G27
   -248482.31649   -188191.20747  23166520.4064   23166519.7504
      1689.9974
   -513538.71149   -384455.19547  22330410.1174   22330409.8674
      3544.7934
   -127620.84449    -99285.46948  20360452.3594   20360450.5634
       863.0014
   -518337.85249   -390618.90647  23718646.8834   23718644.9534
      3596.0504
    197812.47349    141848.54347  22139777.9454   22139774.5664
     -1372.4874
   -330874.41849   -249533.67648  21274488.0944   21274486.2074
      2288.3614
 04  9 14 21  0  0.0000000  0  6G 3G 8G13G19G23G27
   -273705.57049   -207845.70747  23161720.0164   23161720.3054
      1681.5504
   -566675.28949   -425860.30947  22320298.8204   22320297.6644
      3542.4394
   -140462.60949   -109292.05548  20358008.9614   20358006.8834
       856.1184
   -572219.40249   -432604.52347  23708394.0004   23708392.0554
      3592.1034
    218468.94149    157944.46947  22143708.1644   22143705.3634
     -1377.0984
   -365166.60249   -276254.86348  21267962.6644   21267960.7814
      2286.1464
 04  9 14 21  0 15.0000000  0  6G 3G 8G13G19G23G27
   -298801.97349   -227401.35547  23156944.2424   23156944.5004
      1673.0934
   -619776.39549   -467237.77347  22310193.4614   22310192.8714
      3540.0744
   -153201.03549   -119218.10548  20355584.8984   20355582.6334
       849.2284
   -626041.31249   -474543.65647  23698152.0234   23698149.2774
      3588.1274
    239194.47749    174094.21147  22147652.8674   22147649.3444
     -1381.7024
   -399425.52049   -302950.12948  21261443.6024   21261441.7774
      2283.9284
 04  9 14 21  0 30.0000000  0  6G 3G 8G13G19G23G27
   -323769.08649   -246856.23847  23152193.3984   23152193.1174
      1664.4744
   -672839.68049   -508585.77047  22300095.6334   22300095.4804
      3537.5524
   -165833.72349   -129061.77048  20353180.7814   20353178.5124
       842.1794
   -679800.97749   -516434.28147  23687921.2194   23687919.6524
      3583.9784
    259991.45749    190299.63347  22151609.7894   22151607.1994
     -1386.4654
   -433648.87549   -329617.67248  21254930.5234   21254929.5274
      2281.5574
 04  9 14 21  0 45.0000000  0  6G 3G 8G13G19G23G27
   -348606.96549   -266210.44947  23147466.9064   23147466.7814
      1655.8594
   -725865.39849   -549904.50847  22290005.5474   22290005.3634
      3535.0484
   -178360.81249   -138823.14848  20350797.2814   20350794.3324
       835.1394
   -733498.17249   -558276.24247  23677703.5554   23677701.7194
      3579.8134
    280859.47749    206560.39847  22155581.2274   22155578.3284
     -1391.2014
   -467836.93449   -356257.72748  21248425.0634   21248423.7194
      2279.2044
 04  9 14 21  1  0.0000000  0  6G 3G 8G13G19G23G27
   -373313.61349   -285462.38747  23142765.2664   23142765.3444
      1647.1104
   -778851.80149   -591192.60947  22279922.9454   22279922.2544
      3532.4274
   -190780.46549   -148500.80548  20348433.6254   20348431.1914
       827.9774
   -787130.81249   -600067.90647  23667497.9224   23667495.5204
      3575.5094
    301800.18449    222877.80947  22159566.1254   22159563.1214
     -1396.0474
   -501987.83249   -382868.81248  21241926.4224   21241924.4844
      2276.7274
 04  9 14 21  1 15.0000000  0  6G 3G 8G13G19G23G27
   -397890.28949   -304613.05147  23138089.0234   23138088.5354
      1638.4454
   -831800.23849   -632451.13747  22269847.0554   22269846.8594
      3529.8964
   -203093.93749   -158095.73048  20346090.5634   20346087.8914
       820.8984
   -840699.86749   -641810.01647  23657304.1724   23657301.9694
      3571.2704
    322812.11749    239250.72747  22163564.2584   22163561.4734
     -1400.7964
   -536102.98449   -409452.04748  21235434.1884   21235432.7504
      2274.3434
 04  9 14 21  1 30.0000000  0  6G 3G 8G13G19G23G27
   -422335.88749   -323661.55547  23133436.8524   23133436.5314
      1629.7074
   -884709.57449   -673679.18047  22259778.7584   22259778.2234
      3527.2894
   -215300.03549   -167606.98848  20343767.9774   20343765.4064
       813.7404
   -894204.05949   -683501.59047  23647122.0554   23647120.2974
      3566.9464
    343896.10249    255679.77347  22167576.2504   22167573.4614
     -1405.5994
   -570181.37149   -436006.63748  21228949.5314   21228948.1844
      2271.8924
 04  9 14 21  1 45.0000000  0  6G 3G 8G13G19G23G27
   -446649.64849   -342607.34847  23128809.6484   23128809.3444
      1620.9174
   -937579.13749   -714876.23047  22249717.9844   22249717.6174
      3524.6374
   -227398.12949   -177034.08248  20341465.6484   20341462.8714
       806.5404
   -947642.31649   -725141.77747  23636953.1174   23636951.2584
      3562.5514
    365052.66449    272165.37947  22171602.7584   22171599.8444
     -1410.4374
   -604222.45349   -462532.16048  21222471.5084   21222469.9654
      2269.4054
 04  9 14 21  2  0.0000000  0  6G 3G 8G13G19G23G27
   -470831.27749   -361450.17647  23124208.6804   23124208.3204
      1612.1094
   -990408.60549   -756042.05547  22239665.1414   22239664.2234
      3521.9654
   -239387.78949   -186376.68748  20339184.1414   20339181.7034
       799.3114
  -1001014.21949   -766730.26647  23626796.9614   23626794.7034
      3558.1274
    386281.89149    288707.60547  22175642.2274   22175639.3484
     -1415.2824
   -638225.96149   -489028.40248  21216001.3284   21215999.8014
      2266.9014
 04  9 14 21  2 15.0000000  0  6G 3G 8G13G19G23G27
   -494878.71149   -380188.45747  23119632.3524   23119631.5744
      1603.1624
  -1043196.18749   -797175.23047  22229619.8284   22229618.9694
      3519.1724
   -251266.94149   -195633.17648  20336923.5004   20336921.0314
       791.9434
  -1054317.39549   -808265.20747  23616653.0784   23616652.0234
      3553.5454
    407585.50049    305307.78947  22179696.3754   22179692.9694
     -1420.2414
   -672190.03549   -515493.91048  21209537.7194   21209536.4064
      2264.2724
 04  9 14 21  2 30.0000000  0  6G 3G 8G13G19G23G27
   -518794.23449   -398823.93047  23115080.7584   23115081.2544
      1594.3684
  -1095944.23449   -838277.59447  22219581.9924   22219581.8094
      3516.5364
   -263038.22349   -204805.61748  20334683.7894   20334681.0084
       784.7524
  -1107553.80949   -849748.12547  23606522.9144   23606521.2814
      3549.0944
    428961.09849    321964.07047  22183764.1804   22183760.7504
     -1425.0404
   -706117.02349   -541930.52748  21203081.4224   21203080.2624
      2261.7994
 04  9 14 21  2 45.0000000  0  6G 3G 8G13G19G23G27
   -542576.65249   -417355.69147  23110555.4144   23110555.3444
      1585.4954
  -1148651.69149   -879348.32847  22209551.9924   22209551.7504
      3513.8304
   -274700.50049   -213893.10548  20332464.2584   20332461.6724
       777.4854
  -1160722.07849   -891177.93447  23596405.1644   23596403.5594
      3544.5514
    450409.49649    338677.08647  22187845.6564   22187842.8164
     -1429.8934
   -740005.85549   -568337.41448  21196632.6484   21196631.1844
      2259.2554
 04  9 14 21  3  0.0000000  0  6G 3G 8G13G19G23G27
   -566224.00049   -435782.19547  23106055.6484   23106055.5554
      1576.4904
  -1201316.45749   -920385.78147  22199530.6724   22199529.7504
      3510.9844
   -286251.81649   -222894.15248  20330266.1644   20330263.5594
       770.0884
  -1213819.98449   -932552.92247  23586300.8674   23586299.0784
      3539.8604
    471932.57849    355448.29347  22191941.4694   22191938.1134
     -1434.8724
   -773854.73449   -594713.15648  21190191.8054   21190190.4224
      2256.5924
 04  9 14 21  3 15.0000000  0  6G 3G 8G13G19G23G27
   -589738.66049   -454105.32047  23101581.1174   23101580.9304
      1567.6444
  -1253941.20749   -961392.09047  22189516.2274   22189515.3404
      3508.3174
   -297694.62949   -231810.64548  20328088.5864   20328086.0744
       762.8544
  -1266849.62149   -973874.69947  23576209.9534   23576208.3524
      3535.3094
    493527.59849    372275.55547  22196050.8914   22196047.4884
     -1439.6684
   -807666.23449   -621059.79348  21183757.6564   21183755.8954
      2254.1004
 04  9 14 21  3 30.0000000  0  6G 3G 8G13G19G23G27
   -613117.50849   -472322.61747  23097132.5554   23097132.2624
      1558.5904
  -1306522.85249  -1002364.79747  22179510.2114   22179509.0904
      3505.4434
   -309025.76649   -240640.10248  20325932.2114   20325930.2734
       755.4094
  -1319807.71949  -1015140.75447  23566132.5314   23566130.4494
      3530.5404
    515197.48449    389161.16047  22200174.6334   22200171.3444
     -1444.6594
   -841437.35949   -647374.95748  21177331.0554   21177329.9804
      2251.4084
 04  9 14 21  3 45.0000000  0  6G 3G 8G13G19G23G27
   -636362.23849   -490435.39147  23092709.0234   23092708.8014
      1549.6494
  -1359062.93449  -1043305.08647  22169512.3754   22169511.1054
      3502.6724
   -320246.92649   -249383.87548  20323796.8984   20323794.6724
       748.0774
  -1372695.74249  -1056352.18747  23556068.4304   23556066.8364
      3525.8684
    536940.13749    406103.45747  22204311.8444   22204308.4884
     -1449.5104
   -875169.88749   -673660.05148  21170912.1484   21170911.0234
      2248.8354
 04  9 14 21  4  0.0000000  0  6G 3G 8G13G19G23G27
   -659472.27749   -508443.20747  23088311.2894   23088311.1524
      1540.6694
  -1411561.09849  -1084212.75847  22159522.5164   22159520.5164
      3499.8784
   -331357.53149   -258041.49648  20321682.7344   20321680.4104
       740.7074
  -1425512.80549  -1097508.33247  23546017.6174   23546015.4454
      3521.1374
    558756.11749    423102.89847  22208463.4844   22208459.6254
     -1454.3994
   -908863.28949   -699914.64548  21164500.8444   21164499.2154
      2246.2274
 04  9 14 21  4 15.0000000  0  6G 3G 8G13G19G23G27
   -682446.30149   -526345.07447  23083939.0944   23083939.3284
      1531.6024
  -1464016.28149  -1125086.92247  22149540.2274   22149539.2034
      3497.0124
   -342356.52749   -266612.15248  20319589.8284   20319587.3674
       733.2664
  -1478257.52049  -1138608.11347  23535980.4384   23535978.4574
      3516.3144
    580646.26249    440160.11747  22212628.9454   22212625.3834
     -1459.3434
   -942516.51249   -726137.93748  21158096.5234   21158095.1094
      2243.5484
 04  9 14 21  4 30.0000000  0  6G 3G 8G13G19G23G27
   -705284.10249   -544140.76647  23079594.2894   23079593.3874
      1522.5204
  -1516428.37149  -1165927.48847  22139566.4844   22139565.6884
      3494.1394
   -353243.59449   -275095.58248  20317517.9844   20317515.5984
       725.8044
  -1530929.21149  -1179650.96947  23525957.1644   23525955.1094
      3511.4464
    602610.71149    457275.25047  22216808.6334   22216804.9064
     -1464.2974
   -976129.39149   -752329.78548  21151700.3914   21151698.6094
      2240.8594
 04  9 14 21  4 45.0000000  0  6G 3G 8G13G19G23G27
   -727985.46149   -561830.14847  23075273.0394   23075273.2934
      1513.4244
  -1568797.01649  -1206734.23447  22129600.8204   22129599.9304
      3491.2434
   -364018.47749   -283491.61348  20315467.5164   20315465.5004
       718.3264
  -1583527.48049  -1220636.61747  23515948.1954   23515946.3094
      3506.5514
    624649.44549    474448.26247  22221002.6334   22220998.9344
     -1469.2494
  -1009701.82849   -778490.13348  21145311.5394   21145309.6484
      2238.1634
 04  9 14 21  5  0.0000000  0  6G 3G 8G13G19G23G27
   -750550.15649   -579413.03547  23070979.3284   23070979.6954
      1504.3134
  -1621122.32049  -1247507.18747  22119643.8524   22119642.7704
      3488.3544
   -374681.13349   -291800.18748  20313438.5474   20313436.4574
       710.8444
  -1636051.87149  -1261564.70347  23505953.3134   23505951.5984
      3501.6264
    646762.27749    491679.01247  22225210.3754   22225206.7814
     -1474.1894
  -1043233.75449   -804618.90648  21138931.0004   21138929.1134
      2235.4624
 04  9 14 21  5 15.0000000  0  6G 3G 8G13G19G23G27
   -772980.80949   -596891.47347  23066711.2664   23066711.4224
      1495.3774
  -1673406.86749  -1288248.37947  22109694.4774   22109693.5204
      3485.6364
   -385234.16849   -300023.33648  20311430.6094   20311428.4104
       703.5364
  -1688504.56249  -1302436.91447  23495971.7584   23495969.8794
      3496.8464
    668946.57849    508965.44947  22229431.8444   22229428.9184
     -1478.9534
  -1076727.83249   -830718.18748  21132556.9144   21132555.1484
      2232.9394
 04  9 14 21  5 30.0000000  0  6G 3G 8G13G19G23G27
   -795276.79349   -614264.97347  23062468.0944   23062468.8444
      1486.3994
  -1725649.96149  -1328957.27747  22099753.0234   22099752.1564
      3482.8734
   -395677.00449   -308160.62148  20309443.0234   20309440.8834
       696.1894
  -1740884.81249  -1343252.68447  23486003.8284   23486002.2894
      3492.0174
    691202.62149    526307.78947  22233667.3754   22233664.0904
     -1483.7364
  -1110183.50449   -856787.54348  21126190.5864   21126188.6914
      2230.3784
 04  9 14 21  5 45.0000000  0  6G 3G 8G13G19G23G27
   -817435.28549   -631531.33247  23058251.8834   23058251.9734
      1477.2334
  -1777849.00049  -1369631.85247  22089819.9924   22089819.0864
      3479.9364
   -406006.91449   -316209.90648  20307477.5554   20307474.9104
       688.6614
  -1793189.57449  -1384009.64147  23476050.6724   23476048.7234
      3486.9844
    713533.05149    543708.09447  22237916.3054   22237913.3244
     -1488.6954
  -1143598.16049   -882824.94148  21119832.3284   21119830.3794
      2227.6444
 04  9 14 21  6  0.0000000  0  6G 3G 8G13G19G23G27
   -839456.51649   -648690.73447  23054061.4774   23054062.1214
      1468.0824
  -1830004.14149  -1410272.21147  22079895.4384   22079893.6604
      3477.0094
   -416223.89849   -324171.21148  20305533.2344   20305531.0204
       681.1324
  -1845418.75049  -1424707.67647  23466111.9384   23466109.6484
      3481.9454
    735937.37949    561165.98847  22242180.1484   22242176.9454
     -1493.6224
  -1176971.97349   -908830.50048  21113481.4614   21113480.0514
      2224.9214
 04  9 14 21  6 15.0000000  0  6G 3G 8G13G19G23G27
   -861341.80549   -665744.21947  23049897.0634   23049896.8324
      1459.0194
  -1882116.96149  -1450879.58247  22069978.6884   22069977.3404
      3474.1884
   -426329.56249   -332045.76648  20303610.2274   20303608.2194
       673.7114
  -1897573.52749  -1465347.75047  23456186.7974   23456184.5124
      3476.9854
    758413.99649    578680.22347  22246457.0704   22246454.1454
     -1498.4414
  -1210306.59049   -934805.53148  21107138.0314   21107136.3284
      2222.3084
 04  9 14 21  6 30.0000000  0  6G 3G 8G13G19G23G27
   -883089.52749   -682690.50847  23045758.5314   23045758.6094
      1449.8484
  -1934185.89849  -1491452.77747  22060069.7274   22060068.3054
      3471.2624
   -436322.22349   -339832.26648  20301708.8204   20301706.8954
       666.1774
  -1949651.95749  -1505928.29747  23446277.5784   23446274.7114
      3471.8954
    780964.34049    596251.88347  22250748.2344   22250745.3284
     -1503.3564
  -1243600.45749   -960748.79748  21100802.0234   21100800.9224
      2219.5914
 04  9 14 21  6 45.0000000  0  6G 3G 8G13G19G23G27
   -904698.99649   -699529.06247  23041646.2424   23041646.2704
      1440.6314
  -1986210.09849  -1531991.11347  22050170.0234   22050168.4264
      3468.2804
   -446201.28549   -347530.25048  20299828.8754   20299826.7344
       658.6044
  -2001653.02049  -1546448.60247  23436381.1484   23436379.7544
      3466.7384
    803588.87149    613881.35947  22255053.7894   22255050.9654
     -1508.3024
  -1276852.91449   -986659.80548  21094474.2894   21094473.1454
      2216.8304
 04  9 14 21  7  0.0000000  0  6G 3G 8G13G19G23G27
   -926169.89149   -716259.64147  23037560.2034   23037560.1764
      1431.3934
  -2038189.44549  -1572494.48847  22040278.7194   22040277.1254
      3465.2904
   -455966.47349   -355139.49648  20297970.6414   20297968.4924
       651.0134
  -2053576.27049  -1586908.26247  23426500.9304   23426498.8754
      3461.5504
    826287.65649    631568.69947  22259373.2344   22259370.1724
     -1513.2524
  -1310063.77349  -1012538.39548  21088154.4384   21088153.1134
      2214.0574
 04  9 14 21  7 15.0000000  0  6G 3G 8G13G19G23G27
   -947501.78149   -732881.89547  23033501.1724   23033500.9024
      1422.1264
  -2090123.44149  -1612962.53147  22030395.5164   22030394.4734
      3462.2664
   -465617.32449   -362659.64848  20296134.3134   20296131.6684
       643.3904
  -2105420.82449  -1627306.58647  23416634.9694   23416632.9924
      3456.3044
    849061.01649    649314.15247  22263706.8054   22263704.1724
     -1518.2244
  -1343232.56649  -1038384.21548  21081843.1564   21081841.5274
      2211.2534
 04  9 14 21  7 30.0000000  0  6G 3G 8G13G19G23G27
   -968693.67249   -749395.05547  23029468.5704   23029468.0554
      1412.7934
  -2142011.25449  -1653394.57847  22020521.6334   22020521.1374
      3459.1884
   -475153.02049   -370090.07048  20294319.6954   20294317.1374
       635.7134
  -2157185.58249  -1667642.75447  23406784.4774   23406783.0474
      3450.9844
    871909.50849    667118.13347  22268055.1024   22268051.8324
     -1523.2334
  -1376358.55949  -1064196.67248  21075539.1884   21075537.8204
      2208.3994
 04  9 14 21  7 45.0000000  0  6G 3G 8G13G19G23G27
   -989744.75049   -765798.49646  23025462.7424   23025461.7774
      1403.4054
  -2193852.09849  -1693790.03147  22010656.6724   22010655.9344
      3456.0564
   -484572.57449   -377429.99248  20292527.3444   20292524.8554
       627.9704
  -2208869.37949  -1707915.81247  23396949.2034   23396948.0204
      3445.5864
    894833.85549    684981.24247  22272417.1804   22272413.8634
     -1528.2904
  -1409440.89549  -1089975.10248  21069243.8134   21069242.1454
      2205.4894
 04  9 14 21  8  0.0000000  0  6G 3G 8G13G19G23G27
  -1010656.49249   -782093.37147  23021483.2734   23021482.6024
      1394.1164
  -2245647.55549  -1734150.12547  22000800.5394   22000799.8984
      3453.0304
   -493877.64149   -384680.71148  20290756.5004   20290754.4144
       620.3384
  -2260473.53549  -1748126.82047  23387129.3834   23387127.5204
      3440.2774
    917832.27749    702902.06647  22276793.4844   22276790.7664
     -1533.2284
  -1442481.44149  -1115720.98848  21062956.3674   21062955.1684
      2202.7034
 04  9 14 21  8 15.0000000  0  6G 3G 8G13G19G23G27
  -1031427.69549   -798278.72347  23017530.3204   23017530.8834
      1384.7474
  -2297396.58649  -1774474.04747  21990952.7814   21990951.6644
      3449.9354
   -503066.94549   -391841.21148  20289007.9774   20289005.5904
       612.6204
  -2311996.49649  -1788274.55947  23377324.6564   23377322.7974
      3434.8644
    940905.87149    720881.46147  22281184.3914   22281181.0984
     -1538.2404
  -1475478.78949  -1141433.19948  21056677.4384   21056676.0234
      2199.8234
 04  9 14 21  8 30.0000000  0  6G 3G 8G13G19G23G27
  -1052057.62949   -814354.01247  23013604.8444   23013603.8404
      1375.3294
  -2349098.57849  -1814761.30547  21981114.9924   21981113.1294
      3446.7994
   -512139.83249   -398911.00848  20287281.2114   20287279.0274
       604.8594
  -2363437.36349  -1828358.34047  23367536.2034   23367534.4024
      3429.3914
    964055.02749    738919.73847  22285589.8204   22285586.7034
     -1543.2774
  -1508432.38749  -1167111.32848  21050406.2664   21050404.6724
      2196.9074
 04  9 14 21  8 45.0000000  0  6G 3G 8G13G19G23G27
  -1072547.54349   -830320.19147  23009706.0084   23009705.5744
      1365.9944
  -2400754.45749  -1855012.63347  21971284.8594   21971283.4884
      3443.7254
   -521097.58249   -405891.08248  20285576.8364   20285574.5704
       597.1834
  -2414796.96549  -1868378.77347  23357762.5554   23357760.5944
      3423.9734
    987278.30149    757015.76247  22290008.6414   22290005.8054
     -1548.2184
  -1541343.50449  -1192756.35548  21044143.0944   21044141.8404
      2194.0744
 04  9 14 21  9  0.0000000  0  6G 3G 8G13G19G23G27
  -1092896.44149   -846176.48047  23005833.9844   23005832.9534
      1356.5934
  -2452363.59049  -1895227.53947  21961463.8984   21961462.8484
      3440.6094
   -529939.18749   -412780.64848  20283894.2664   20283892.1724
       589.4404
  -2466074.06249  -1908334.93747  23348004.9384   23348002.9264
      3418.4734
   1010576.51649    775170.18847  22294442.6094   22294438.8244
     -1553.2144
  -1574211.31249  -1218367.64148  21037888.8284   21037887.3794
      2191.1874
 04  9 14 21  9 15.0000000  0  6G 3G 8G13G19G23G27
  -1113102.81249   -861921.70747  23001988.1484   23001987.9534
      1347.0914
  -2503924.33649  -1935404.73047  21951652.0864   21951651.3524
      3437.3834
   -538663.17249   -419578.56648  20282234.1334   20282231.5864
       581.5994
  -2517266.96949  -1948225.46947  23338263.1484   23338261.7504
      3412.8604
   1033950.80549    793383.89547  22298890.1954   22298886.6174
     -1558.2864
  -1607034.40649  -1243944.07048  21031642.9144   21031641.4184
      2188.2064
 04  9 14 21  9 30.0000000  0  6G 3G 8G13G19G23G27
  -1133166.40649   -877555.68447  22998170.4614   22998170.3834
      1337.5734
  -2555436.47749  -1975544.05547  21941849.3594   21941849.3284
      3434.1434
   -547269.28549   -426284.64548  20280596.5234   20280593.6484
       573.7414
  -2568375.09049  -1988049.95347  23328537.5864   23328535.4384
      3407.2084
   1057401.20749    811656.89147  22303352.9924   22303349.3554
     -1563.3604
  -1639812.60549  -1269485.51248  21025405.5634   21025403.8364
      2185.2134
 04  9 14 21  9 45.0000000  0  6G 3G 8G13G19G23G27
  -1153085.50849   -893077.05947  22994379.2894   22994380.0084
      1327.9404
  -2606898.29749  -2015644.18047  21932056.7504   21932055.9924
      3430.7884
   -555756.08649   -432897.74248  20278981.5394   20278979.1374
       565.7874
  -2619396.55949  -2027806.91847  23318828.4694   23318826.1914
      3401.4314
   1080929.29749    829990.43847  22307830.1884   22307826.7934
     -1568.5394
  -1672544.31649  -1294990.74648  21019176.9774   21019175.4534
      2182.1144
 04  9 14 21 10  0.0000000  0  6G 3G 8G13G19G23G27
  -1172859.77749   -908485.59447  22990617.0704   22990617.4024
      1318.2854
  -2658309.82449  -2055705.09447  21922274.1414   21922273.0984
      3427.4354
   -564123.04749   -439417.45348  20277389.0394   20277386.4804
       557.7974
  -2670330.58649  -2067495.72347  23309136.2344   23309134.0554
      3395.6024
   1104535.18849    848384.59847  22312322.3674   22312318.4304
     -1573.7264
  -1705229.19549  -1320459.48448  21012957.4224   21012955.5124
      2178.9924
 04  9 14 21 10 15.0000000  0  6G 3G 8G13G19G23G27
  -1192492.27049   -923783.63747  22986880.4534   22986881.5664
      1308.8334
  -2709674.06249  -2095729.16047  21912499.2584   21912498.7194
      3424.2834
   -572373.18749   -445846.14148  20275819.3524   20275816.9804
       550.0094
  -2721179.96949  -2107118.59047  23299460.0004   23299457.7704
      3389.9594
   1128215.63349    866836.86347  22316829.2034   22316824.8794
     -1578.6964
  -1737870.39149  -1345894.17648  21006745.8364   21006744.2074
      2176.0804
 04  9 14 21 10 30.0000000  0  7G10G 3G 8G13G19G23G27
   -172969.09859   -118056.42256  24062087.4924   24062087.3634

  -1211981.07849   -938969.71947  22983172.2894   22983172.5124
      1299.2544
  -2760989.21949  -2135714.98447  21902734.3284   21902734.0784
      3421.0104
   -580504.76649   -452182.44948  20274271.7734   20274269.4304
       542.1054
  -2771942.62149  -2146673.87547  23289799.8444   23289797.8284
      3384.1774
   1151972.23849    885348.47347  22321349.2734   22321345.8244
     -1583.7744
  -1770466.13749  -1371293.45348  21000543.1564   21000541.4144
      2173.0504
 04  9 14 21 10 45.0000000  0  7G10G 3G 8G13G19G23G27
   -227242.44149   -160347.32846  24051760.4534   24051759.6764
      3618.2234
  -1231326.57449   -954044.13347  22979491.1884   22979491.5634
      1289.7004
  -2812255.43449  -2175662.68447  21892978.5554   21892977.9804
      3417.7484
   -588518.12949   -458426.63348  20272746.8834   20272744.4414
       534.2244
  -2822618.67649  -2186161.69147  23280156.6334   23280154.2854
      3378.4044
   1175804.59449    903919.10247  22325884.3054   22325881.2504
     -1588.8244
  -1803016.84449  -1396657.64148  20994348.5634   20994347.4964
      2170.0474
 04  9 14 21 11  0.0000000  0  7G10G 3G 8G13G19G23G27
   -281408.71149   -202554.84046  24041452.6564   24041452.1414
      3611.0854
  -1250534.16849   -969011.10947  22975835.9064   22975835.7734
      1280.5064
  -2863478.16449  -2215576.48847  21883231.1564   21883230.6684
      3414.8494
   -596418.69549   -464582.92648  20271243.7344   20271241.3554
       526.7044
  -2873213.23849  -2225585.98447  23270529.0084   23270526.7424
      3372.9714
   1199706.89149    922544.23847  22330433.0394   22330429.5314
     -1593.4864
  -1835527.87549  -1421990.91048  20988162.1414   20988160.8674
      2167.4024
 04  9 14 21 11 15.0000000  0  7G10G 3G 8G13G19G23G27
   -335464.11349   -244675.89546  24031166.3364   24031165.6844
      3603.6934
  -1269600.22349   -983867.77047  22972207.5394   22972207.6564
      1271.0704
  -2914653.87949  -2255453.66447  21873492.7664   21873491.5594
      3411.7144
   -604202.87549   -470648.53148  20269762.1334   20269760.1564
       518.9454
  -2923722.37949  -2264943.72347  23260917.1804   23260914.8444
      3367.2764
   1223682.62549    941226.59047  22334995.4224   22334992.0044
     -1598.3824
  -1867995.84449  -1447290.62148  20981983.8524   20981982.2664
      2164.5314
 04  9 14 21 11 30.0000000  0  7G10G 3G 8G13G19G23G27
   -389408.56249   -286710.50446  24020901.6024   24020900.6294
      3596.2974
  -1288524.99249   -998614.35247  22968607.0944   22968606.8134
      1261.6514
  -2965782.85549  -2295294.42247  21863763.4844   21863762.3714
      3408.5984
   -611870.94949   -476623.66048  20268303.2974   20268300.9304
       511.2054
  -2974145.99249  -2304234.82047  23251322.0784   23251319.6094
      3361.5744
   1247731.48849    959965.94547  22339571.6484   22339568.0664
     -1603.2584
  -1900420.95749  -1472556.93448  20975813.3594   20975811.6174
      2161.6744
 04  9 14 21 11 45.0000000  0  7G10G 3G 8G13G19G23G27
   -443240.88349   -328657.75046  24010657.0164   24010656.7234
      3588.8214
  -1307307.32049  -1013249.93747  22965032.5004   22965032.1374
      1252.1554
  -3016863.89849  -2335097.82047  21854043.2274   21854042.2544
      3405.4034
   -619421.93449   -482507.55948  20266866.0554   20266864.4064
       503.3994
  -3024482.80549  -2343458.28147  23241743.0944   23241740.5554
      3355.7884
   1271854.18049    978762.80947  22344162.2344   22344158.6764
     -1608.1794
  -1932802.15649  -1497789.04348  20969651.6804   20969649.9224
      2158.7474
 04  9 14 21 12  0.0000000  0  7G10G 3G 8G13G19G23G27
   -496962.53949   -370518.77046  24000434.0234   24000434.0514
      3581.4444
  -1325948.98449  -1027775.91847  22961484.8364   22961484.6094
      1242.7784
  -3067898.98049  -2374865.42247  21844331.6884   21844330.2814
      3402.3394
   -626857.33249   -488301.38348  20265451.3284   20265449.6954
       495.6934
  -3074734.21549  -2382615.21547  23232180.7424   23232177.9184
      3350.0944
   1296048.76249    997615.69147  22348766.2734   22348762.7074
     -1612.9724
  -1965141.38749  -1522988.44148  20963497.1094   20963495.9534
      2155.9494
 04  9 14 21 12 15.0000000  0  7G10G 3G 8G13G19G23G27
   -550573.75449   -412293.69946  23990232.1724   23990231.5084
      3574.0814
  -1344450.49249  -1042192.69147  22957964.0704   22957963.6994
      1233.4344
  -3118888.56649  -2414597.55547  21834628.4384   21834627.3554
      3399.3064
   -634177.63349   -494005.52048  20264058.1644   20264056.3094
       488.0204
  -3124900.40649  -2421705.71547  23222634.3204   23222631.8014
      3344.4134
   1320314.65649   1016524.15247  22353383.9384   22353380.3484
     -1617.7264
  -1997438.96149  -1548155.37948  20957351.3754   20957349.9024
      2153.1724
 04  9 14 21 12 30.0000000  0  7G10G 3G 8G13G19G23G27
   -604073.51649   -453981.83246  23980051.7734   23980050.6054
      3566.6514
  -1362810.91449  -1056499.51247  22954470.2344   22954470.0514
      1224.0284
  -3169831.89549  -2454293.63747  21824934.0004   21824933.2734
      3396.2224
   -641382.21949   -499619.49248  20262687.4774   20262684.9614
       480.3064
  -3174980.20349  -2460728.90647  23213104.1564   23213102.3634
      3338.6534
   1344652.43049   1035488.62147  22358014.9534   22358011.6334
     -1622.5184
  -2029694.30549  -1573289.41048  20951213.6414   20951211.8634
      2150.3564
 04  9 14 21 12 45.0000000  0  7G10G 3G 8G13G19G23G27
   -657459.84049   -495581.60246  23969892.9614   23969892.0234
      3559.0884
  -1381028.64549  -1070695.15647  22951003.6724   22951003.3094
      1214.5154
  -3220727.27049  -2493952.36347  21815249.0784   21815248.1174
      3393.0254
   -648469.34849   -505141.93748  20261338.7034   20261336.8204
       472.4754
  -3224971.59049  -2499683.21947  23203590.9064   23203589.0514
      3332.7594
   1369063.46549   1054510.17647  22362660.5084   22362657.1254
     -1627.4024
  -2061905.69549  -1598389.20348  20945083.7734   20945082.3134
      2147.4264
 04  9 14 21 13  0.0000000  0  7G10G 3G 8G13G19G23G27
   -710733.00449   -537093.16446  23959754.7504   23959754.8404
      3551.5444
  -1399104.23849  -1084780.03947  22947563.9924   22947563.7464
      1205.0404
  -3271575.30149  -2533574.18747  21805573.0474   21805572.2624
      3389.8694
   -655439.58249   -510573.29748  20260012.4534   20260009.9774
       464.6824
  -3274875.00049  -2538568.94947  23194094.9384   23194093.3014
      3326.8944
   1393547.10549   1073588.30147  22367319.5164   22367316.3754
     -1632.2434
  -2094073.74249  -1623455.21548  20938962.3594   20938960.7734
      2144.5364
 04  9 14 21 13 15.0000000  0  7G10G 3G 8G13G19G23G27
   -763891.40249   -578515.28946  23949639.6414   23949639.2424
      3543.8934
  -1417036.06249  -1098752.90247  22944152.0864   22944151.3874
      1195.4554
  -3322374.44949  -2573157.93447  21795906.2114   21795905.1334
      3386.6104
   -662291.38349   -515912.36748  20258708.3054   20258706.1724
       456.7874
  -3324688.44149  -2577384.59847  23184615.9924   23184613.6414
      3320.8964
   1418104.67249   1092724.04347  22371993.2974   22371990.0944
     -1637.1714
  -2126196.97349  -1648486.30948  20932849.4454   20932848.1604
      2141.5494
 04  9 14 21 13 30.0000000  0  7G10G 3G 8G13G19G23G27
   -816934.30549   -619847.41446  23939546.0084   23939545.1954
      3536.1934
  -1434823.59449  -1112613.31247  22940766.6954   22940766.6764
      1185.8354
  -3373124.14849  -2612703.13747  21786248.8134   21786247.7504
      3383.3134
   -669024.22749   -521158.75048  20257427.6564   20257425.0664
       448.8564
  -3374411.20349  -2616129.57447  23175153.5864   23175151.6524
      3314.8514
   1442736.41449   1111917.58247  22376679.8134   22376676.9384
     -1642.1164
  -2158275.01249  -1673482.18048  20926745.1094   20926743.7624
      2138.5364
 04  9 14 21 13 45.0000000  0  7G10G 3G 8G13G19G23G27
   -869860.72349   -661088.78946  23929474.5084   23929473.3524
      3528.4284
  -1452466.09449  -1126360.69946  22937409.6334   22937409.5704
      1176.1674
  -3423823.51249  -2652209.11747  21776600.9614   21776600.3204
      3379.9584
   -675637.43049   -526311.90648  20256169.0554   20256166.3754
       440.8804
  -3424042.27349  -2654803.12147  23165709.4384   23165707.2074
      3308.7384
   1467443.05949   1131169.48447  22381381.6024   22381378.4924
     -1647.1104
  -2190307.04749  -1698442.20748  20920649.6414   20920648.6024
      2135.4694
 04  9 14 21 14  0.0000000  0  7G10G 3G 8G13G19G23G27
   -922671.77749   -702240.28546  23919423.8444   23919423.2704
      3520.7374
  -1469965.06249  -1139996.25847  22934079.8204   22934079.5744
      1166.5984
  -3474474.10949  -2691677.11747  21766962.3754   21766961.8094
      3376.7074
   -682132.47349   -531372.98048  20254932.8914   20254930.4104
       433.0034
  -3473582.70749  -2693406.02747  23156281.7034   23156280.1094
      3302.6964
   1492222.95349   1150478.46547  22386097.2114   22386093.9144
     -1651.9934
  -2222294.49249  -1723367.48848  20914562.9534   20914561.5314
      2132.4964
 04  9 14 21 14 15.0000000  0  7G10G 3G 8G13G19G23G27
   -975365.54749   -743300.36346  23909397.8914   23909395.4574
      3512.9184
  -1487318.73449  -1153518.61347  22930777.2344   22930777.2974
      1156.9114
  -3525074.22749  -2731105.76247  21757333.8364   21757333.2074
      3373.3414
   -688507.53149   -536340.57048  20253720.0784   20253717.3364
       425.0044
  -3523030.52749  -2731936.77347  23146872.2734   23146869.8484
      3296.5214
   1517077.33249   1169845.47747  22390826.8284   22390823.6524
     -1656.9594
  -2254235.85249  -1748256.85548  20908484.7894   20908483.2424
      2129.4244
 04  9 14 21 14 30.0000000  0  7G10G 3G 8G13G19G23G27
  -1027943.73849   -784270.38746  23899391.6564   23899389.5744
      3505.2134
  -1504528.96949  -1166929.19147  22927502.8914   22927502.1294
      1147.3494
  -3575625.85949  -2770496.63747  21747713.8834   21747713.2854
      3370.1094
   -694764.53949   -541216.16848  20252529.3914   20252526.6604
       417.1344
  -3572387.32849  -2770396.58647  23137479.9454   23137477.2624
      3290.4534
   1542004.33649   1189269.08647  22395570.2664   22395566.8794
     -1661.8004
  -2286132.84449  -1773111.66448  20902414.8984   20902413.5354
      2126.4664
 04  9 14 21 14 45.0000000  0  7G10G 3G 8G13G19G23G27
  -1080404.43749   -825148.82446  23889409.0554   23889407.0004
      3497.3804
  -1521594.08249  -1180226.68747  22924254.9844   22924254.8054
      1137.6744
  -3626127.12549  -2809848.27047  21738103.9384   21738103.1844
      3366.7514
   -700901.73049   -545998.40648  20251361.2034   20251358.7274
       409.1464
  -3621651.10949  -2808783.92247  23128105.1094   23128103.0514
      3284.2524
   1567005.59049   1208750.54747  22400327.6254   22400324.8134
     -1666.7504
  -2317983.92649  -1797930.68448  20896353.6254   20896352.0314
      2123.4054
 04  9 14 21 15  0.0000000  0  7G10G 3G 8G13G19G23G27
  -1132746.44949   -865934.79746  23879448.6724   23879447.0514
      3489.4674
  -1538513.13749  -1193410.35947  22921035.6724   22921035.8634
      1127.9374
  -3676577.30549  -2849160.07847  21728503.3674   21728503.0664
      3363.3454
   -706918.19549   -550686.57048  20250216.3364   20250213.8054
       401.0984
  -3670820.64149  -2847097.80947  23118748.6094   23118746.5864
      3277.9694
   1592081.78149   1228290.40647  22405099.7344   22405096.6094
     -1671.7464
  -2349788.17649  -1822713.22348  20890301.8834   20890300.0514
      2120.2834
 04  9 14 21 15 15.0000000  0  7G10G 3G 8G13G19G23G27
  -1184970.09049   -906628.54346  23869510.2274   23869509.4414
      3481.5764
  -1555286.67249  -1206480.64847  22917843.8444   22917843.4344
      1118.2364
  -3726977.03549  -2888432.59047  21718912.7894   21718911.8164
      3359.9824
   -712814.67249   -555281.24248  20249094.3054   20249091.7154
       393.0984
  -3719896.23849  -2885338.51247  23109409.9924   23109407.7304
      3271.7074
   1617231.95749   1247887.90647  22409885.8204   22409882.2114
     -1676.6784
  -2381546.23049  -1847459.75448  20884258.4144   20884257.1254
      2117.2044
 04  9 14 21 15 30.0000000  0  7G10G 3G 8G13G19G23G27
  -1237073.65249   -947228.73446  23859596.2194   23859594.7194
      3473.5714
  -1571913.08649  -1219436.29347  22914679.4454   22914679.4964
      1108.4284
  -3777324.60549  -2927664.45747  21709332.2584   21709331.3524
      3356.5054
   -718589.48449   -559781.10248  20247995.6564   20247993.0864
       384.9884
  -3768875.99649  -2923504.53147  23100089.6334   23100087.1564
      3265.3174
   1642457.56649   1267544.18847  22414685.8444   22414682.4614
     -1681.7074
  -2413256.53949  -1872169.07848  20878223.9224   20878222.8014
      2114.0214
 04  9 14 21 15 45.0000000  0  7G10G 3G 8G13G19G23G27
  -1289062.37549   -987739.42246  23849702.4304   23849702.0944
      3465.9154
  -1588397.94549  -1232281.66447  22911542.6334   22911542.1334
      1098.9914
  -3827625.70749  -2966860.11347  21699760.3914   21699759.1604
      3353.4074
   -724248.10549   -564190.43048  20246918.5784   20246916.1644
       377.2414
  -3817765.03149  -2961599.85947  23090786.0314   23090784.0234
      3259.2694
   1667752.93049   1287254.83647  22419499.8984   22419496.4224
     -1686.3584
  -2444924.71149  -1896845.57848  20872197.7274   20872196.3164
      2111.2114
 04  9 14 21 15 59.9990000  0  8G10G 3G 8G28G13G19G23G27
  -1340931.68449  -1028157.03546  23839832.5894   23839832.1444
      3457.9544
  -1604739.15249  -1245015.02347  22908433.3704   22908432.9214
      1089.4144
  -3877875.53549  -3006015.81647  21690198.0504   21690196.7534
      3349.9894
   -224453.97359   -152094.56256  24076045.0504   24076043.3904

   -729789.35549   -568508.29348  20245864.3084   20245861.5734
       369.4174
  -3866558.92649  -2999621.05147  23081500.7764   23081498.6444
      3252.9264
   1693117.13349   1307019.11347  22424326.3234   22424323.0974
     -1690.9474
  -2476547.59849  -1921486.79348  20866180.4484   20866178.1754
      2108.1924
 04  9 14 21 16 14.9990000  0  8G10G 3G 8G28G13G19G23G27
  -1392685.81249  -1068484.91446  23829983.5734   23829983.3474
      3450.2754
  -1620936.50049  -1257636.38347  22905350.8154   22905350.7454
      1079.8234
  -3928078.86749  -3045135.27347  21680643.8704   21680643.5814
      3346.8894
   -294813.37549   -206920.03546  24062656.1514   24062655.3864
      4690.6274
   -735211.56649   -572733.40248  20244832.4874   20244829.7804
       361.4814
  -3915261.54349  -3037571.12947  23072232.9644   23072230.5544
      3246.8414
   1718555.77749   1326841.39547  22429167.2844   22429163.7494
     -1695.9104
  -2508127.09449  -1946094.18048  20860170.6284   20860169.1444
      2105.3004
 04  9 14 21 16 29.9990000  0  8G10G 3G 8G28G13G19G23G27
  -1444324.96549  -1108723.22346  23820156.7614   23820156.6054
      3442.6104
  -1636992.82049  -1270147.80547  22902295.6364   22902294.9054
      1070.4214
  -3978236.11349  -3084218.83647  21671099.5654   21671098.7104
      3343.8164
   -365138.12149   -261718.44146  24049273.7454   24049273.1514
      4688.3164
   -740518.23849   -576868.48448  20243822.4954   20243820.0774
       353.7784
  -3963873.23849  -3075450.33647  23062982.4874   23062979.8004
      3240.7804
   1744063.07049   1346717.17647  22434021.0034   22434017.8664
     -1700.4864
  -2539665.04349  -1970669.21548  20854169.3474   20854167.5304
      2102.5304
 04  9 14 21 16 44.9990000  0  8G10G 3G 8G28G13G19G23G27
  -1495849.80549  -1148872.46546  23810352.6754   23810351.9834
      3434.9894
  -1652909.10949  -1282550.09447  22899266.8784   22899266.4444
      1061.0864
  -4028348.34049  -3123267.32047  21661563.6054   21661562.7494
      3340.8154
   -435428.91849   -316490.44946  24035897.9014   24035897.9834
      4686.0534
   -745710.30149   -580914.25848  20242834.3004   20242832.2924
       346.1384
  -4012394.57849  -3113259.14147  23053749.0504   23053746.8824
      3234.7564
   1769637.86749   1366645.55947  22438887.9334   22438884.5264
     -1704.9864
  -2571162.37549  -1995212.59448  20848175.2454   20848173.5734
      2099.8224
 04  9 14 21 16 59.9990000  0  8G10G 3G 8G28G13G19G23G27
  -1547259.69949  -1188932.11746  23800569.4644   23800568.8194
      3427.3264
  -1668684.89149  -1294842.92647  22896264.9094   22896264.4134
      1051.7194
  -4078414.83649  -3162280.17247  21652035.7144   21652035.3274
      3337.7664
   -505685.09449   -371235.50046  24022529.0114   24022528.4724
      4683.7454
   -750787.22349   -584870.31248  20241868.3004   20241866.2264
       338.4614
  -4060824.71149  -3150996.89847  23044533.1124   23044531.4524
      3228.6764
   1795280.42249   1386626.72747  22443766.9484   22443764.3664
     -1709.5044
  -2602618.65249  -2019723.98048  20842189.4804   20842187.6714
      2097.0854
 04  9 14 21 17 14.9990000  0  8G10G 3G 8G28G13G19G23G27
  -1598552.49649  -1228900.53546  23790808.8704   23790808.1404
      3419.5204
  -1684318.16049  -1307024.68747  22893289.7534   22893289.1124
      1042.2184
  -4128433.83649  -3201256.01247  21642517.9564   21642517.1594
      3334.6004
   -575904.49249   -425951.86746  24009165.8704   24009166.7144
      4681.2934
   -755747.19549   -588735.23848  20240924.5194   20240922.4054
       330.6654
  -4109161.56249  -3188661.93747  23035334.8554   23035332.9134
      3222.4574
   1820992.49649   1406662.06647  22448660.2454   22448657.1324
     -1714.1384
  -2634032.04749  -2044201.94948  20836212.0424   20836209.8664
      2094.2264
 04  9 14 21 17 29.9990000  0  8G10G 3G 8G28G13G19G23G27
  -1649727.58249  -1268777.21146  23781070.3864   23781069.7304
      3411.6724
  -1699808.59049  -1319095.16447  22890342.3704   22890341.8554
      1032.6954
  -4178404.94149  -3240194.51647  21633008.7694   21633008.0504
      3331.4074
   -646086.72749   -480639.22746  23995810.6594   23995811.5894
      4678.8164
   -760589.74649   -592508.66448  20240002.8864   20240000.9294
       322.8374
  -4157404.42649  -3226253.76247  23026154.2144   23026152.5464
      3216.1914
   1846774.26249   1426751.72747  22453566.3944   22453563.3474
     -1718.7844
  -2665402.15649  -2068646.20348  20830242.3944   20830240.4404
      2091.3414
 04  9 14 21 17 44.9990000  0  8G10G 3G 8G28G13G19G23G27
  -1700784.93449  -1308562.15246  23771354.7064   23771353.6514
      3403.8234
  -1715156.52349  -1331054.59847  22887420.8394   22887420.6284
      1023.1964
  -4228328.36349  -3279095.87547  21623508.7224   21623507.8944
      3328.2284
   -716231.71949   -535297.62946  23982462.1364   23982463.0464
      4676.3334
   -765315.39149   -596191.00048  20239103.7614   20239101.6474
       315.0434
  -4205553.20749  -3263772.28147  23016992.4094   23016990.2184
      3209.9194
   1872625.23449   1446895.30547  22458485.4334   22458482.4374
     -1723.3984
  -2696729.19949  -2093056.88748  20824280.8704   20824278.9054
      2088.4704
 04  9 14 21 17 59.9990000  0  8G10G 3G 8G28G13G19G23G27
  -1751723.84849  -1348254.79346  23761661.3234   23761659.6874
      3395.9284
  -1730361.15249  -1342902.35547  22884527.9804   22884527.7184
      1013.6424
  -4278203.40249  -3317959.53147  21614017.9174   21614016.4254
      3325.0034
   -786338.69149   -589926.36346  23969121.0114   23969121.4764
      4673.7984
   -769923.18749   -599781.50048  20238226.7374   20238224.7494
       307.1864
  -4253607.02749  -3301216.80147  23007848.0974   23007845.6874
      3203.5884
   1898545.87949   1467093.17247  22463417.8234   22463415.0224
     -1728.0434
  -2728012.74249  -2117433.68048  20818327.5814   20818325.4334
      2085.5704
 04  9 14 21 18 14.9990000  0  8G10G 3G 8G28G13G19G23G27
  -1802541.95749  -1387853.31646  23751990.8554   23751990.1554
      3387.8744
  -1745420.70349  -1354637.08247  22881662.9954   22881661.8554
      1003.9704
  -4328028.22749  -3356784.07047  21604536.8394   21604535.0814
      3321.6554
   -856405.41449   -644523.79746  23955787.4874   23955787.6244
      4671.1154
   -774411.31249   -603278.75448  20237373.0894   20237370.5424
       299.2084
  -4301563.59449  -3338585.54347  22998722.0034   22998719.5344
      3197.1044
   1924538.02749   1487346.76247  22468363.9484   22468361.8274
     -1732.8104
  -2759250.63749  -2141774.89848  20812383.8084   20812381.6594
      2082.5264
 04  9 14 21 18 29.9990000  0  8G10G 3G 8G28G13G19G23G27
  -1853239.61749  -1427357.98846  23742343.2064   23742342.4604
      3379.8444
  -1760335.37549  -1366258.89547  22878823.9014   22878823.7494
       994.3114
  -4377803.05549  -3395569.64847  21595064.5654   21595063.8824
      3318.3224
   -926432.04749   -699089.93746  23942462.4804   23942462.0304
      4668.4424
   -778780.23849   -606683.11348  20236541.5654   20236538.9764
       291.2624
  -4349423.00849  -3375878.57847  22989614.7534   22989612.4684
      3190.6284
   1950601.10949   1507655.62147  22473323.7764   22473321.2924
     -1737.5394
  -2790443.48449  -2166081.01648  20806447.6984   20806445.6944
      2079.5234
 04  9 14 21 18 44.9990000  0  8G10G 3G 8G28G13G19G23G27
  -1903815.99249  -1466768.22346  23732719.5344   23732718.4914
      3371.7584
  -1775104.69949  -1377767.47347  22876013.8234   22876013.4604
       984.6224
  -4427527.39849  -3434315.86747  21585602.7224   21585601.6054
      3314.9564
   -996418.04349   -753624.46146  23929144.1834   23929144.3514
      4665.7334
   -783029.31249   -609994.09048  20235733.1204   20235730.2374
       283.2724
  -4397184.50049  -3413095.30147  22980526.1674   22980523.6084
      3184.0994
   1976735.42649   1528019.98047  22478296.9804   22478294.1904
     -1742.2884
  -2821590.66849  -2190351.54748  20800520.4254   20800519.0424
      2076.4794
 04  9 14 21 18 59.9990000  0  7G10G 3G 8G13G19G23G27
  -1954272.03949  -1506084.53546  23723117.2064   23723117.0114
      3363.7364
  -1789729.96949  -1389163.78546  22873230.2844   22873230.3354
       975.0184
  -4477202.62549  -3473023.82847  21576149.3554   21576148.6444
      3311.6824
   -787159.77349   -613212.64148  20234947.1904   20234944.7024
       275.3644
  -4444848.84049  -3450236.32447  22971455.7694   22971453.1634
      3177.6234
   2002939.50849   1548438.71947  22483283.5734   22483280.7694
     -1746.9394
  -2852693.50449  -2214587.52048  20794601.8084   20794600.0624
      2073.5224
 04  9 14 21 19 14.9990000  0  8G10G 3G 8G28G13G19G23G27
  -2004608.48849  -1545307.73046  23713538.4724   23713538.4874
      3355.7634
  -1804212.06649  -1400448.54347  22870474.7454   22870474.3044
       965.4734
  -4526829.48449  -3511694.09447  21566706.1124   21566705.3084
      3308.4574
    -70850.65219                  23902531.956

   -791172.64849   -616339.57048  20234183.3004   20234181.0424
       267.5254
  -4492416.75049  -3487302.20747  22962403.8864   22962401.4014
      3171.1944
   2029212.25449   1568910.94547  22488283.1594   22488279.9214
     -1751.5164
  -2883752.91449  -2238789.65248  20788691.4644   20788689.8784
      2070.6274
 04  9 14 21 19 29.9990000  0  8G10G 3G 8G28G13G19G23G27
  -2054822.94949  -1584435.96147  23703983.5654   23703982.7964
      3347.6314
  -1818548.85249  -1411620.06247  22867746.4804   22867746.3624
       955.7864
  -4576406.14549  -3550325.25447  21557271.9804   21557271.1084
      3305.1114
   -140716.78149   -888739.33657  23889236.5264   23889236.3784
      4657.7424
   -795065.76249   -619373.18448  20233442.5424   20233439.9994
       259.5414
  -4539885.85949  -3524291.11347  22953370.7454   22953368.4914
      3164.6074
   2055555.68049   1589438.25847  22493296.3784   22493293.1634
     -1756.2284
  -2914766.75449  -2262956.29348  20782789.8394   20782787.8084
      2067.5894
 04  9 14 21 19 44.9990000  0  8G10G 3G 8G28G13G19G23G27
  -2104915.20749  -1623468.84847  23694451.0114   23694450.5734
      3339.4844
  -1832740.22349  -1422678.27747  22865046.4334   22865045.8584
       946.0914
  -4625932.34849  -3588917.07447  21547847.1124   21547846.4834
      3301.7474
   -210541.29749   -943147.98047  23875949.8624   23875948.4334
      4654.9684
   -798839.14149   -622313.47748  20232724.4644   20232722.2144
       251.5594
  -4587255.62149  -3561202.59847  22944356.4484   22944354.5304
      3157.9844
   2081969.58249   1610020.48447  22498322.5894   22498319.7574
     -1760.9274
  -2945734.86749  -2287087.29748  20776896.8314   20776895.1674
      2064.5414
 04  9 14 21 19 59.9990000  0  8G10G 3G 8G28G13G19G23G27
  -2154884.87149  -1662406.22746  23684942.1124   23684941.5344
      3331.3114
  -1846786.27749  -1433623.24647  22862372.8394   22862372.9334
       936.4044
  -4675407.90249  -3627469.45347  21538432.4404   21538430.9444
      3298.3704
   -280324.07049   -997524.14147  23862670.4404   23862670.2374
      4652.1854
   -802492.58249   -625160.33648  20232029.0344   20232026.8744
       243.5634
  -4634525.77749  -3598036.47747  22935361.4804   22935359.1754
      3151.3444
   2108453.86749   1630657.54747  22503362.7374   22503359.8974
     -1765.6194
  -2976657.37949  -2311182.75848  20771012.4954   20771010.5774
      2061.5014
 04  9 14 21 20 14.9990000  0  8G10G 3G 8G28G13G19G23G27
  -2204731.44549  -1701247.67547  23675456.9174   23675456.0544
      3323.1054
  -1860686.56649  -1444454.66447  22859728.2614   22859727.8394
       926.6864
  -4724832.34049  -3665982.00847  21529027.1984   21529026.1054
      3294.9634
   -350064.48849  -1051867.27347  23849398.7304   23849398.6874
      4649.3614
   -806025.94949   -627913.60948  20231356.9874   20231354.9094
       235.5584
  -4681695.69949  -3634792.24647  22926385.1364   22926383.1944
      3144.6614
   2135008.69549   1651349.58647  22508416.0654   22508412.8474
     -1770.3224
  -3007533.98049  -2335242.44548  20765136.8704   20765135.2884
      2058.4404
 04  9 14 21 20 29.9990000  0  8G10G 3G 8G28G13G19G23G27
  -2254455.38749  -1739993.64147  23665995.1444   23665993.9764
      3314.9294
  -1874441.75049  -1455172.98447  22857110.4874   22857110.1984
       917.0124
  -4774206.52349  -3704455.39547  21519631.7694   21519630.5814
      3291.6124
   -419763.01649  -1106177.76247  23836135.4484   23836135.5854
      4646.5684
   -809439.64849   -630573.65248  20230707.1124   20230705.2724
       227.5804
  -4728765.67249  -3671470.13747  22917428.1834   22917425.8154
      3137.9984
   2161633.32049   1672096.01647  22513482.6594   22513479.2804
     -1774.9754
  -3038365.19949  -2359266.77348  20759269.5264   20759268.3314
      2055.4154
 04  9 14 21 20 44.9990000  0  8G10G 3G 8G28G13G19G23G27
  -2304057.42649  -1778644.59447  23656555.3554   23656554.7574
      3306.8034
  -1888052.77749  -1465778.98847  22854521.0584   22854520.2064
       907.4024
  -4823531.37949  -3742890.35547  21510245.1444   21510244.1514
      3288.3244
   -489420.53149  -1160456.27746  23822879.4804   23822880.1834
      4643.8344
   -812734.75049   -633141.26648  20230080.2064   20230078.0934
       219.6734
  -4775736.30549  -3708070.62147  22908489.8704   22908487.3474
      3131.3764
   2188326.65649   1692895.97747  22518562.0194   22518559.0154
     -1779.5564
  -3069151.91449  -2383256.43048  20753411.1444   20753409.5974
      2052.4484
 04  9 14 21 20 59.9990000  0  8G10G 3G 8G28G13G19G23G27
  -2353536.75449  -1817199.85547  23647139.8624   23647138.9644
      3298.6224
  -1901519.20749  -1476272.30947  22851957.9254   22851957.4404
       897.7624
  -4872806.23449  -3781286.33247  21500868.8944   21500867.5544
      3284.9904
   -559036.11749  -1214702.14846  23809632.1284   23809632.3314
      4641.0394
   -815910.78949   -635616.11748  20229475.6364   20229473.8154
       211.7364
  -4822606.91449  -3744593.16047  22899571.0034   22899568.3784
      3124.7074
   2215088.91449   1713749.64847  22523654.6364   22523652.0344
     -1784.1514
  -3099893.77749  -2407211.13748  20747561.2764   20747559.4874
      2049.4584
 04  9 14 21 21 14.9990000  0  8G10G 3G 8G28G13G19G23G27
  -2402892.09049  -1855658.60247  23637748.3084   23637747.8354
      3290.3564
  -1914840.10549  -1486652.22747  22849423.0344   22849422.4994
       888.0604
  -4922030.16049  -3819642.62947  21491501.5114   21491500.5114
      3281.5954
   -628608.75449  -1268914.55146  23796393.2064   23796392.3904
      4638.1764
   -818966.80149   -637997.43748  20228894.1594   20228892.0304
       203.7344
  -4869376.19549  -3781036.74647  22890671.3864   22890668.4254
      3117.9524
   2241920.81349   1734657.58647  22528760.4404   22528757.6594
     -1788.7934
  -3130589.84449  -2431130.14848  20741719.7064   20741718.8474
      2046.4044
 04  9 14 21 21 29.9990000  0  8G10G 3G 8G28G13G19G23G27
  -2452125.94149  -1894022.63747  23628379.4564   23628378.8474
      3282.2574
  -1928018.11749  -1496920.81247  22846915.4804   22846915.2534
       878.5344
  -4971205.96149  -3857961.41447  21482143.8154   21482142.6404
      3278.3874
   -698140.87549  -1323095.37146  23783161.2374   23783160.7574
      4635.4754
   -821905.30549   -640287.18448  20228334.8784   20228332.8434
       195.9004
  -4916046.49249  -3817403.19947  22881789.9334   22881786.9254
      3111.3534
   2268819.59449   1755617.64147  22533879.0734   22533876.0304
     -1793.2524
  -3161242.66449  -2455015.46948  20735886.8864   20735886.0304
      2043.5214
 04  9 14 21 21 44.9990000  0  8G10G 3G 8G28G13G19G23G27
  -2501235.67249  -1932289.92646  23619033.6514   23619033.4214
      3273.9824
  -1941050.80949  -1507076.16447  22844435.5424   22844435.1634
       868.8464
  -5020331.06649  -3896240.71147  21472796.1284   21472794.6244
      3275.0074
   -767629.85949  -1377242.57046  23769938.3864   23769937.6594
      4632.5994
   -824724.01649   -642483.60548  20227798.9874   20227796.4214
       187.9144
  -4962614.96149  -3853690.30547  22872927.9564   22872925.4874
      3104.5654
   2295787.47749   1776631.52747  22539010.8314   22539008.5154
     -1797.8594
  -3191849.89549  -2478865.25848  20730062.3624   20730061.2304
      2040.4824
 04  9 14 21 21 59.9990000  0  8G10G 3G 8G28G13G19G23G27
  -2550225.08649  -1970463.49647  23609711.1204   23609711.2804
      3265.9614
  -1953942.11349  -1517121.33647  22841982.3004   22841982.2334
       859.4204
  -5069409.39849  -3934483.57447  21463456.5194   21463455.2184
      3271.8894
   -837079.49249  -1431359.16446  23756722.9334   23756721.0694
      4629.9764
   -827427.00449   -644589.84448  20227284.5194   20227282.0424
       180.1994
  -5009085.42249  -3889901.03947  22864085.0734   22864082.7374
      3098.0314
   2322820.37949   1797696.08647  22544156.0584   22544152.8434
     -1802.1934
  -3222415.53949  -2502682.64148  20724246.0974   20724244.4214
      2037.7104
 04  9 14 21 22 14.9990000  0  8G10G 3G 8G28G13G19G23G27
  -2599090.68749  -2008540.51947  23600412.8624   23600411.9684
      3257.7074
  -1966688.92249  -1527053.91447  22839556.7924   22839556.4604
       849.7874
  -5118437.78949  -3972687.50847  21454126.3864   21454125.2654
      3268.5594
   -906486.50449  -1485442.51246  23743514.8554   23743513.7304
      4627.1344
   -830010.96549   -646603.32048  20226792.7764   20226790.6014
       172.2644
  -5055454.35949  -3926032.67647  22855260.9804   22855258.6874
      3091.2624
   2349921.16449   1818813.54747  22549312.9014   22549309.6594
     -1806.7194
  -3252936.38749  -2526465.12948  20718438.2924   20718436.3474
      2034.7234
 04  9 14 21 22 29.9990000  0  8G10G 3G 8G28G13G19G23G27
  -2647832.73049  -2046521.39146  23591136.3944   23591136.5034
      3249.4704
  -1979291.69949  -1536874.27047  22837158.1054   22837158.5424
       840.1854
  -5167416.64849  -4010852.84447  21444806.3784   21444804.7454
      3265.2574
   -975851.01249  -1539492.75046  23730315.4564   23730314.7454
      4624.3014
   -832476.39849   -648524.44948  20226323.4874   20226321.4564
       164.3624
  -5101721.96549  -3962085.33247  22846456.8234   22846454.2724
      3084.5074
   2377089.22349   1839983.42247  22554482.5504   22554479.5814
     -1811.2044
  -3283412.88349  -2550213.05148  20712638.7694   20712636.8274
      2031.7664
 04  9 14 21 22 44.9990000  0  8G10G 3G 8G28G13G19G23G27
  -2696454.22749  -2084408.25447  23581885.1514   23581884.1834
      3241.4334
  -1991753.62949  -1546584.85947  22834787.1444   22834786.9014
       830.7954
  -5216349.00849  -4048981.94947  21435494.5894   21435493.3314
      3262.1574
  -1045175.81649  -1593512.03947  23717123.5504   23717122.9604
      4621.6544
   -834826.43749   -650355.66048  20225876.4484   20225873.9444
       156.6694
  -5147890.84849  -3998061.09047  22837671.3084   22837668.7144
      3077.9264
   2404321.35549   1861203.23047  22559664.7764   22559662.0504
     -1815.4764
  -3313848.08649  -2573928.78948  20706846.5584   20706845.2024
      2029.0144
 04  9 14 21 22 59.9990000  0  8G10G 3G 8G28G13G19G23G27
  -2744953.84849  -2122200.19547  23572655.1204   23572655.1054
      3233.3084
  -2004073.67249  -1556184.90247  22832442.5114   22832442.5424
       821.3364
  -5265233.93449  -4087074.09447  21426191.9804   21426190.9834
      3258.9954
  -1114459.98449  -1647499.65647  23703938.0734   23703938.7414
      4618.9454
   -837060.03949   -652096.14148  20225451.3004   20225449.3394
       148.9074
  -5193959.89149  -4033959.02047  22828904.8314   22828902.1904
      3071.2704
   2431618.28149   1882473.52747  22564859.1834   22564856.6714
     -1819.7954
  -3344241.06249  -2597611.62548  20701063.4254   20701061.8944
      2026.1984
 04  9 14 21 23 14.9990000  0  8G10G 3G 8G28G13G19G23G27
  -2793331.03549  -2159896.65247  23563449.9334   23563449.6244
      3225.1464
  -2016251.45749  -1565674.09447  22830125.2764   22830124.9334
       811.8524
  -5314070.95749  -4125128.90247  21416898.8154   21416897.9444
      3255.8024
  -1183702.72349  -1701454.99646  23690761.4804   23690762.3314
      4616.1834
   -839176.86349   -653745.62148  20225048.7844   20225046.3124
       141.1224
  -5239928.27049  -4069778.54747  22820156.9954   22820154.6204
      3064.5594
   2458980.25449   1903794.50047  22570066.0034   22570063.0974
     -1824.1324
  -3374591.44949  -2621261.27348  20695288.0814   20695286.4764
      2023.3594
 04  9 14 21 23 29.9990000  0  8G10G 3G 8G28G13G19G23G27
  -2841585.44149  -2197497.48447  23554267.1364   23554266.9914
      3216.9604
  -2028286.92649  -1575052.39847  22827834.5654   22827834.6674
       802.3654
  -5362860.07049  -4163146.39547  21407614.9644   21407613.4134
      3252.6084
  -1252903.84049  -1755377.91046  23677593.0814   23677593.6714
      4613.4084
   -841176.87549   -655304.08648  20224667.9644   20224665.4874
       133.3344
  -5285795.68749  -4105519.36747  22811428.8704   22811426.5584
      3057.8284
   2486407.16049   1925166.07847  22575285.2924   22575282.1244
     -1828.4604
  -3404899.11349  -2644877.63748  20689520.8004   20689519.2024
      2020.5114
 04  9 14 21 23 44.9990000  0  8G10G 3G 8G28G13G19G23G27
  -2889715.43449  -2235001.38346  23545108.4174   23545107.2534
      3208.6664
  -2040178.64549  -1584318.66447  22825571.7144   22825571.7064
       792.7814
  -5411599.86349  -4201125.43747  21398339.2374   21398338.0934
      3249.3204
  -1322061.69949  -1809267.06646  23664432.6444   23664433.5464
      4610.5244
   -843058.71149   -656770.46148  20224309.9644   20224307.4994
       125.4564
  -5331560.52049  -4141180.26247  22802719.4644   22802717.9214
      3050.9894
   2513900.24649   1946589.22347  22580516.7764   22580514.2224
     -1832.8724
  -3435162.74649  -2668459.68748  20683761.7144   20683759.7924
      2017.5764
 04  9 14 21 23 59.9990000  0  8G10G 3G 8G28G13G19G23G27
  -2937722.25849  -2272409.25446  23535973.0424   23535972.5464
      3200.4554
  -2051928.08649  -1593474.08247  22823335.8784   22823335.3314
       783.2964
  -5460291.55949  -4239067.00847  21389073.6594   21389072.9684
      3246.1134
  -1391177.58649  -1863123.51646  23651280.0734   23651280.1324
      4607.7264
   -844823.79349   -658145.86748  20223973.9874   20223971.7614
       117.6724
  -5377223.75049  -4176761.99247  22794030.6904   22794028.4564
      3044.2154
   2541457.94149   1968062.70347  22585761.1444   22585757.9994
     -1837.1804
  -3465383.66449  -2692008.46148  20678010.3234   20678009.0264
      2014.7284
 04  9 14 21 24 14.9990000  0  8G10G 3G 8G28G13G19G23G27
  -2985602.92649  -2309718.84446  23526861.1674   23526861.2614
      3192.0454
  -2063532.66049  -1602516.60547  22821127.7224   22821127.5344
       773.6384
  -5508932.58249  -4276969.09847  21379817.4954   21379816.8394
      3242.7354
  -1460248.56249  -1916944.99646  23638136.3704   23638136.8514
      4604.7324
   -846469.31249   -659428.10248  20223660.8784   20223658.5734
       109.7014
  -5422782.46949  -4212262.27747  22785360.7304   22785359.0384
      3037.2484
   2569082.66049   1989588.41847  22591018.3314   22591014.9374
     -1841.6484
  -3495559.15649  -2715521.83248  20672268.4954   20672267.0304
      2011.6994
 04  9 14 21 24 29.9990000  0  8G10G 3G 8G28G13G19G23G27
  -3033355.64549  -2346928.76246  23517774.2064   23517773.9604
      3183.5154
  -2074990.69149  -1611444.95347  22818947.1124   22818947.0344
       763.8694
  -5557521.14149  -4314830.29747  21370571.8084   21370570.6674
      3239.2374
  -1529272.78549  -1970730.05146  23625001.2844   23625001.8044
      4601.6154
   -847993.67249   -660615.92648  20223370.8004   20223368.4014
       101.6244
  -5468234.67249  -4247679.57047  22776711.7614   22776709.8154
      3030.1474
   2596775.93849   2011167.55147  22596287.7694   22596285.1324
     -1846.2184
  -3525687.61349  -2738998.55548  20666535.5264   20666533.8944
      2008.5644
 04  9 14 21 24 44.9990000  0  8G10G 3G 8G28G13G19G23G27
  -3080982.66049  -2384040.72747  23508711.4484   23508711.1904
      3175.1344
  -2086304.83249  -1620261.16847  22816794.1284   22816793.9334
       754.2764
  -5606059.81649  -4352652.64147  21361335.1444   21361334.0654
      3235.9124
  -1598252.60549  -2024480.52046  23611874.8704   23611874.9524
      4598.6554
   -849399.56649   -661711.43448  20223103.3704   20223100.9254
        93.7264
  -5513582.75049  -4283015.73047  22768082.4174   22768080.6324
      3023.2054
   2624534.83649   2032797.83247  22601570.3394   22601567.1164
     -1850.5934
  -3555771.72349  -2762440.71548  20660810.5344   20660809.1834
      2005.6074
 04  9 14 21 24 59.9990000  0  8G10G 3G 8G28G13G19G23G27
  -3128485.58249  -2421055.95746  23499671.3624   23499671.1284
      3166.8614
  -2097476.77349  -1628966.57447  22814668.3394   22814667.9804
       744.7964
  -5654550.37949  -4390437.50847  21352107.7224   21352106.2064
      3232.7044
  -1667189.57449  -2078197.62546  23598756.8004   23598757.0344
      4595.7984
   -850688.65249   -662715.93448  20222857.6444   20222855.8514
        85.9394
  -5558828.03549  -4318271.78947  22759472.2614   22759470.1514
      3016.3524
   2652357.71149   2054477.95347  22606865.0734   22606861.5464
     -1854.8584
  -3585813.03949  -2785849.53148  20655093.6054   20655092.1874
      2002.7544
 04  9 14 21 25 14.9990000  0  8G10G 3G 8G28G13G19G23G27
  -3175862.77049  -2457973.20346  23490656.0034   23490655.8584
      3158.4794
  -2108505.00849  -1637560.02047  22812570.1204   22812569.9014
       735.2164
  -5702991.23049  -4428183.60947  21342889.4094   21342888.0734
      3229.3904
  -1736082.04349  -2131880.01646  23585646.2224   23585646.6014
      4592.8314
   -851859.48049   -663628.28548  20222635.0424   20222632.8904
        78.0554
  -5603968.73449  -4353446.35247  22750882.2844   22750879.9094
      3009.3804
   2680245.68849   2076208.80147  22612171.4254   22612168.9374
     -1859.1984
  -3615810.17249  -2809223.91448  20649385.6834   20649384.2064
      1999.8094
 04  9 14 21 25 29.9990000  0  8G10G 3G 8G28G13G19G23G27
  -3223113.86349  -2494792.22346  23481664.6444   23481663.8194
      3150.0734
  -2119389.58649  -1646041.52047  22810498.2924   22810498.0974
       725.6394
  -5751382.44549  -4465891.05947  21333681.0974   21333679.7024
      3226.0814
  -1804929.71949  -2185527.53146  23572546.2064   23572544.8974
      4589.8454
   -852912.05549   -664448.47748  20222435.1204   20222432.3624
        70.1724
  -5649004.50049  -4388539.15247  22742312.4334   22742310.4444
      3002.3844
   2708198.69549   2097990.32847  22617490.8624   22617487.7844
     -1863.5344
  -3645763.00449  -2832563.78148  20643685.9094   20643683.6634
      1996.8554
 04  9 14 21 25 44.9990000  0  8G10G 3G 8G28G13G19G23G27
  -3270237.80949  -2531512.18446  23472697.8234   23472696.1514
      3141.5964
  -2130129.78149  -1654410.50847  22808454.5114   22808454.2264
       716.0134
  -5799723.01249  -4503559.00447  21324481.9404   21324480.7574
      3222.7044
  -1873731.63749  -2239139.39546  23559453.7224   23559453.2964
      4586.7954
   -853845.57449   -665175.91048  20222257.1904   20222255.1014
        62.2354
  -5693934.27749  -4423549.36347  22733762.5344   22733760.5544
      2995.3184
   2736217.27749   2119822.95347  22622822.6284   22622820.0034
     -1867.9054
  -3675670.79349  -2855868.55948  20637994.1514   20637992.6244
      1993.8534
 04  9 14 21 25 59.9990000  0  8G10G 3G 8G28G13G19G23G27
  -3317236.95749  -2568134.87946  23463753.4804   23463753.0194
      3133.2774
  -2140728.01249  -1662668.89147  22806438.4404   22806438.1554
       706.5494
  -5848015.43449  -4541189.45747  21315292.2614   21315291.0894
      3219.4954
  -1942490.02349  -2292717.34446  23546367.9644   23546368.5694
      4583.8924
   -854662.50849   -665812.48848  20222102.2144   20222099.7334
        54.4624
  -5738760.32849  -4458478.73447  22725232.3154   22725230.2184
      2988.4034
   2764298.88749   2141704.67647  22628166.6124   22628163.5504
     -1872.1074
  -3705535.91049  -2879140.07048  20632311.3314   20632309.8354
      1991.0084
 04  9 14 21 26 14.9990000  0  8G10G 3G 8G28G13G19G23G27
  -3364110.77349  -2604659.90246  23454833.6834   23454833.1324
      3124.9214
  -2151183.96149  -1670816.38347  22804448.1904   22804448.1874
       697.0634
  -5896259.51649  -4578782.24247  21306112.1124   21306110.9564
      3216.2724
  -2011204.41049  -2346260.94946  23533292.4644   23533293.7654
      4580.9594
   -855362.50849   -666357.95348  20221968.9174   20221966.3944
        46.6674
  -5783481.91849  -4493326.71547  22716722.0424   22716719.9094
      2981.4394
   2792443.62949   2163635.61347  22633522.0974   22633519.6204
     -1876.3164
  -3735358.10949  -2902378.15648  20626636.5894   20626634.7224
      1988.1474
 04  9 14 21 26 29.9990000  0  8G10G 3G 8G28G13G19G23G27
  -3410858.49249  -2641086.71546  23445937.7224   23445937.2374
      3116.5154
  -2161497.26649  -1678852.72347  22802485.8004   22802485.6554
       687.5544
  -5944454.30549  -4616336.62947  21296940.7764   21296939.2144
      3212.9864
  -2079874.08249  -2399769.74646  23520224.6834   23520226.1674
      4577.9784
   -855945.12949   -666811.96148  20221857.6834   20221855.6474
        38.8414
  -5828098.25049  -4528092.68047  22708231.6904   22708229.4564
      2974.4224
   2820651.82049   2185615.97347  22638889.9094   22638887.2964
     -1880.5464
  -3765136.85949  -2925582.36748  20620969.9334   20620968.1984
      1985.2504
 04  9 14 21 26 44.9990000  0  8G10G 3G 8G28G13G19G23G27
  -3457483.50449  -2677417.87146  23437065.3704   23437064.9994
      3108.3344
  -2171671.62149  -1686780.78947  22800549.4174   22800549.2884
       678.2904
  -5992603.85549  -4653855.74647  21287778.2534   21287776.5854
      3209.9704
  -2148502.51249  -2453246.39146  23507165.6984   23507166.8274
      4575.2294
   -856414.23049   -667177.50448  20221768.6124   20221766.1834
        31.2734
  -5872612.72749  -4562779.26647  22699761.3234   22699758.8004
      2967.6324
   2848919.53149   2207642.71947  22644270.0034   22644266.3864
     -1884.5144
  -3794875.83649  -2948755.59048  20615310.6904   20615308.8234
      1982.5984
 04  9 14 21 26 59.9990000  0  8G10G 3G 8G28G13G19G23G27
  -3503983.93449  -2713651.98846  23428216.4254   23428216.4914
      3100.0294
  -2181705.27749  -1694599.22747  22798640.4484   22798639.6794
       668.9104
  -6040706.30149  -4691338.16447  21278624.6444   21278623.2024
      3206.8304
  -2217087.77749  -2506689.40646  23494115.2534   23494114.5814
      4572.3514
   -856767.85949   -667453.07048  20221701.1674   20221699.2064
        23.5754
  -5917023.24249  -4597384.83647  22691310.1054   22691307.9214
      2960.7014
   2877248.46949   2229717.18047  22649660.5654   22649657.5384
     -1888.5964
  -3824573.31249  -2971896.48848  20609659.2614   20609657.4804
      1979.8324
 04  9 14 21 27 14.9990000  0  8G10G 3G 8G28G13G19G23G27
  -3550358.09049  -2749787.62146  23419391.8314   23419391.8394
      3091.6104
  -2191596.81249  -1702306.92646  22796758.3864   22796757.7654
       659.4364
  -6088760.14149  -4728782.70347  21269480.1284   21269478.9054
      3203.5894
  -2285628.18049  -2560097.49246  23481072.0114   23481071.2804
      4569.3604
   -857004.58649   -667637.55148  20221656.2764   20221654.4604
        15.7824
  -5961328.05549  -4631908.05947  22682879.1904   22682876.9644
      2953.6544
   2905639.75449   2251840.23047  22655062.9174   22655060.0264
     -1892.7524
  -3854227.67249  -2995003.78148  20604016.3864   20604014.4834
      1976.9574
 04  9 14 21 27 29.9990000  0  8G10G 3G 8G28G13G19G23G27
  -3596608.44149  -2785826.87947  23410590.5264   23410590.7924
      3083.3574
  -2201348.94949  -1709905.99247  22794902.2764   22794901.9014
       650.1424
  -6136767.87149  -4766191.30947  21260344.6054   21260343.5264
      3200.5154
  -2354126.08649  -2613472.43446  23468037.2454   23468035.8514
      4566.5274
   -857127.13349   -667733.04748  20221632.8784   20221631.0854
         8.1704
  -6005529.48449  -4666350.71147  22674467.9174   22674465.3554
      2946.7624
   2934090.66449   2274009.71947  22660477.1514   22660474.2614
     -1896.7274
  -3883841.70349  -3018079.64848  20598381.5034   20598379.6834
      1974.2694
 04  9 14 21 27 44.9990000  0  8G10G 3G 8G28G13G19G23G27
  -3642733.28949  -2821768.29346  23401813.6364   23401813.6714
      3074.9904
  -2210960.13749  -1717395.23447  22793073.5654   22793073.4404
       640.7464
  -6184727.93049  -4803562.77347  21251218.2694   21251216.9804
      3197.3374
  -2422579.86349  -2666812.98046  23455011.1594   23455009.2724
      4563.5854
   -857133.88349   -667738.32048  20221631.6364   20221629.6634
         0.4504
  -6049625.73049  -4700711.41047  22666076.7924   22666074.3904
      2939.7504
   2962602.46149   2296226.66447  22665902.8004   22665900.3584
     -1900.7864
  -3913413.78549  -3041122.82848  20592753.5194   20592751.9214
      1971.4724
 04  9 14 21 27 59.9990000  0  8G10G 3G 8G28G13G19G23G27
  -3688733.41849  -2857612.53146  23393059.9094   23393059.8194
      3066.6754
  -2220431.61349  -1724775.60547  22791271.3864   22791270.5734
       631.4324
  -6232641.61349  -4840898.09447  21242100.6984   21242099.2414
      3194.2464
  -2490990.39549  -2720119.85946  23441993.8084   23441990.9404
      4560.7024
   -857026.13349   -667654.37148  20221651.8394   20221650.1754
        -7.1834
  -6093617.77349  -4734990.89847  22657705.3944   22657703.0344
      2932.8034
   2991173.87149   2318490.06347  22671339.8864   22671336.8194
     -1904.7614
  -3942945.11349  -3064134.25048  20587133.7694   20587132.6014
      1968.7554
 04  9 14 21 28 14.9990000  0  8G10G 3G 8G28G13G19G23G27
  -3734606.00849  -2893357.41846  23384330.6204   23384330.5154
      3058.1734
  -2229760.54749  -1732044.89847  22789495.5584   22789495.3514
       621.9294
  -6280505.88749  -4878194.93047  21232992.1834   21232990.5464
      3190.9524
  -2559354.84849  -2773390.83246  23428983.4014   23428980.5154
      4557.6304
   -856801.12549   -667479.04748  20221695.1054   20221692.9014
       -15.0014
  -6137502.55149  -4769186.82047  22649354.0734   22649351.6794
      2925.6524
   3019807.52049   2340801.95747  22676788.6204   22676785.6474
     -1908.9104
  -3972432.81249  -3087111.68048  20581522.5814   20581521.1514
      1965.8474
 04  9 14 21 28 29.9990000  0  8G10G 3G 8G28G13G19G23G27
  -3780353.28149  -2929004.58846  23375625.9874   23375625.3434
      3049.8184
  -2238949.48049  -1739205.13347  22787747.1124   22787747.1324
       612.5964
  -6328323.53149  -4915455.43447  21223893.0424   21223891.1714
      3187.8434
  -2627675.41049  -2826627.59846  23415982.4804   23415979.8154
      4554.7044
   -856461.45349   -667214.39148  20221759.5114   20221757.3944
       -22.6454
  -6181282.20349  -4803300.81247  22641023.2454   22641020.6474
      2918.6434
   3048500.64549   2363160.19147  22682248.4404   22682245.7924
     -1912.8754
  -4001879.45749  -3110057.11348  20575919.4094   20575917.1164
      1963.1104
 04  9 14 21 28 44.9990000  0  8G10G 3G 8G28G13G19G23G27
  -3825973.46149  -2964552.83646  23366944.5194   23366943.9914
      3041.3454
  -2247996.99649  -1746255.15247  22786025.1834   22786025.3004
       603.1684
  -6376092.71149  -4952678.16847  21214802.3784   21214800.9484
      3184.6124
  -2695950.39849  -2879828.85246  23402990.2924   23402987.6404
      4551.6664
   -856005.50049   -666859.10948  20221846.3234   20221843.8474
       -30.3974
  -6224954.87149  -4837331.43747  22632712.3944   22632710.0224
      2911.5114
   3077254.61749   2385565.84047  22687720.3784   22687717.9134
     -1916.9324
  -4031283.50049  -3132969.35948  20570324.0584   20570322.0304
      1960.2704
 04  9 14 21 28 59.9990000  0  8G10G 3G 8G28G13G19G23G27
  -3871466.66449  -3000002.09846  23358286.8704   23358286.3824
      3032.8804
  -2256903.40249  -1753195.21147  22784330.6674   22784330.3274
       593.7604
  -6423813.68749  -4989863.34047  21205721.7224   21205720.3154
      3181.3984
  -2764179.80149  -2932994.61746  23390006.0424   23390003.6754
      4548.6274
   -855433.57449   -666413.46148  20221955.1674   20221953.0154
       -38.1284
  -6268520.49249  -4871278.66047  22624422.2844   22624419.5264
      2904.3754
   3106069.00449   2408018.57047  22693203.6204   22693201.1084
     -1920.9594
  -4060645.02349  -3155848.46948  20564736.5584   20564735.0894
      1957.4354
 04  9 14 21 29 14.9990000  0  8G10G 3G 8G28G13G19G23G27
  -3916830.68449  -3035350.64846  23349654.6284   23349653.9334
      3024.2684
  -2265666.72349  -1760023.78147  22782662.8234   22782663.0384
       584.2214
  -6471484.37549  -5027009.31647  21196650.3944   21196648.8974
      3178.0464
  -2832361.42249  -2986123.10946  23377031.7534   23377030.5934
      4545.4414
   -854743.74649   -665875.94548  20222086.3864   20222084.4994
       -45.9894
  -6311976.76649  -4905140.67247  22616152.6674   22616150.0624
      2897.0854
   3134945.72749   2430519.84847  22698698.5814   22698696.6084
     -1925.1154
  -4089962.11749  -3178692.95348  20559157.4644   20559155.8124
      1954.4734
 04  9 14 21 29 29.9990000  0  8G10G 3G 8G28G13G19G23G27
  -3962065.99249  -3070598.96147  23341046.2374   23341045.6124
      3015.6874
  -2274287.71149  -1766741.44147  22781022.6204   22781022.6164
       574.7334
  -6519105.41849  -5064116.61347  21187587.8084   21187586.9764
      3174.7364
  -2900495.88749  -3039214.87947  23364066.9174   23364065.4094
      4542.2984
   -853936.69149   -665247.09048  20222239.8944   20222238.0464
       -53.8044
  -6355324.10549  -4938917.80947  22607904.0504   22607901.5584
      2889.8234
   3163883.90249   2453069.03147  22704205.5344   22704203.1634
     -1929.2124
  -4119235.46949  -3201503.35548  20553586.9564   20553585.7574
      1951.5574
 04  9 14 21 29 44.9990000  0  8G10G 3G 8G28G13G19G23G27
  -4007169.98849  -3105744.94546  23332464.1754   23332462.9724
      3006.9334
  -2282764.08249  -1773346.39847  22779409.4724   22779409.5264
       565.0914
  -6566674.59449  -5101183.49647  21178536.1594   21178535.0344
      3171.2784
  -2968580.53149  -3092267.80546  23351110.2304   23351109.5854
      4538.9764
   -853010.05549   -664525.05148  20222416.6284   20222414.0504
       -61.7764
  -6398559.95749  -4972608.06247  22599676.4874   22599673.7844
      2882.3904
   3192885.51649   2475667.64847  22709724.4254   22709721.8824
     -1933.4414
  -4148462.73449  -3224277.85248  20548025.5504   20548023.9684
      1948.4844
 04  9 14 21 29 59.9990000  0  8G10G 3G 8G28G13G19G23G27
  -4052142.92649  -3140788.80546  23323904.8004   23323904.5344
      2998.1964
  -2291096.12949  -1779838.93046  22777823.8004   22777823.9134
       555.4704
  -6614192.12149  -5138210.13347  21169494.0264   21169492.6874
      3167.8354
  -3036615.67249  -3145282.16446  23338163.7694   23338163.1124
      4535.6764
   -851964.29349   -663710.18448  20222615.4334   20222613.1474
       -69.7174
  -6441684.38749  -5006211.50047  22591470.4094   22591467.1014
      2874.9624
   3221950.03149   2498315.26647  22715255.2694   22715252.4834
     -1937.6344
  -4177644.30149  -3247016.73448  20542472.3314   20542470.7304
      1945.4384
 04  9 14 21 30 14.9990000  0  8G10G 3G 8G28G13G19G23G27
  -4096986.32049  -3175731.67246  23315371.9484   23315371.7414
      2989.5604
  -2299285.79349  -1786220.48047  22776265.3084   22776265.6754
       545.9784
  -6661659.97749  -5175198.07047  21160461.1514   21160459.7184
      3164.5244
  -3104602.71149  -3198259.02747  23325226.4644   23325225.2534
      4532.4694
   -850801.09449   -662803.81248  20222836.9874   20222834.4404
       -77.5474
  -6484698.80549  -5039729.20347  22583284.6514   22583282.1244
      2867.6284
   3251075.58649   2521010.46147  22720797.8474   22720794.8704
     -1941.7044
  -4206781.77049  -3269721.27048  20536927.3864   20536926.1084
      1942.4984
 04  9 14 21 30 29.9990000  0  8G10G 3G 8G28G13G19G23G27
  -4141700.83249  -3210574.16846  23306863.6514   23306862.5194
      2980.9674
  -2307334.07049  -1792491.88747  22774734.7844   22774733.9834
       536.5524
  -6709078.66049  -5212147.68747  21151437.5194   21151436.2304
      3161.2464
  -3172542.36349  -3251198.96146  23312297.4954   23312297.0304
      4529.3104
   -849521.46549   -661806.71148  20223080.2764   20223078.4214
       -85.3094
  -6527603.87149  -5073161.70747  22575120.5264   22575117.9334
      2860.3384
   3280261.07849   2543752.35547  22726351.1594   22726349.2374
     -1945.6994
  -4235876.12149  -3292392.18048  20531391.3394   20531389.6404
      1939.6234
 04  9 14 21 30 44.9990000  0  8G10G 3G 8G28G13G19G23G27
  -4186284.35549  -3245314.54747  23298380.0194   23298378.8194
      2972.2354
  -2315238.95749  -1798651.54347  22773229.4404   22773229.2804
       526.9924
  -6756446.51649  -5249057.68747  21142423.8554   21142422.9444
      3157.8574
  -3240432.42249  -3304100.28547  23299378.8554   23299377.4644
      4526.0044
   -848123.46949   -660717.37548  20223346.3394   20223344.1244
       -93.2004
  -6570397.22349  -5106507.15247  22566977.0264   22566974.4294
      2852.8904
   3309508.28549   2566542.33647  22731917.2374   22731914.1054
     -1949.8144
  -4264925.33649  -3315027.93448  20525863.3154   20525861.9874
      1936.6144
 04  9 14 21 30 59.9990000  0  8G10G 3G 8G28G13G19G23G27
  -4230735.91849  -3279952.14546  23289921.0424   23289920.7224
      2963.4384
  -2322999.75849  -1804698.89847  22771752.8084   22771752.1364
       517.3874
  -6803762.55549  -5285927.33647  21133419.7614   21133418.6404
      3154.4034
  -3308271.98449  -3356962.24246  23286469.3554   23286467.2064
      4522.6384
   -846606.29749   -659535.18048  20223635.0894   20223632.9374
      -101.1454
  -6613077.93049  -5139764.84047  22558854.8234   22558852.7334
      2845.3804
   3338817.84049   2589380.90247  22737494.3004   22737492.0894
     -1953.9704
  -4293928.64549  -3337627.92248  20520344.1204   20520342.5734
      1933.5544
 04  9 14 21 31 14.9990000  0  8G10G 3G 8G28G13G19G23G27
  -4275057.61749  -3314488.44546  23281486.6984   23281486.2614
      2954.7804
  -2330618.77749  -1810635.80947  22770303.0584   22770302.9054
       507.9354
  -6851028.89149  -5322758.23847  21124425.1364   21124424.2964
      3151.0894
  -3376063.24649  -3409786.55146  23273568.9254   23273566.4334
      4519.4174
   -844972.44549   -658262.05948  20223946.0114   20223943.9134
      -108.9234
  -6655648.04749  -5172936.33647  22550754.0424   22550751.6714
      2838.0084
   3368187.12549   2612266.02347  22743082.9724   22743080.8084
     -1957.9524
  -4322888.33249  -3360193.90648  20514833.0734   20514831.8944
      1930.6464
 04  9 14 21 31 29.9990000  0  8G10G 3G 8G28G13G19G23G27
  -4319246.79349  -3348921.56646  23273077.1984   23273076.9134
      2945.9454
  -2338093.61749  -1816460.34847  22768881.0264   22768880.8824
       498.3234
  -6898242.98449  -5359548.43047  21115440.3474   21115439.7224
      3147.6064
  -3443803.31249  -3462570.95846  23260678.7694   23260675.5974
      4516.0044
   -843219.22749   -656895.92248  20224279.7064   20224277.6084
      -116.8814
  -6698104.62149  -5206019.37947  22542674.8624   22542672.3514
      2830.4384
   3397618.63349   2635199.60247  22748683.5894   22748681.5584
     -1962.1014
  -4351801.76249  -3382723.85248  20509331.1124   20509329.5264
      1927.5624
 04  9 14 21 31 44.9990000  0  8G10G 3G 8G28G13G19G23G27
  -4363304.17649  -3383252.00846  23264693.2614   23264693.3044
      2937.1594
  -2345425.41049  -1822173.41847  22767485.0504   22767485.3354
       488.7864
  -6945405.87149  -5396298.73047  21106465.8004   21106464.9684
      3144.1924
  -3511493.05149  -3515316.21946  23247798.0194   23247794.7064
      4512.6494
   -841347.81249   -655437.68448  20224636.0194   20224633.6874
      -124.7614
  -6740448.53149  -5239014.60547  22534616.7764   22534614.5934
      2822.9274
   3427111.07849   2658180.68447  22754295.9804   22754293.5584
     -1966.1634
  -4380670.12149  -3405218.67648  20503837.4954   20503835.9054
      1924.5574
 04  9 14 21 31 59.9990000  0  8G10G 3G 8G28G13G19G23G27
  -4407228.55349  -3417478.85246  23256334.9254   23256334.9054
      2928.2924
  -2352613.13749  -1827774.26647  22766117.3554   22766117.2614
       479.1824
  -6992516.56249  -5433008.35947  21097501.2374   21097499.9094
      3140.7134
  -3579131.20349  -3568021.23446  23234925.9564   23234923.8664
      4509.2104
   -839357.18449   -653886.56248  20225014.5654   20225012.1204
      -132.7094
  -6782678.46149  -5271921.02747  22526580.9014   22526578.9524
      2815.3294
   3456665.30549   2681209.89147  22759919.7304   22759917.5304
     -1970.2824
  -4409492.21549  -3427677.45348  20498352.9014   20498351.5894
      1921.4734
 04  9 14 21 32 14.9990000  0  8G10G 3G 8G28G13G19G23G27
  -4451020.30949  -3451602.24246  23248002.1444   23248001.0694
      2919.4504
  -2359657.44549  -1833263.33247  22764777.4014   22764777.1124
       469.6214
  -7039575.65649  -5469677.77347  21088545.7304   21088544.7534
      3137.2734
  -3646718.37949  -3620686.52346  23222065.0734   23222062.9994
      4505.8124
   -837248.12549   -652243.15248  20225415.5814   20225413.6054
      -140.6044
  -6824794.70749  -5304738.86347  22518566.8234   22518564.1594
      2807.7504
   3486280.49649   2704286.61347  22765555.4404   22765553.3744
     -1974.3464
  -4438268.70349  -3450100.69148  20492876.8084   20492875.2804
      1918.4334
 04  9 14 21 32 29.9990000  0  8G10G 3G 8G28G13G19G23G27
  -4494681.70749  -3485624.06646  23239692.7064   23239692.8624
      2910.7604
  -2366560.81249  -1838642.57847  22763463.6204   22763463.1794
       460.2244
  -7086585.52349  -5506308.82847  21079600.3084   21079599.3234
      3133.9914
  -3714256.64849  -3673313.69947  23209213.4404   23209211.2884
      4502.5514
   -835022.85249   -650509.19148  20225839.3554   20225837.4684
      -148.3524
  -6866799.24649  -5337469.65247  22510573.4724   22510571.0814
      2800.3034
   3515954.02049   2727408.78947  22771202.7844   22771200.8824
     -1978.2354
  -4467001.92649  -3472490.21548  20487409.3554   20487407.6474
      1915.5484
 04  9 14 21 32 44.9990000  0  8G10G 3G 8G28G13G19G23G27
  -4538212.01249  -3519543.81246  23231410.0734   23231409.5074
      2902.0204
  -2373322.73449  -1843911.62947  22762176.9874   22762176.3824
       450.7954
  -7133545.39849  -5542900.93447  21070663.9644   21070662.8434
      3130.6584
  -3781745.32849  -3725902.23447  23196369.9874   23196368.9054
      4499.2454
   -832680.80149   -648684.21948  20226284.9334   20226282.9874
      -156.1374
  -6908691.36349  -5370112.84847  22502601.8234   22502599.2534
      2792.8084
   3545686.31349   2750576.75447  22776860.5654   22776858.1674
     -1982.1534
  -4495691.28549  -3494845.56648  20481949.6834   20481948.3704
      1912.6244
 04  9 14 21 32 59.9990000  0  8G10G 3G 8G28G13G19G23G27
  -4581612.80948  -3553362.59446  23223150.1984   23223150.5304
      2893.3864
  -2379945.09049  -1849071.89547  22760916.4564   22760916.5504
       441.4904
  -7180457.18449  -5579455.57047  21061736.9094   21061735.7924
      3127.4524
  -3849185.98849  -3778453.36747  23183535.9334   23183535.4484
      4496.0444
   -830223.98049   -646769.83648  20226752.6754   20226750.6284
      -163.7884
  -6950472.59049  -5402669.62547  22494650.8394   22494648.5034
      2785.4154
   3575475.36349   2773788.93847  22782528.9014   22782527.3704
     -1985.9374
  -4524338.66049  -3517168.19148  20476498.1284   20476496.9404
      1909.8254
 04  9 14 21 33 14.9990000  0  8G10G 3G 8G28G13G19G23G27
  -4624882.75449  -3587079.36346  23214916.3004   23214916.5464
      2884.6634
  -2386426.74249  -1854122.52747  22759683.5034   22759683.4134
       432.1104
  -7227319.51249  -5615971.65647  21052819.5194   21052818.1794
      3124.1554
  -3916577.16449  -3830965.93447  23170712.0114   23170710.6634
      4492.7454
   -827651.13749   -644765.03148  20227242.0894   20227240.3274
      -171.5234
  -6992141.40649  -5435138.81647  22486721.6834   22486718.9954
      2777.9214
   3605322.32849   2797046.27747  22788209.5264   22788206.7574
     -1989.7984
  -4552942.73449  -3539457.08648  20471055.4174   20471053.5224
      1906.9384
 04  9 14 21 33 29.9990000  0  8G10G 3G 8G28G13G19G23G27
  -4668022.13749  -3620694.58246  23206707.3234   23206706.9014
      2875.9594
  -2392768.38349  -1859064.07447  22758475.8784   22758476.1554
       422.7764
  -7274133.03949  -5652449.71147  21043910.9724   21043910.1674
      3120.9024
  -3983919.31249  -3883440.30947  23157897.0894   23157896.0034
      4489.4774
   -824962.96149   -642670.37148  20227753.7144   20227751.6944
      -179.2124
  -7033698.30949  -5467520.79347  22478813.8704   22478810.6324
      2770.4604
   3635226.19949   2820347.93447  22793899.4644   22793897.0734
     -1993.5914
  -4581504.07849  -3561712.68048  20465620.2064   20465618.6944
      1904.0904
 04  9 14 21 33 44.9990000  0  8G10G 3G 8G28G13G19G23G27
  -4711031.05148  -3654208.00046  23198523.6834   23198522.1634
      2867.2614
  -2398970.08649  -1863896.58247  22757296.0344   22757296.1204
       413.4474
  -7320897.85549  -5688889.82047  21035012.0344   21035011.3944
      3117.6544
  -4051212.35549  -3935876.40647  23145091.4564   23145090.6754
      4486.2034
   -822159.64849   -640485.99248  20228287.1754   20228285.3434
      -186.8874
  -7075143.00049  -5499815.34447  22470926.8554   22470924.3554
      2762.9794
   3665186.70749   2843693.73847  22799600.8004   22799598.2064
     -1997.3674
  -4610022.87949  -3583935.12548  20460193.2304   20460191.8004
      1901.2534
 04  9 14 21 33 59.9990000  0  8G10G 3G 8G28G13G19G23G27
  -4753905.87148  -3687616.94546  23190364.2374   23190363.6164
      2858.3214
  -2405028.57849  -1868617.48447  22756143.3624   22756143.6404
       403.8994
  -7367610.64849  -5725289.38747  21026122.6594   21026121.8044
      3114.1864
  -4118452.68049  -3988271.44146  23132295.6364   23132295.5224
      4482.6884
   -819237.85949   -638209.28548  20228842.9644   20228840.8864
      -194.7864
  -7116471.76249  -5532019.55147  22463062.2614   22463059.3354
      2755.2514
   3695207.08649   2867086.19147  22805313.8474   22805311.1984
     -2001.3594
  -4638495.71149  -3606121.74648  20454775.0894   20454773.7414
      1898.1894
 04  9 14 21 34 14.9990000  0  8G10G 3G 8G28G13G19G23G27
  -4796648.67649  -3720923.00846  23182230.4484   23182229.6874
      2849.5204
  -2410946.33649  -1873228.71147  22755017.1754   22755017.5544
       394.5174
  -7414273.50449  -5761650.05147  21017243.0584   21017241.9404
      3110.8574
  -4185642.35249  -4040626.99247  23119509.9564   23119509.9724
      4479.3114
   -816199.82049   -635842.00048  20229421.2694   20229419.0894
      -202.5364
  -7157686.73449  -5564135.09047  22455219.6204   22455216.3194
      2747.6654
   3725284.91849   2890523.41047  22811037.2454   22811034.9484
     -2005.1894
  -4666924.66449  -3628274.18748  20449365.2614   20449363.5624
      1895.2644
 04  9 14 21 34 29.9990000  0  8G10G 3G 8G28G13G19G23G27
  -4839257.80958  -3754124.95356  23174121.7844   23174121.4254
      2840.7194
  -2416721.99649  -1877729.23847  22753918.2694   22753918.7334
       385.0444
  -7460885.07049  -5797970.75447  21008373.1204   21008371.4564
      3107.4384
  -4252779.82449  -4092941.88347  23106734.9874   23106734.0154
      4475.8324
   -813044.32049   -633383.17248  20230022.0584   20230019.7224
      -210.3674
  -7198786.23449  -5596160.66047  22447398.3624   22447395.5814
      2739.9674
   3755421.44149   2914006.37547  22816772.1204   22816769.6754
     -2009.1024
  -4695308.44549  -3650391.41448  20443963.7304   20443962.3234
      1892.2524
 04  9 14 21 34 44.9990000  0  8G10G 3G 8G28G13G19G23G27
  -4881734.71948  -3787223.88346  23166038.8704   23166038.5774
      2831.7944
  -2422357.45349  -1882120.50447  22752845.2694   22752845.9254
       375.6974
  -7507446.97349  -5834252.75847  20999512.8474   20999511.1754
      3104.1274
  -4319866.75049  -4145217.39147  23093968.2374   23093968.8904
      4472.4624
   -809773.14549   -630834.21948  20230644.2304   20230642.1204
      -218.0784
  -7239771.73049  -5628097.39547  22439598.8154   22439595.9874
      2732.3664
   3785614.51649   2937533.38747  22822518.4954   22822515.0854
     -2012.8724
  -4723648.91849  -3672474.90648  20438571.1984   20438569.1084
      1889.3654
 04  9 14 21 34 59.9990000  0  8G10G 3G 8G28G13G19G23G27
  -4924081.27748  -3820221.19146  23157981.0814   23157979.7264
      2823.1044
  -2427854.32449  -1886403.78947  22751799.5654   22751800.0464
       366.4584
  -7553960.66449  -5870497.18447  20990661.3784   20990660.1944
      3100.9134
  -4386904.55949  -4197454.59847  23081211.4724   23081211.7724
      4469.1874
   -806387.71949   -628196.24248  20231288.4564   20231286.3584
      -225.6954
  -7280644.47749  -5659946.25847  22431821.1444   22431818.5424
      2724.8504
   3815862.50449   2961103.21147  22828273.4484   22828270.8234
     -2016.5334
  -4751947.47349  -3694525.72748  20433185.9874   20433184.4914
      1886.5704
 04  9 14 21 35 14.9990000  0  8G10G 3G 8G28G13G19G23G27
  -4966294.83248  -3853114.95346  23149948.4334   23149946.0734
      2814.2374
  -2433210.78149  -1890577.64147  22750780.5584   22750780.2724
       357.0974
  -7600424.35949  -5906702.65247  20981819.6674   20981818.7414
      3097.5804
  -4453891.06249  -4249651.87547  23068464.5264   23068465.0814
      4465.7674
   -802886.43749   -625467.99248  20231954.9564   20231952.8194
      -233.4194
  -7321402.27749  -5691705.55947  22424065.1904   22424062.2964
      2717.1874
   3846166.99649   2984717.05547  22834040.6514   22834037.9524
     -2020.2994
  -4780202.26249  -3716542.44548  20427809.2374   20427807.3234
      1883.6534
 04  9 14 21 35 29.9990000  0  8G10G 3G 8G28G13G19G23G27
  -5008374.73448  -3885904.42246  23141940.1674   23141938.3154
      2805.3274
  -2438425.84849  -1894641.35246  22749788.2764   22749787.8314
       347.6714
  -7646836.96549  -5942868.30547  20972988.1834   20972986.3514
      3094.1744
  -4520824.96949  -4301808.11347  23055727.5194   23055728.1324
      4462.2604
   -799268.28149   -622648.66048  20232643.3944   20232641.3004
      -241.2104
  -7362043.94549  -5723374.37947  22416331.2694   22416328.7694
      2709.4454
   3876528.89849   3008375.63347  22839818.2224   22839815.8664
     -2024.1274
  -4808412.12549  -3738524.15648  20422441.1514   20422439.1754
      1880.6584
 04  9 14 21 35 44.9990000  0  8G10G 3G 8G28G13G19G23G27
  -5050322.83649  -3918591.25446  23133957.8314   23133955.8354
      2796.5404
  -2443502.05149  -1898596.83246  22748821.8084   22748821.5154
       338.4144
  -7693200.97349  -5978996.08647  20964165.2374   20964163.7064
      3090.9344
  -4587708.54349  -4353925.18047  23043000.0654   23043000.2534
      4458.9054
   -795535.56249   -619740.06248  20233353.4954   20233352.0114
      -248.8484
  -7402571.59449  -5754954.34447  22408619.3004   22408616.8664
      2701.8434
   3906945.50049   3032076.83647  22845606.1904   22845603.8864
     -2027.7734
  -4836579.60549  -3760472.85248  20417081.3234   20417079.0814
      1877.8324
 04  9 14 21 35 59.9990000  0  8G10G 3G 8G28G13G19G23G27
  -5092137.07849  -3951173.73846  23126000.7454   23125998.5464
      2787.6164
  -2448437.40249  -1902442.56247  22747882.8864   22747882.3704
       329.0234
  -7739514.20749  -6015084.31647  20955352.2224   20955350.5344
      3087.5494
  -4654539.53949  -4406001.23847  23030282.1904   23030282.9604
      4455.4004
   -791686.36349   -616740.69548  20234085.9254   20234084.2104
      -256.6134
  -7442982.93749  -5786443.67647  22400929.3624   22400926.5264
      2694.0904
   3937418.84849   3055822.26247  22851405.3944   22851402.7494
     -2031.5574
  -4864702.47749  -3782386.77348  20411729.4484   20411727.4874
      1874.8584
 04  9 14 21 36 14.9980000  0  8G10G 3G 8G28G13G19G23G27
  -5133816.28549  -3983651.00846  23118070.0924   23118067.8034
      2778.6144
  -2453233.55149  -1906179.84047  22746970.4434   22746970.0454
       319.7434
  -7785775.17649  -6051131.81647  20946548.9674   20946547.1784
      3084.0654
  -4721315.28549  -4458034.23847  23017574.6784   23017576.1584
      4451.7164
   -787723.01249   -613652.38748  20234840.3264   20234837.9554
      -264.2234
  -7483276.87949  -5817841.53947  22393261.6004   22393259.0614
      2686.2634
   3967944.76249   3079608.64847  22857214.1624   22857211.7794
     -2035.0614
  -4892780.71549  -3804265.92248  20406386.4674   20406384.9164
      1871.8834
 04  9 14 21 36 29.9980000  0  8G10G 3G 8G28G13G19G23G27
  -5175366.85549  -4016028.11346  23110163.1314   23110161.3934
      2770.0384
  -2457892.05549  -1909809.85247  22746083.3114   22746083.8074
       310.5674
  -7831990.98449  -6087144.12947  20937754.2874   20937752.7564
      3081.0544
  -4788045.20349  -4510031.58647  23004876.8654   23004877.6784
      4448.6614
   -783645.66849   -610475.24248  20235616.4284   20235614.3264
      -271.8234
  -7523459.30949  -5849152.50847  22385615.3264   22385612.4474
      2678.8294
   3998526.43449   3103438.46947  22863034.1864   22863031.4124
     -2038.7784
  -4920819.00849  -3826113.93748  20401050.6234   20401049.3614
      1869.2204
 04  9 14 21 36 44.9980000  0  8G10G 3G 8G28G13G19G23G27
  -5216784.91448  -4048301.95346  23102281.1544   23102281.1274
      2761.2044
  -2462411.88749  -1913331.80147  22745223.7564   22745223.4244
       301.3224
  -7878157.95349  -6123118.38747  20928968.9754   20928967.5764
      3077.7984
  -4854723.91449  -4561988.94947  22992188.0684   22992188.5574
      4445.2474
   -779453.80949   -607208.87948  20236414.2174   20236411.9674
      -279.4574
  -7563526.44149  -5880373.62147  22377990.4284   22377987.8304
      2671.1424
   4029162.14549   3127310.38747  22868863.9204   22868861.7794
     -2042.3814
  -4948814.56649  -3847928.66848  20395723.4754   20395722.0534
      1866.3714
 04  9 14 21 36 59.9980000  0  8G10G 3G 8G28G13G19G23G27
  -5258069.88149  -4080471.96546  23094425.2014   23094424.5924
      2752.3314
  -2466792.85549  -1916745.54747  22744389.8344   22744390.1974
       292.0654
  -7924275.39849  -6159054.05147  20920193.1004   20920191.5294
      3074.4964
  -4921350.78949  -4613905.99647  22979509.5454   22979509.2834
      4441.7924
   -775147.24649   -603853.13348  20237233.5374   20237231.3384
      -287.1044
  -7603477.70349  -5911504.46547  22370387.6784   22370385.4474
      2663.4174
   4059852.18849   3151224.65247  22874703.9434   22874701.0294
     -2046.0034
  -4976766.96949  -3869709.76648  20390404.2644   20390402.9324
      1863.4934
 04  9 14 21 37 14.9980000  0  8G10G 3G 8G28G13G19G23G27
  -5299223.27049  -4112539.57446  23086593.3894   23086593.4434
      2743.5594
  -2471036.59049  -1920052.37547  22743582.1074   22743582.5764
       282.9164
  -7970344.75849  -6194952.25047  20911426.1394   20911425.2214
      3071.2914
  -4987927.26249  -4665783.71947  22966840.2404   22966839.8654
      4438.4324
   -770727.50449   -600409.18748  20238074.8974   20238072.6624
      -294.6494
  -7643314.43749  -5942546.06647  22362807.2644   22362804.8224
      2655.7824
   4090594.81649   3175179.91847  22880554.1314   22880551.9364
     -2049.5094
  -5004677.78149  -3891458.45748  20385092.9824   20385091.1114
      1860.7214
 04  9 14 21 37 29.9980000  0  8G10G 3G 8G28G13G19G23G27
  -5340245.30948  -4144504.75446  23078787.4364   23078787.3544
      2734.8034
  -2475143.38349  -1923252.49247  22742801.3734   22742801.1394
       273.7864
  -8016366.59849  -6230813.41447  20902668.2484   20902667.1744
      3068.1234
  -5054453.54749  -4717622.34047  22954180.9044   22954179.7914
      4435.0864
   -766195.15249   -596877.50448  20238936.8894   20238935.0104
      -302.1574
  -7683036.65649  -5973498.43047  22355248.2794   22355246.1544
      2648.1484
   4121389.47349   3199175.68047  22886413.7014   22886411.6544
     -2052.9774
  -5032547.47749  -3913175.10548  20379789.2324   20379787.7524
      1857.9804
 04  9 14 21 37 44.9980000  0  8G10G 3G 8G28G13G19G23G27
  -5381135.46948  -4176367.19946  23071005.7404   23071006.1434
      2726.0114
  -2479113.26249  -1926345.91047  22742045.5844   22742045.7134
       264.6594
  -8062340.66049  -6266637.34847  20893920.1074   20893918.8074
      3064.9384
  -5120929.22749  -4769421.55947  22941530.6624   22941529.7294
      4431.7124
   -761550.03549   -593257.94148  20239820.8734   20239818.8114
      -309.6744
  -7722644.05149  -6004361.32047  22347711.3734   22347708.9474
      2640.4934
   4152236.20749   3223212.02747  22892284.1624   22892282.1314
     -2056.4494
  -5060375.64849  -3934859.39148  20374494.1784   20374492.5494
      1855.2114
 04  9 14 21 37 59.9980000  0  8G10G 3G 8G28G13G19G23G27
  -5421893.11348  -4208126.48046  23063250.2874   23063249.1974
      2717.1764
  -2482945.75849  -1929332.27747  22741315.9594   22741316.3464
       255.5004
  -8108266.30949  -6302423.56647  20885180.7874   20885179.4044
      3061.7104
  -5187353.64849  -4821180.83247  22928891.5064   22928889.6074
      4428.2954
   -756791.60549   -589550.08648  20240726.3504   20240724.5294
      -317.2294
  -7762135.81249  -6035134.10247  22340195.9674   22340193.7874
      2632.7844
   4183135.14549   3247289.08647  22898163.7174   22898161.5574
     -2059.9294
  -5088161.88749  -3956511.00448  20369206.3184   20369204.9044
      1852.4164
 04  9 14 21 38 14.9980000  0  8G10G 3G 8G28G13G19G23G27
  -5462517.63349  -4239781.97346  23055520.3184   23055519.2214
      2708.3014
  -2486640.60549  -1932211.40647  22740613.4824   22740613.5844
       246.3234
  -8154143.08649  -6338171.70347  20876450.7874   20876449.0064
      3058.4524
  -5253726.11749  -4872899.61747  22916260.9284   22916259.6074
      4424.8314
   -751919.33649   -585753.52748  20241653.6784   20241651.5224
      -324.8184
  -7801511.24249  -6065816.23847  22332703.2324   22332700.8034
      2625.0294
   4214086.66849   3271407.09847  22904053.8424   22904051.6434
     -2063.4354
  -5115905.60549  -3978129.48448  20363926.8734   20363925.4364
      1849.5814
 04  9 14 21 38 29.9980000  0  8G10G 3G 8G28G13G19G23G27
  -5503008.14149  -4271332.97746  23047815.3574   23047814.4044
      2699.3674
  -2490196.97349  -1934982.60947  22739936.3424   22739936.6664
       237.0914
  -8199969.98449  -6373880.97347  20867730.3264   20867728.9434
      3055.1274
  -5320045.57449  -4924577.08247  22903640.6704   22903639.7054
      4421.2974
   -746932.67249   -581867.82848  20242602.8034   20242600.8424
      -332.4444
  -7840769.17249  -6096406.80147  22325232.5844   22325230.3654
      2617.1954
   4245091.50049   3295566.64547  22909953.7954   22909952.0224
     -2066.9894
  -5143605.96549  -3999714.18448  20358655.9904   20358653.9324
      1846.6914
 04  9 14 21 38 44.9980000  0  8G10G 3G 8G28G13G19G23G27
  -5543363.21949  -4302778.52046  23040136.0534   23040134.8734
      2690.3394
  -2493613.75049  -1937645.03147  22739285.8894   22739285.9004
       227.7854
  -8245745.86349  -6409550.48447  20859019.2484   20859018.2324
      3051.7254
  -5386310.75049  -4976212.25047  22891030.9904   22891029.9244
      4417.6784
   -741830.39549   -577892.04748  20243573.3424   20243571.4714
      -340.1524
  -7879908.15649  -6126904.69947  22317784.9434   22317782.3934
      2609.2664
   4276150.43849   3319768.35547  22915864.5454   22915862.4284
     -2070.5964
  -5171261.75049  -4021264.16048  20353392.8814   20353391.0454
      1843.7194
 04  9 14 21 38 59.9980000  0  8G10G 3G 8G28G13G19G23G27
  -5583583.19949  -4334118.72746  23032481.8974   23032481.1864
      2681.3324
  -2496891.59449  -1940199.21147  22738662.5454   22738662.6234
       218.5234
  -8291471.24649  -6445180.65647  20850317.8114   20850316.8654
      3048.3594
  -5452521.80949  -5027805.25847  22878431.1394   22878430.5024
      4414.0714
   -736613.12149   -573826.64848  20244566.4754   20244564.5574
      -347.8184
  -7918928.42249  -6157310.08247  22310359.3654   22310357.2484
      2601.3514
   4307262.99249   3344011.83247  22921784.6474   22921782.6624
     -2074.1704
  -5198873.41049  -4042779.73448  20348138.7404   20348137.4434
      1840.7774
 04  9 14 21 39 14.9980000  0  8G10G 3G 8G28G13G19G23G27
  -5623668.27349  -4365353.87946  23024853.9904   23024853.0614
      2672.3384
  -2500030.85549  -1942645.39147  22738065.3184   22738065.4474
       209.2844
  -8337146.31249  -6480771.60947  20841626.1704   20841625.3694
      3045.0044
  -5518678.93049  -5079356.21947  22865842.6234   22865840.8114
      4410.4754
   -731281.27749   -569671.97748  20245580.9364   20245579.1864
      -355.4564
  -7957830.11349  -6187623.07847  22302956.7954   22302954.0184
      2593.4464
   4338428.53549   3368296.60947  22927715.5924   22927713.6274
     -2077.7034
  -5226441.29349  -4064261.20748  20342892.6934   20342891.6704
      1837.8594
 04  9 14 21 39 29.9980000  0  8G10G 3G 8G28G13G19G23G27
  -5663618.85249  -4396484.19146  23017251.4594   23017251.0414
      2663.3724
  -2503032.49249  -1944984.34047  22737494.1074   22737494.4124
       200.1094
  -8382771.79749  -6516323.93447  20832944.0454   20832943.0764
      3041.6994
  -5584782.62149  -5130865.57047  22853262.8814   22853261.5334
      4406.9134
   -725835.50849   -565428.54748  20246617.3814   20246615.5064
      -363.0514
  -7996613.66449  -6217844.01247  22295576.3504   22295573.7444
      2585.5704
   4369646.26249   3392622.04747  22933655.6784   22933653.8894
     -2081.1824
  -5253966.00449  -4085709.03148  20337654.9514   20337653.7524
      1834.9814
 04  9 14 21 39 44.9980000  0  8G10G 3G 8G28G13G19G23G27
  -5703435.09049  -4427509.82046  23009675.1004   23009673.6474
      2654.4164
  -2505896.55149  -1947216.08247  22736948.8894   22736948.9244
       190.9374
  -8428347.75449  -6551837.66847  20824271.3034   20824270.0374
      3038.3974
  -5650832.83649  -5182333.21547  22840694.1934   22840692.8224
      4403.3484
   -720276.25049   -561096.66048  20247675.3814   20247673.1744
      -370.6174
  -8035278.84449  -6247972.69547  22288219.1394   22288216.1934
      2577.6794
   4400915.77049   3416987.82847  22939606.0924   22939604.2134
     -2084.6344
  -5281447.55149  -4107123.23048  20332425.4904   20332423.9164
      1832.1034
 04  9 14 21 39 59.9980000  0  8G10G 3G 8G28G13G19G23G27
  -5743116.56249  -4458430.43747  23002124.0534   23002122.7994
      2645.4324
  -2508623.12549  -1949340.69547  22736430.2794   22736430.0534
       181.7724
  -8473873.74249  -6587312.44547  20815607.8734   20815606.7644
      3035.0664
  -5716829.35249  -5233759.04747  22828135.4364   22828133.9514
      4399.7684
   -714603.16049   -556676.09448  20248755.0294   20248752.9474
      -378.2064
  -8073825.43449  -6278008.98847  22280883.8344   22280881.1504
      2569.7734
   4432237.04349   3441393.93847  22945566.6154   22945564.2954
     -2088.0854
  -5308885.90249  -4128503.77048  20327203.9984   20327202.7294
      1829.2234
 04  9 14 21 40 14.9980000  0  8G10G 3G 8G28G13G19G23G27
  -5782664.30949  -4489246.88347  22994598.2794   22994596.9124
      2636.5164
  -2511213.49249  -1951359.18447  22735936.8574   22735937.2834
       172.6914
  -8519351.25049  -6622749.45348  20806954.0224   20806953.0644
      3031.8344
  -5782773.06649  -5285143.72347  22815586.6234   22815586.0104
      4396.2484
   -708817.29749   -552167.64148  20249855.8184   20249853.6114
      -385.7244
  -8112254.23449  -6307953.49647  22273570.9674   22273568.2724
      2561.9204
   4463608.56349   3465839.23047  22951536.9434   22951534.4824
     -2091.4354
  -5336282.20749  -4149851.53948  20321990.5064   20321989.0024
      1826.4204
 04  9 14 21 40 29.9980000  0  8G10G 3G 8G28G13G19G23G27
  -5822076.54749  -4519957.68746  22987098.6154   22987096.8654
      2627.4834
  -2513666.10949  -1953270.31247  22735470.1864   22735470.9084
       163.5084
  -8564778.48049  -6658147.29347  20798309.4984   20798308.3544
      3028.4824
  -5848662.10949  -5336485.78547  22803048.1004   22803047.2644
      4392.6034
   -702917.35949   -547570.30548  20250978.4044   20250976.7724
      -393.3294
  -8150563.30549  -6337804.68747  22266281.3034   22266278.4984
      2553.9384
   4495031.94949   3490324.90647  22957515.9364   22957514.2404
     -2094.8924
  -5363634.68049  -4171165.15648  20316785.5454   20316784.3144
      1823.4984
 04  9 14 21 40 44.9980000  0  8G10G 3G 8G28G13G19G23G27
  -5861354.64149  -4550564.04347  22979623.8894   22979623.3344
      2618.5404
  -2515982.56249  -1955075.36747  22735029.5064   22735030.0684
       154.4304
  -8610156.82049  -6693507.02047  20789674.1544   20789673.0064
      3025.2234
  -5914497.87549  -5387786.35947  22790520.1704   22790519.3614
      4389.0514
   -696904.94549   -542885.31648  20252122.5454   20252120.6314
      -400.8284
  -8188753.97349  -6367563.63347  22259013.5454   22259010.2644
      2546.0454
   4526505.37549   3514849.57847  22963505.4434   22963503.4394
     -2098.2284
  -5390944.96149  -4192445.89548  20311588.8424   20311587.2524
      1820.6854
 04  9 14 21 40 59.9980000  0  8G10G 3G 8G28G13G19G23G27
  -5900496.37849  -4581064.09046  22972175.5764   22972175.2834
      2609.4494
  -2518161.00849  -1956772.87547  22734615.4204   22734615.1624
       145.2304
  -8655484.27049  -6728827.11747  20781048.4824   20781047.2094
      3021.8304
  -5980278.11349  -5439043.66447  22778001.6004   22778000.9634
      4385.3494
   -690778.00049   -538111.09448  20253288.3814   20253286.6314
      -408.4634
  -8226824.07049  -6397228.62547  22251769.2014   22251766.0684
      2538.0074
   4558030.82449   3539414.78547  22969504.9674   22969502.3934
     -2101.6974
  -5418210.77049  -4213691.98448  20306400.4904   20306398.7094
      1817.7214
 04  9 14 21 41 14.9980000  0  8G10G 3G 8G28G13G19G23G27
  -5939504.89849  -4611460.33246  22964751.8344   22964752.2444
      2600.5684
  -2520204.83249  -1958365.46547  22734226.5374   22734226.1154
       136.2554
  -8700763.92249  -6764109.96147  20772432.1934   20772430.3114
      3018.6434
  -6046005.92649  -5490260.08647  22765494.5534   22765493.3074
      4381.8544
   -684539.95749   -533250.29348  20254475.5224   20254473.3894
      -415.8704
  -8264776.50449  -6426801.94947  22244546.6704   22244543.8894
      2530.1624
   4589604.69549   3564017.75447  22975513.8424   22975510.6044
     -2104.9254
  -5445435.39149  -4234905.98048  20301219.4674   20301217.8774
      1814.9754
 04  9 14 21 41 29.9980000  0  8G10G 3G 8G28G13G19G23G27
  -5978377.29749  -4641750.51647  22957354.8114   22957354.9864
      2591.4934
  -2522111.30549  -1959851.05147  22733863.8974   22733863.5684
       127.0984
  -8745992.94149  -6799353.35247  20763825.2874   20763823.9634
      3015.2684
  -6111678.43749  -5541433.44547  22752996.7404   22752995.8934
      4378.1674
   -678188.08249   -528300.80148  20255684.3504   20255681.8544
      -423.4584
  -8302608.32049  -6456281.27347  22237347.7954   22237344.7794
      2522.1214
   4621229.63749   3588660.48847  22981531.1234   22981529.2254
     -2108.3294
  -5472616.25049  -4256085.86748  20296047.3034   20296045.6934
      1812.0574
 04  9 14 21 41 44.9980000  0  8G10G 3G 8G28G13G19G23G27
  -6017113.21549  -4671934.38747  22949984.3574   22949983.2724
      2582.3954
  -2523880.36349  -1961229.53547  22733527.0144   22733526.4754
       117.9374
  -8791171.39149  -6834557.33647  20755228.1154   20755226.8344
      3011.8974
  -6177295.26249  -5592563.40647  22740510.2404   22740509.1274
      4374.4554
   -671722.23449   -523262.49248  20256914.6864   20256912.5684
      -431.0574
  -8340319.12549  -6485666.29747  22230171.3424   22230168.9714
      2514.0544
   4652905.44149   3613342.87147  22987559.0144   22987557.0414
     -2111.7204
  -5499752.91849  -4277231.32448  20290883.2014   20290881.7014
      1809.1114
 04  9 14 21 41 59.9980000  0  8G10G 3G 8G28G13G19G23G27
  -6055712.81649  -4702011.97746  22942638.7564   22942638.2644
      2573.3074
  -2525512.36349  -1962501.25847  22733216.6004   22733216.3654
       108.8004
  -8836299.17649  -6869721.84047  20746641.0614   20746639.7134
      3008.5194
  -6242856.43049  -5643649.98847  22728034.8814   22728032.8114
      4370.7454
   -665142.72349   -518135.62148  20258167.0614   20258164.9554
      -438.6344
  -8377908.85549  -6514956.98047  22223018.3424   22223016.0574
      2505.9824
   4684631.83649   3638064.65647  22993596.9044   22993593.7564
     -2115.0934
  -5526845.58249  -4298342.49248  20285727.6074   20285726.0254
      1806.1784
 04  9 14 21 42 14.9980000  0  8G10G 3G 8G28G13G19G23G27
  -6094175.10549  -4731982.56246  22935319.5924   22935319.1354
      2564.1534
  -2527006.62149  -1963665.63347  22732931.7794   22732931.7214
        99.6174
  -8881375.47349  -6904846.21548  20738063.0144   20738061.7684
      3005.0864
  -6308360.87949  -5694692.42247  22715569.1784   22715567.8224
      4366.9634
   -658448.92249   -512919.68448  20259440.8574   20259438.6234
      -446.2534
  -8415376.50449  -6544152.54347  22215888.6474   22215885.8464
      2497.8434
   4716409.32049   3662826.28947  22999643.5454   22999641.0414
     -2118.4994
  -5553893.55149  -4319418.84048  20280580.4984   20280579.0764
      1803.1984
 04  9 14 21 42 29.9980000  0  8G10G 3G 8G28G13G19G23G27
  -6132501.03549  -4761846.91046  22928026.5144   22928025.9084
      2555.0624
  -2528364.33649  -1964723.61347  22732673.6934   22732673.5964
        90.5144
  -8926401.36349  -6939931.31648  20729494.8184   20729493.4244
      3001.7264
  -6373809.46949  -5745691.28547  22703114.9904   22703113.7174
      4363.2394
   -651641.83649   -507615.47748  20260736.2644   20260734.1784
      -453.8064
  -8452722.88349  -6573253.59047  22208781.4284   22208779.0644
      2489.7594
   4748236.72349   3687626.81647  23005700.1784   23005697.3504
     -2121.8274
  -5580897.76249  -4340461.07448  20275441.9674   20275440.7404
      1800.2814
 04  9 14 21 42 44.9980000  0  8G10G 3G 8G28G13G19G23G27
  -6170689.29749  -4791604.05547  22920759.8184   22920758.3544
      2545.8844
  -2529584.56249  -1965674.45347  22732441.3974   22732440.9754
        81.3484
  -8971375.84449  -6974976.35947  20720936.4904   20720935.2134
      2998.2994
  -6439201.01249  -5796645.71947  22690671.8424   22690670.8464
      4359.4364
   -644720.41049   -502222.17648  20262053.3114   20262051.0644
      -461.4284
  -8489946.71549  -6602259.15647  22201698.0224   22201695.7604
      2481.5894
   4780114.93849   3712466.93847  23011766.4754   23011764.1784
     -2125.2144
  -5607857.07449  -4361468.33248  20270311.8424   20270310.6274
      1797.2874
 04  9 14 21 42 59.9980000  0  8G10G 3G 8G28G13G19G23G27
  -6208738.44549  -4821252.69947  22913518.9824   22913518.2484
      2536.6104
  -2530666.07049  -1966517.22347  22732235.6074   22732235.2134
        72.1014
  -9016297.34449  -7009980.12947  20712388.4124   20712386.5804
      2994.7674
  -6504533.96149  -5847554.46547  22678239.5614   22678237.7754
      4355.5304
   -637683.37549   -496738.78948  20263392.4284   20263389.8694
      -469.1364
  -8527046.38349  -6631167.98047  22194638.1004   22194635.5334
      2473.3114
   4812045.09049   3737347.50847  23017841.8734   23017839.8144
     -2128.6774
  -5634770.10549  -4382439.52748  20265190.4044   20265188.9434
      1794.2024
 04  9 14 21 43 14.9980000  0  8G10G 3G 8G28G13G19G23G27
  -6246649.83249  -4850794.03147  22906304.6074   22906303.4794
      2527.4264
  -2531610.47349  -1967253.12947  22732055.7954   22732056.1354
        62.9604
  -9061167.48049  -7044943.87147  20703849.3974   20703848.3894
      2991.3424
  -6569809.57449  -5898418.53947  22665817.7404   22665817.0334
      4351.7084
   -630532.28949   -491166.53548  20264753.3734   20264751.2404
      -476.7394
  -8564023.07449  -6659980.97747  22187601.3114   22187598.9324
      2465.1134
   4844025.52749   3762267.27747  23023928.4594   23023925.4204
     -2132.0294
  -5661638.40249  -4403375.85948  20260077.5374   20260076.1274
      1791.2204
 04  9 14 21 43 29.9980000  0  8G10G 3G 8G28G13G19G23G27
  -6284422.93449  -4880227.60247  22899116.5924   22899115.5534
      2518.2074
  -2532417.41449  -1967881.93447  22731903.1624   22731902.4124
        53.7964
  -9105985.65249  -7079867.11747  20695321.1784   20695319.8974
      2987.8784
  -6635027.31649  -5949237.53547  22653406.8894   22653405.9754
      4347.8494
   -623266.95349   -485505.25448  20266136.0844   20266133.6704
      -484.3564
  -8600876.16849  -6688697.66047  22180588.6784   22180586.0224
      2456.8734
   4876056.38349   3787226.33647  23030023.4434   23030021.4514
     -2135.3904
  -5688461.30549  -4424276.83248  20254972.9284   20254971.4364
      1788.1934
 04  9 14 21 43 44.9980000  0  8G10G 3G 8G28G13G19G23G27
  -6322056.23049  -4909552.23847  22891955.4514   22891954.4714
      2508.8864
  -2533085.53149  -1968402.56647  22731775.3184   22731775.3344
        44.5414
  -9150750.47749  -7114748.78948  20686802.5534   20686801.4554
      2984.3224
  -6700185.69949  -6000010.26647  22641008.0454   22641007.2954
      4343.8924
   -615886.04349   -479753.91448  20267540.2954   20267538.1504
      -492.0614
  -8637604.19549  -6717316.89147  22173599.6394   22173597.1584
      2448.5354
   4908138.87149   3812225.60247  23036128.8574   23036126.1044
     -2138.8334
  -5715237.57049  -4445141.46548  20249877.9434   20249876.4864
      1785.0844
 04  9 14 21 43 59.9980000  0  8G10G 3G 8G28G13G19G23G27
  -6359552.40249  -4938770.04747  22884820.1544   22884818.7014
      2499.7454
  -2533617.98049  -1968817.46947  22731674.3894   22731674.2484
        35.4974
  -9195464.64149  -7149590.98048  20678293.8344   20678292.7914
      2980.9444
  -6765287.32049  -6050738.77747  22628619.6314   22628618.6474
      4340.1084
   -608392.52049   -473914.81648  20268966.2564   20268963.9434
      -499.5684
  -8674209.58649  -6745840.55147  22166633.6154   22166630.9514
      2440.3594
   4940269.80149   3837262.65647  23042242.8034   23042240.6354
     -2142.0624
  -5741970.08249  -4465971.99248  20244790.6314   20244789.5414
      1782.1674
 04  9 14 21 44 14.9980000  0  8G10G 3G 8G28G13G19G23G27
  -6396911.23449  -4967880.78146  22877710.9124   22877710.1434
      2490.5894
  -2534014.71949  -1969126.63346  22731599.0454   22731598.7874
        26.4494
  -9240128.04349  -7184393.62147  20669794.4364   20669793.5454
      2977.5604
  -6830331.80949  -6101422.77347  22616241.6864   22616241.4514
      4336.2994
   -600786.23849   -467987.85948  20270413.7324   20270411.6584
      -507.0854
  -8710691.96949  -6774268.37547  22159691.6624   22159689.0844
      2432.1594
   4972449.34449   3862337.55947  23048366.4754   23048364.5724
     -2145.3034
  -5768658.44549  -4486768.12148  20239712.2644   20239710.9284
      1779.2244
 04  9 14 21 44 29.9980000  0  8G10G 3G 8G28G13G19G23G27
  -6434130.46549  -4996882.82047  22870627.7174   22870627.7564
      2481.2824
  -2534273.82449  -1969328.56646  22731549.0534   22731549.6584
        17.2744
  -9284738.53149  -7219155.03147  20661305.3504   20661304.3074
      2974.0334
  -6895317.02049  -6152060.57447  22603875.8894   22603874.8854
      4332.3474
   -593065.27749   -461971.54348  20271883.1784   20271881.2294
      -514.7314
  -8747049.05549  -6802598.56247  22152773.1934   22152770.8734
      2423.8064
   5004679.24649   3887451.71547  23054499.9364   23054498.0494
     -2148.6604
  -5795300.69949  -4507528.32448  20234642.5374   20234640.7444
      1776.1504
 04  9 14 21 44 44.9980000  0  8G10G 3G 8G28G13G19G23G27
  -6471211.32448  -5025776.96546  22863571.6004   22863571.6394
      2472.0574
  -2534396.66049  -1969424.28947  22731526.1704   22731526.2754
         8.1894
  -9329297.50049  -7253876.29347  20652826.4824   20652824.5964
      2970.5984
  -6960244.02349  -6202653.02347  22591520.3114   22591519.9714
      4328.4674
   -585230.95749   -455866.89848  20273373.7874   20273372.0574
      -522.2884
  -8783281.96149  -6830831.98447  22145878.2954   22145875.6154
      2415.5274
   5036958.07049   3912603.99247  23060642.0454   23060639.9474
     -2151.9224
  -5821898.06649  -4528253.54348  20229581.2794   20229579.3544
      1773.1584
 04  9 14 21 44 59.9980000  0  8G10G 3G 8G28G13G19G23G27
  -6508154.85549  -5054564.14147  22856541.6394   22856541.7724
      2462.9024
  -2534384.78549  -1969415.06247  22731528.8034   22731528.2364
        -0.7924
  -9373806.04749  -7288558.28948  20644356.3344   20644354.8974
      2967.2364
  -7025113.94549  -6253200.99647  22579175.9124   22579175.6474
      4324.6614
   -577284.66849   -449675.00048  20274886.1474   20274884.0454
      -529.7534
  -8819391.82449  -6858969.52347  22139006.7094   22139004.0064
      2407.3244
   5069284.24649   3937793.15247  23066793.8814   23066792.2134
     -2155.0784
  -5848451.71549  -4548944.71148  20224528.4364   20224526.7994
      1770.2434
 04  9 14 21 45 14.9980000  0  8G10G 3G 8G28G13G19G23G27
  -6544961.09049  -5083244.32446  22849537.9674   22849537.1504
      2453.7494
  -2534238.24649  -1969300.90247  22731555.7324   22731556.2954
        -9.7694
  -9418264.06249  -7323200.87947  20635896.3654   20635895.0374
      2963.8684
  -7089926.56649  -6303704.30547  22566842.3974   22566842.5644
      4320.8414
   -569226.51249   -443395.93048  20276419.4434   20276417.0764
      -537.2104
  -8855378.30149  -6887010.93047  22132158.6784   22132156.1074
      2399.0984
   5101657.60549   3963019.08247  23072953.9124   23072952.8074
     -2158.2244
  -5874961.66449  -4569601.80948  20219483.7564   20219482.3184
      1767.3304
 04  9 14 21 45 29.9980000  0  8G10G 3G 8G28G13G19G23G27
  -6581629.46149  -5111817.05546  22842559.7254   22842558.5104
      2444.5584
  -2533957.00849  -1969081.78147  22731609.9044   22731609.3894
       -18.7494
  -9462671.24649  -7357803.87547  20627446.0684   20627445.2404
      2960.4794
  -7154681.49249  -6354162.65647  22554519.7874   22554520.4754
      4316.9954
   -561056.31649   -437029.55548  20277973.8894   20277971.9364
      -544.6804
  -8891240.98049  -6914955.85947  22125334.1074   22125331.9284
      2390.8454
   5134078.19149   3988281.79747  23079123.4754   23079122.0574
     -2161.3724
  -5901427.68749  -4590224.69148  20214447.5764   20214445.8034
      1764.4024
 04  9 14 21 45 44.9980000  0  8G10G 3G 8G28G13G19G23G27
  -6618158.50849  -5140281.28947  22835609.0064   22835607.5104
      2435.2704
  -2533539.64149  -1968756.57847  22731688.6934   22731689.4984
       -27.8244
  -9507026.12149  -7392366.09847  20619005.3034   20619004.3774
      2956.9924
  -7219377.09849  -6404574.77747  22542208.8034   22542208.7254
      4313.0404
   -552772.62949   -430574.75448  20279550.6784   20279548.5254
      -552.2464
  -8926978.24649  -6942803.07847  22118533.5374   22118531.1004
      2382.4844
   5166547.18449   4013582.24647  23085302.2724   23085300.6974
     -2164.5994
  -5927848.14549  -4610812.05548  20209419.5374   20209418.0224
      1761.3644
 04  9 14 21 45 59.9980000  0  8G10G 3G 8G28G13G19G23G27
  -6654548.76249  -5168637.32846  22828683.7724   22828683.1504
      2426.0174
  -2532987.10949  -1968326.03147  22731793.8974   22731794.1664
       -36.8354
  -9551329.60949  -7426888.30147  20610574.1154   20610573.4044
      2953.5664
  -7284013.93749  -6454941.12547  22529908.4824   22529908.8894
      4309.1234
   -544376.34849   -424032.21948  20281148.3654   20281146.5184
      -559.7524
  -8962590.53149  -6970552.91047  22111757.2724   22111754.5534
      2374.1524
   5199063.68849   4038919.71546  23091489.8894   23091488.8224
     -2167.7674
  -5954223.91449  -4631364.60948  20204400.6154   20204398.7994
      1758.3854
 04  9 14 21 46 14.9980000  0  8G10G 3G 8G28G13G19G23G27
  -6690801.44549  -5196886.17246  22821785.6004   22821784.6584
      2416.8464
  -2532300.75849  -1967791.25847  22731924.8574   22731924.8074
       -45.7574
  -9595582.71549  -7461371.23048  20602153.5294   20602152.1314
      2950.2074
  -7348593.07849  -6505262.50847  22517619.9754   22517619.3114
      4305.2764
   -535868.81649   -417402.98448  20282767.2794   20282765.1504
      -567.1694
  -8998078.86349  -6998206.14847  22105003.8344   22105000.9324
      2365.8894
   5231626.20749   4064293.03547  23097686.4754   23097685.5494
     -2170.8354
  -5980556.14149  -4651883.23048  20199389.7954   20199388.1474
      1755.4824
 04  9 14 21 46 29.9980000  0  8G10G 3G 8G28G13G19G23G27
  -6726915.07449  -5225026.65246  22814913.5764   22814912.1974
      2407.5754
  -2531479.37549  -1967151.24247  22732080.7564   22732080.9434
       -54.7594
  -9639783.89149  -7495813.69547  20593742.3894   20593741.2404
      2946.7454
  -7413113.00449  -6555537.75847  22505342.6234   22505341.4714
      4301.3284
   -527248.78549   -410686.09048  20284407.3974   20284405.3974
      -574.6694
  -9033441.69149  -7025761.59447  22098274.3574   22098271.5534
      2357.5224
   5264235.92649   4089703.12547  23103892.0374   23103890.9474
     -2173.9814
  -6006843.39849  -4672366.80948  20194387.4434   20194386.1194
      1752.4844
 04  9 14 21 46 44.9980000  0  8G10G 3G 8G28G13G19G23G27
  -6762891.10548  -5253059.91846  22808066.7954   22808066.5764
      2398.4024
  -2530524.63749  -1966407.31247  22732262.6394   22732262.7294
       -63.6494
  -9683934.80549  -7530216.99647  20585340.7014   20585339.6744
      2943.3944
  -7477575.10949  -6605767.93447  22493075.9904   22493074.7874
      4297.4744
   -518517.81249   -403882.74648  20286069.0764   20286067.1894
      -582.0654
  -9068680.35549  -7053220.28547  22091568.6154   22091565.9394
      2349.2444
   5296891.14549   4115148.66847  23110105.7484   23110105.4594
     -2177.0154
  -6033087.22349  -4692816.55148  20189393.3424   20189391.7324
      1749.5884
 04  9 14 21 46 59.9980000  0  8G10G 3G 8G28G13G19G23G27
  -6798729.02348  -5280985.54346  22801246.8344   22801247.2444
      2389.1954
  -2529436.43049  -1965559.37547  22732469.8814   22732469.4594
       -72.5474
  -9728035.17249  -7564580.91847  20576948.7404   20576947.4204
      2940.0244
  -7541978.91849  -6655952.69947  22480819.9364   22480818.8074
      4293.5874
   -509675.77749   -396992.87548  20287751.6864   20287749.4674
      -589.4694
  -9103794.33249  -7080581.82047  22084886.7484   22084884.0024
      2340.9324
   5329591.79349   4140629.63747  23116328.7644   23116327.7524
     -2180.0434
  -6059287.28549  -4713232.18048  20184407.6154   20184405.7994
      1746.6714
 04  9 14 21 47 14.9980000  0  8G10G 3G 8G28G13G19G23G27
  -6834428.39849  -5308803.28946  22794453.7324   22794453.1504
      2379.9584
  -2528214.55549  -1964607.27046  22732701.8654   22732702.9324
       -81.4584
  -9772084.62549  -7598905.16448  20568566.3184   20568565.5144
      2936.6304
  -7606323.84449  -6706091.57047  22468576.0454   22468574.3614
      4289.6624
   -500722.41449   -390016.24648  20289455.0924   20289453.1624
      -596.8914
  -9138783.10249  -7107845.78947  22078228.4204   22078225.7484
      2332.5854
   5362338.21549   4166146.24247  23122560.2644   23122559.0684
     -2183.0954
  -6085443.12149  -4733613.35548  20179430.2954   20179428.7174
      1743.7224
 04  9 14 21 47 29.9980000  0  8G10G 3G 8G28G13G19G23G27
  -6869988.86749  -5336512.66046  22787687.0614   22787686.6744
      2370.6984
  -2526858.84049  -1963550.91046  22732960.2094   22732960.2994
       -90.3814
  -9816082.67649  -7633189.34448  20560193.7174   20560192.9904
      2933.2034
  -7670609.45349  -6756184.22747  22456343.0224   22456340.9754
      4285.7074
   -491657.53549   -382952.71948  20291180.1234   20291178.5184
      -604.3254
  -9173646.04349  -7135011.70347  22071593.7724   22071591.6434
      2324.1964
   5395130.27349   4191698.41847  23128800.6474   23128799.6744
     -2186.1374
  -6111554.48449  -4753959.87148  20174461.2174   20174459.7954
      1740.7584
 04  9 14 21 47 44.9980000  0  8G10G 3G 8G28G13G19G23G27
  -6905411.53548  -5364114.75446  22780946.3814   22780946.1584
      2361.5114
  -2525370.52749  -1962391.19147  22733243.6474   22733243.7214
       -99.2214
  -9860030.28549  -7667434.23048  20551830.8574   20551829.7914
      2929.8414
  -7734836.73449  -6806231.43047  22444120.4984   22444118.7294
      4281.8194
   -482482.34049   -375803.22748  20292926.3424   20292924.6664
      -611.6804
  -9208384.17249  -7162080.36747  22064983.7174   22064981.3074
      2315.8754
   5427966.85549   4217285.29747  23135049.1544   23135047.8934
     -2189.1054
  -6137622.26649  -4774272.43448  20169500.8264   20169499.4904
      1737.8524
 04  9 14 21 47 59.9980000  0  8G10G 3G 8G28G13G19G23G27
  -6940694.76648  -5391608.14846  22774231.9044   22774231.2254
      2352.2154
  -2523748.43049  -1961127.23446  22733552.5614   22733552.5614
      -108.1404
  -9903926.06649  -7701638.74647  20543477.6704   20543476.8184
      2926.3854
  -7799004.07049  -6856231.90647  22431910.3734   22431908.3974
      4277.8224
   -473195.37149   -368566.64848  20294693.3184   20294691.7524
      -619.1314
  -9242995.78949  -7189050.44547  22058397.6784   22058394.8384
      2307.4414
   5460849.12549   4242907.77747  23141307.2954   23141305.2834
     -2192.1514
  -6163645.24249  -4794550.08248  20164549.0454   20164547.1274
      1734.8654
 04  9 14 21 48 14.9980000  0  8G10G 3G 8G28G13G19G23G27
  -6975837.60949  -5418992.18046  22767544.2324   22767542.9044
      2342.8564
  -2521991.87949  -1959758.50847  22733887.2874   22733887.0024
      -117.1034
  -9947769.33249  -7735802.31248  20535134.6314   20535133.4634
      2922.8844
  -7863110.45349  -6906184.91047  22419711.1234   22419709.1474
      4273.7594
   -463796.08249   -361242.54348  20296482.2014   20296480.4044
      -626.6194
  -9277479.89149  -7215921.17247  22051835.3504   22051832.4164
      2298.9404
   5493777.57449   4268566.22347  23147572.9204   23147571.4364
     -2195.2304
  -6189622.48849  -4814792.09048  20159605.8654   20159603.8034
      1731.8164
 04  9 14 21 48 29.9980000  0  8G10G 3G 8G28G13G19G23G27
  -7010838.78149  -5446265.73846  22760884.2564   22760883.2014
      2333.4114
  -2520099.82849  -1958284.19547  22734246.1004   22734246.7954
      -126.1374
  -9991558.69149  -7769923.89147  20526801.6154   20526800.6394
      2919.2914
  -7927154.59849  -6956089.40647  22407523.3574   22407521.8424
      4269.6104
   -454283.41049   -353830.09448  20298292.6544   20298290.8574
      -634.1784
  -9311835.19549  -7242691.52347  22045297.5534   22045294.9594
      2290.3544
   5526753.22349   4294261.46547  23153847.7174   23153846.3774
     -2198.3774
  -6215552.70349  -4834997.45348  20154671.2644   20154669.5574
      1728.6814
 04  9 14 21 48 44.9980000  0  8G10G 3G 8G28G13G19G23G27
  -7045702.37948  -5473432.21946  22754249.2014   22754248.3774
      2324.2404
  -2518076.52349  -1956707.60546  22734631.4984   22734631.6894
      -134.8874
 -10035298.03549  -7804006.48048  20518478.8184   20518477.5454
      2915.9564
  -7991140.40649  -7005948.44147  22395347.2724   22395345.9674
      4265.7214
   -444661.44549   -346332.47348  20300123.3344   20300121.4474
      -641.4644
  -9346065.55149  -7269364.52347  22038783.9514   22038780.8854
      2282.0244
   5559771.68049   4319990.07447  23160131.0374   23160129.6434
     -2201.2304
  -6241440.06249  -4855169.42648  20149745.0224   20149743.5884
      1725.8244
 04  9 14 21 48 59.9980000  0  8G10G 3G 8G28G13G19G23G27
  -7080423.69948  -5500487.85256  22747642.5844   22747637.1704
      2314.7554
  -2515917.65649  -1955025.38746  22735042.5144   22735042.3614
      -143.9244
 -10078983.10249  -7838046.79348  20510165.3424   20510164.4594
      2912.3384
  -8055063.28549  -7055758.45347  22383182.6474   22383181.9044
      4261.5254
   -434925.99649   -338746.43048  20301976.0224   20301974.1354
      -649.0304
  -9380166.23849  -7295936.48447  22032294.7874   22032291.8894
      2273.3794
   5592837.20349   4345755.34047  23166423.8504   23166421.8504
     -2204.3684
  -6267280.02349  -4875304.46148  20144827.8574   20144826.2954
      1722.6644
 04  9 14 21 49 14.9980000  0  8G10G 3G 8G28G13G19G23G27
  -7115000.86348  -5527431.12946  22741062.8184   22741059.8974
      2305.1444
  -2513621.64149  -1953236.31647  22735479.5844   22735479.2174
      -153.0684
 -10122612.01249  -7872043.33647  20501863.5144   20501861.7444
      2908.5944
  -8118921.24249  -7105517.85247  22371031.4434   22371031.3264
      4257.1974
   -425075.25849   -331070.54748  20303850.8654   20303848.6624
      -656.7164
  -9414135.15649  -7322405.76247  22025831.0064   22025828.0614
      2264.5954
   5625951.46949   4371558.60247  23172725.2404   23172723.1354
     -2207.6184
  -6293070.66849  -4895401.06248  20139919.9754   20139918.5924
      1719.3764
 04  9 14 21 49 29.9980000  0  8G10G 3G 8G28G13G19G23G27
  -7149436.47348  -5554264.03946  22734510.0144   22734508.0764
      2295.7074
  -2511191.10949  -1951342.41046  22735941.8264   22735941.9204
      -162.0354
 -10166187.35249  -7905998.14548  20493571.1934   20493569.7794
      2905.0234
  -8182716.62549  -7155228.52747  22358891.6544   22358890.9204
      4253.0264
   -415111.80949   -323306.84848  20305746.6704   20305745.0024
      -664.2304
  -9447974.81649  -7348774.32447  22019391.1624   22019388.7874
      2255.9774
   5659111.64549   4397397.62547  23179035.4124   23179033.4594
     -2210.6784
  -6318814.59049  -4915461.27048  20135021.0924   20135019.7994
      1716.2614
 04  9 14 21 49 44.9980000  0  8G10G 3G 8G28G13G19G23G27
  -7183726.88348  -5580983.76246  22727984.5374   22727983.5574
      2286.0274
  -2508622.69149  -1949341.06246  22736430.7094   22736430.4594
      -171.2284
 -10209705.45749  -7939908.34848  20485289.8734   20485288.6894
      2901.2074
  -8246445.65249  -7204887.48047  22346764.3974   22346763.7054
      4248.6024
   -405032.26249   -315452.67248  20307664.6234   20307662.9474
      -671.9704
  -9481681.37949  -7375039.17247  22012977.1234   22012974.2054
      2247.1044
   5692321.27049   4423275.20347  23185354.4594   23185353.3304
     -2213.9754
  -6344508.14549  -4935482.23848  20130131.5764   20130130.4434
      1712.9044
 04  9 14 21 49 59.9980000  0  8G10G 3G 8G28G13G19G23G27
  -7217872.62148  -5607590.89146  22721486.8734   22721486.3934
      2276.3834
  -2505917.35949  -1947233.02346  22736945.2484   22736945.2874
      -180.3554
 -10253167.11749  -7973774.57048  20477019.6624   20477018.5254
      2897.4444
  -8310109.07049  -7254495.32047  22334649.6784   22334649.1194
      4244.2284
   -394837.48849   -307508.70348  20309604.7644   20309602.5374
      -679.6524
  -9515255.59449  -7401200.89147  22006588.4514   22006585.2754
      2238.2814
   5725579.10949   4449190.31347  23191683.9824   23191681.9044
     -2217.1894
  -6370152.13349  -4955464.56648  20125251.8814   20125250.7294
      1709.5994
 04  9 14 21 50 14.9980000  0  8G10G 3G 8G28G13G19G23G27
  -7251875.50058  -5634086.69156  22715016.5224   22715015.8654
      2266.7384
  -2503077.36749  -1945020.05547  22737486.3814   22737485.6234
      -189.3334
 -10296574.00049  -8007598.11748  20468759.5534   20468758.3654
      2893.7924
  -8373708.74649  -7304053.48447  22322546.6154   22322546.5964
      4239.9784
   -384529.81249   -299476.77348  20311566.0294   20311564.7644
      -687.1784
  -9548699.18749  -7427260.82447  22000224.1704   22000221.1274
      2229.5734
   5758883.03149   4475141.37547  23198020.8344   23198019.8184
     -2220.2614
  -6395748.53149  -4975409.82448  20120381.1934   20120379.5334
      1706.4274
 04  9 14 21 50 29.9980000  0  8G10G 3G 8G28G13G19G23G27
  -7285735.68748  -5660471.21946  22708574.0924   22708572.3774
      2257.3464
  -2500102.75049  -1942702.19547  22738052.3894   22738052.0574
      -198.3084
 -10339926.22749  -8041379.06248  20460509.7484   20460508.7604
      2890.1484
  -8437244.46949  -7353561.82047  22310456.0294   22310456.2684
      4235.7154
   -374109.03949   -291356.70347  20313549.3184   20313547.3224
      -694.7184
  -9582011.85249  -7453218.74247  21993884.8264   21993882.4364
      2220.8444
   5792232.80549   4501128.12947  23204367.3974   23204365.5454
     -2223.3184
  -6421297.25449  -4995317.91848  20115519.3894   20115518.4044
      1703.2484
 04  9 14 21 50 44.9980000  0  8G10G 3G 8G28G13G19G23G27
  -7319452.88748  -5686744.35946  22702158.1154   22702156.0104
      2247.8134
  -2496993.54749  -1940279.43446  22738643.3654   22738643.4244
      -207.2804
 -10383223.74249  -8075117.37947  20452270.6394   20452269.1274
      2886.5014
  -8500715.96149  -7403020.09447  22298377.8814   22298377.5224
      4231.4334
   -363575.12149   -283148.47748  20315553.8654   20315552.0024
      -702.2614
  -9615193.32049  -7479074.42247  21987570.3344   21987567.8814
      2212.0984
   5825628.42249   4527150.62547  23210722.9674   23210721.2094
     -2226.3744
  -6446798.07049  -5015188.69148  20110666.6394   20110665.4984
      1700.0544
 04  9 14 21 50 59.9980000  0  8G10G 3G 8G28G13G19G23G27
  -7353027.64149  -5712906.49246  22695768.1934   22695766.3344
      2238.3174
  -2493750.70749  -1937752.56646  22739260.5924   22739261.0064
      -216.1894
 -10426467.15249  -8108813.53547  20444041.5064   20444039.8074
      2882.8944
  -8564123.68749  -7452428.69147  22286312.2324   22286311.3114
      4227.1824
   -352929.07849   -274852.87148  20317579.6004   20317577.7684
      -709.7364
  -9648244.14549  -7504828.30147  21981281.2794   21981278.7174
      2203.3884
   5859068.78549   4553207.98047  23217086.0614   23217083.8894
     -2229.3584
  -6472251.72749  -5035022.71148  20105823.2014   20105821.9634
      1696.9104
 04  9 14 21 51 14.9980000  0  8G10G 3G 8G28G13G19G23G27
  -7386458.82048  -5738956.76646  22689406.4204   22689405.3544
      2228.7454
  -2490373.29349  -1935120.82047  22739903.5764   22739903.3384
      -225.1614
 -10469655.12149  -8142466.50848  20435823.1784   20435821.8814
      2879.1984
  -8627466.62949  -7501786.80147  22274258.0454   22274256.8184
      4222.8634
   -342169.94149   -266469.14848  20319627.1314   20319625.0614
      -717.2764
  -9681163.12949  -7530479.46547  21975016.9044   21975014.4714
      2194.5994
   5892554.78949   4579300.90647  23223458.3344   23223456.9244
     -2232.4004
  -6497657.12149  -5054819.12948  20100988.7324   20100986.9594
      1693.6934
 04  9 14 21 51 29.9980000  0  8G10G 3G 8G28G13G19G23G27
  -7419746.70748  -5764895.29746  22683071.7174   22683070.8854
      2219.1924
  -2486861.69949  -1932384.54747  22740571.5374   22740571.5254
      -234.1064
 -10512787.92249  -8176076.48048  20427615.5454   20427613.7324
      2875.5204
  -8690744.55549  -7551094.22747  22262216.9904   22262214.8854
      4218.5284
   -331297.94149   -257997.46948  20321696.0844   20321694.4004
      -724.8004
  -9713950.12549  -7556027.77047  21968778.0454   21968775.0144
      2185.8004
   5926086.09049   4605429.12947  23229839.0924   23229837.6974
     -2235.4204
  -6523014.35249  -5074578.00848  20096163.4044   20096161.6234
      1690.4824
 04  9 14 21 51 44.9980000  0  8G10G 3G 8G28G13G19G23G27
  -7452890.37558  -5790721.54356  22676764.9674   22676764.1744
      2209.6404
  -2483215.54749  -1929543.39547  22741265.1704   22741265.8544
      -243.0774
 -10555864.93049  -8209642.96948  20419418.0684   20419417.1114
      2871.8014
  -8753956.90249  -7600350.58647  22250187.5144   22250186.0414
      4214.1574
   -320312.73849   -249437.59848  20323786.4204   20323784.5574
      -732.3474
  -9746604.43449  -7581472.68047  21962564.3814   21962561.1864
      2176.9544
   5959662.97349   4631592.86346  23236228.8894   23236226.1974
     -2238.4594
  -6548322.79349  -5094298.87548  20091347.4044   20091345.6784
      1687.2294
 04  9 14 21 51 59.9980000  0  8G10G 3G 8G28G13G19G23G27
  -7485891.52058  -5816436.77356  22670484.7404   22670483.5804
      2200.0874
  -2479436.52349  -1926598.71547  22741985.0684   22741984.8304
      -251.9354
 -10598887.72749  -8243167.22348  20411230.8034   20411229.8144
      2868.1864
  -8817104.99649  -7649556.85547  22238170.8574   22238169.0684
      4209.8734
   -309215.95349   -240790.76648  20325898.3504   20325896.2794
      -739.7864
  -9779127.53549  -7606815.35247  21956374.8264   21956372.2794
      2168.2074
   5993283.72749   4657790.79746  23242626.2094   23242624.1394
     -2241.3844
  -6573584.08249  -5113982.99648  20086540.1074   20086538.6194
      1684.0864
 04  9 14 21 52 14.9980000  0  8G10G 3G 8G28G13G19G23G27
  -7518750.55558  -5842041.17256  22664232.4204   22664229.8574
      2190.5344
  -2475525.26649  -1923551.00047  22742728.7404   22742728.8114
      -260.7514
 -10641856.56649  -8276649.43048  20403054.6624   20403052.9474
      2864.5894
  -8880189.14149  -7698713.30147  22226166.4124   22226164.2724
      4205.6104
   -298008.16449   -232057.44547  20328030.6234   20328029.1704
      -747.1864
  -9811519.69949  -7632055.99647  21950211.3344   21950208.2524
      2159.4784
   6026947.57049   4684022.28946  23249033.0534   23249029.9864
     -2244.2564
  -6598798.56249  -5133630.64548  20081742.3034   20081740.5374
      1680.9654
 04  9 14 21 52 29.9980000  0  8G10G 3G 8G28G13G19G23G27
  -7551467.46948  -5867534.98046  22658005.5294   22658003.6354
      2181.1284
  -2471482.64149  -1920400.91447  22743497.9674   22743498.2524
      -269.5084
 -10684772.13749  -8310090.14148  20394887.7014   20394886.3854
      2861.0384
  -8943209.82849  -7747820.29747  22214173.5144   22214171.9864
      4201.3794
   -286690.05149   -223238.14547  20330184.7254   20330182.7364
      -754.5414
  -9843781.25049  -7657194.85947  21944071.9044   21944069.0104
      2150.7704
   6060653.75049   4710286.75846  23255446.3734   23255443.9124
     -2247.0794
  -6623966.77749  -5153242.24248  20076952.5454   20076951.2134
      1677.8814
 04  9 14 21 52 44.9980000  0  8G10G 3G 8G28G13G19G23G27
  -7584041.40258  -5892917.20356  22651808.4284   22651805.6624
      2171.7214
  -2467307.27749  -1917147.38747  22744292.8424   22744293.2524
      -278.3584
 -10727633.12949  -8343488.30948  20386731.7874   20386730.3614
      2857.3994
  -9006165.59849  -7796876.70347  22202193.4284   22202191.5764
      4197.0514
   -275260.32849   -214331.89847  20332359.5294   20332357.5454
      -761.9824
  -9875910.60549  -7682230.71147  21937958.0294   21937955.2604
      2141.9574
   6094403.44549   4736585.14146  23261869.5144   23261867.0224
     -2249.9804
  -6649087.25849  -5172816.64848  20072172.4984   20072170.7364
      1674.6994
 04  9 14 21 52 59.9980000  0  8G10G 3G 8G28G13G19G23G27
  -7616472.37948  -5918187.96546  22645636.6154   22645634.2324
      2162.0654
  -2462999.75849  -1913790.89847  22745112.6234   22745112.8814
      -287.1684
 -10770439.65649  -8376844.03948  20378585.5764   20378584.6044
      2853.7684
  -9069056.50449  -7845882.57447  22190225.4514   22190223.9284
      4192.7274
   -263719.55149   -205339.10547  20334555.5844   20334553.7054
      -769.3854
  -9907908.00849  -7707163.75447  21931868.6704   21931866.0494
      2133.1604
   6128196.07049   4762916.98846  23268299.1394   23268297.4824
     -2252.8424
  -6674160.39549  -5192354.16448  20067401.1624   20067399.5614
      1671.5424
 04  9 14 21 53 14.9980000  0  8G10G 3G 8G28G13G19G23G27
  -7648759.38348  -5943346.71146  22639492.4904   22639490.7754
      2152.4674
  -2458559.44149  -1910330.93047  22745957.7014   22745958.1934
      -296.0214
 -10813190.70349  -8410156.54348  20370450.4284   20370449.1894
      2850.0704
  -9131881.58649  -7894837.14147  22178270.0224   22178268.1044
      4188.3394
   -252067.02049   -196259.21947  20336772.9204   20336771.3264
      -776.8354
  -9939772.52349  -7731993.23047  21925805.1154   21925802.3614
      2124.3014
   6162032.30149   4789282.81346  23274738.9284   23274735.8774
     -2255.7494
  -6699185.26249  -5211854.05548  20062638.9904   20062637.5184
      1668.3244
 04  9 14 21 53 29.9980000  0  8G10G 3G 8G28G13G19G23G27
                                  22633375.420
      2142.869
  -2453985.81249  -1906767.08647  22746828.2404   22746828.4164
      -304.9094
 -10855885.77749  -8443425.43048  20362326.1474   20362324.9124
      2846.3384
  -9194639.97749  -7943739.75847  22166328.0064   22166326.4944
      4183.8934
   -240302.08649   -187091.76248  20339011.7794   20339009.9004
      -784.3294
  -9971503.10249  -7756718.34847  21919766.8734   21919764.3304
      2115.3724
   6195912.54749   4815682.93446  23281184.8654   23281183.7364
     -2258.6834
  -6724161.08649  -5231315.73048  20057886.5294   20057884.7054
      1665.0554
 04  9 14 21 53 44.9980000  0  8G10G 3G 8G28G13G19G23G27
    -45266.824 8                  22627286.889
      2133.297
  -2449280.47749  -1903100.59847  22747723.3344   22747723.8894
      -313.6894
 -10898526.18049  -8476651.70348  20354211.6624   20354210.3224
      2842.6934
  -9257332.87549  -7992591.34447  22154397.9754   22154396.2094
      4179.5274
   -228426.25849   -177837.89147  20341271.8654   20341269.9324
      -791.7224
 -10003101.00449  -7781340.07447  21913754.6074   21913751.7054
      2106.5274
   6229835.21149   4842116.10546  23287641.1704   23287639.2364
     -2261.5114
  -6749089.21949  -5250740.25848  20053142.9044   20053141.0644
      1661.8764
 04  9 14 21 53 59.9980000  0  8G10G 3G 8G28G13G19G23G27
    -77122.922 8                  22621224.506
      2123.740
  -2444444.15249  -1899332.05947  22748643.7874   22748644.0614
      -322.4224
 -10941112.25449  -8509835.66048  20346107.7724   20346106.6624
      2839.0724
  -9319960.70749  -8041392.22347  22142480.8814   22142479.2174
      4175.1894
   -216440.13349   -168498.06647  20343553.1074   20343550.6544
      -799.0754
 -10034566.57049  -7805858.70747  21907766.6314   21907763.8344
      2097.7044
   6263799.52749   4868581.73046  23294103.8974   23294102.7174
     -2264.2884
  -6773970.25849  -5270128.07448  20048407.9514   20048406.4084
      1658.7364
 04  9 14 21 54 14.9980000  0  8G10G 3G 8G28G13G19G23G27
   -108836.340 8                  22615189.498
      2114.228
  -2439477.01649  -1895461.59447  22749589.1934   22749589.4594
      -331.1424
 -10983644.01249  -8542977.28548  20338014.1934   20338012.8894
      2835.4514
  -9382523.28949  -8090142.25447  22130575.2564   22130574.2094
      4170.8394
   -204343.77049   -159072.34847  20345854.7794   20345852.6394
      -806.4244
 -10065899.68749  -7830274.11347  21901804.2094   21901801.1434
      2088.8744
   6297805.37149   4895079.69146  23300575.7954   23300573.6194
     -2267.0564
  -6798803.98849  -5289479.03548  20043682.6394   20043680.8264
      1655.5824
 04  9 14 21 54 29.9980000  0  8G10G 3G 8G28G13G19G23G27
   -140405.383 9                  22609182.053
      2104.603
  -2434377.84049  -1891488.22347  22750559.3654   22750559.9824
      -339.9454
 -11026119.98849  -8576075.44148  20329931.4044   20329930.2364
      2831.7324
  -9445019.03549  -8138840.19947  22118683.1234   22118682.1784
      4166.3834
   -192136.01249   -149559.83247  20348178.0224   20348176.0064
      -813.8514
 -10097098.68749  -7854585.01647  21895866.8344   21895864.1234
      2079.9334
   6331853.78549   4921610.85946  23307054.3974   23307052.7794
     -2269.8944
  -6823589.04749  -5308792.06648  20038965.8034   20038963.9554
      1652.3374
 04  9 14 21 54 44.9980000  0  8G10G 3G 8G28G13G19G23G27
   -171833.02348  -6076943.16056  22603201.4824   22603200.8734
      2095.1764
  -2429149.77749  -1887414.41847  22751553.5844   22751554.7754
      -348.5374
 -11068543.16849  -8609132.46948  20321858.7794   20321857.3184
      2828.2124
  -9507450.87149  -8187488.36747  22106802.3034   22106801.4674
      4162.1224
   -179820.01249   -139962.96948  20350521.2954   20350519.4754
      -821.0674
 -10128166.38349  -7878793.60247  21889954.6624   21889952.2014
      2071.1804
   6365941.67649   4948172.77346  23313541.0764   23313540.0764
     -2272.5264
  -6848328.37949  -5328069.46548  20034257.8574   20034256.3614
      1649.2894
 04  9 14 21 54 59.9980000  0  8G10G 3G 8G28G13G19G23G27
   -203118.15648  -6101321.03146  22597247.5614   22597247.6154
      2085.6764
  -2423792.13349  -1883239.65647  22752573.3574   22752574.3034
      -357.1764
 -11110912.50049  -8642147.53148  20313796.0684   20313794.7444
      2824.6224
  -9569817.72349  -8236085.88347  22094934.3034   22094933.9474
      4157.7904
   -167394.98049   -130281.13747  20352886.1394   20352883.9794
      -828.3354
 -10159101.73449  -7902899.05947  21884068.4284   21884065.1474
      2062.3574
   6400069.71949   4974765.98046  23320035.2794   23320034.4364
     -2275.2034
  -6873021.04349  -5347310.51648  20029559.2484   20029557.7684
      1646.1784
 04  9 14 21 55 14.9980000  0  8G10G 3G 8G28G13G19G23G27
   -234259.54359  -6125587.19956  22591321.4284   22591320.9124
      2076.1754
  -2418303.93049  -1878963.16047  22753617.8574   22753618.1474
      -365.8804
 -11153226.86349  -8675119.75048  20305743.5924   20305742.5294
      2820.9584
  -9632118.27349  -8284631.73447  22083078.8344   22083078.3654
      4153.3704
   -154859.82849   -120513.50447  20355271.3344   20355269.1314
      -835.6774
 -10189903.40649  -7926900.35547  21878206.9984   21878203.8384
      2053.4454
   6434238.83649   5001391.18447  23326537.8734   23326536.9004
     -2277.9414
  -6897665.71949  -5366514.15648  20024869.3264   20024868.0764
      1642.9784
 04  9 14 21 55 29.9980000  0  8G10G 3G 8G28G13G19G23G27
   -265258.08258  -6149741.82456  22585422.6784   22585421.6664
      2066.6744
  -2412686.16849  -1874585.69947  22754686.7174   22754687.1824
      -374.5174
 -11195486.85549  -8708049.60248  20297701.7644   20297700.8614
      2817.3334
  -9694353.12949  -8333126.40647  22071235.8574   22071234.9634
      4148.9904
   -142215.52749   -110660.82447  20357677.3734   20357675.5534
      -842.9534
 -10220572.08649  -7950798.03147  21872370.7484   21872367.8574
      2044.5794
   6468447.93049   5028047.53146  23333048.4364   23333046.9984
     -2280.6064
  -6922263.25049  -5385681.07048  20020188.7644   20020187.4794
      1639.8354
 04  9 14 21 55 44.9980000  0  8G10G 3G 8G28G13G19G23G27
   -296114.46159  -6173785.86756  22579551.4364   22579549.8074
      2057.1744
  -2406939.79749  -1870108.02747  22755780.3894   22755780.5494
      -383.0914
 -11237693.21549  -8740937.67648  20289670.6624   20289669.0764
      2813.7574
  -9756522.97749  -8381570.41047  22059405.6394   22059404.5494
      4144.6574
   -129463.10249   -100723.88747  20360104.2174   20360102.2404
      -850.1624
 -10251108.40249  -7974592.54747  21866559.9124   21866557.5764
      2035.7544
   6502696.01649   5054734.28147  23339565.2724   23339564.1974
     -2283.2064
  -6946814.34849  -5404811.80148  20015516.9984   20015515.3614
      1636.7404
 04  9 14 21 55 59.9980000  0  8G10G 3G 8G28G13G19G23G27
   -326828.53549  -6197718.91846  22573706.8734   22573705.1664
      2047.6054
  -2401065.07449  -1865530.34446  22756898.7564   22756898.5414
      -391.6484
 -11279845.87149  -8773783.89548  20281649.0534   20281647.9124
      2810.1774
  -9818627.60249  -8429963.59847  22047587.2564   22047586.2444
      4140.3084
   -116602.65649    -90702.78147  20362551.3504   20362549.3854
      -857.3634
 -10281512.09049  -7998283.73047  21860774.1864   21860771.5254
      2026.9124
   6536983.00449   5081451.32847  23346089.7644   23346088.6584
     -2285.7994
  -6971318.97349  -5423906.32048  20010853.9434   20010852.1704
      1633.6424
 04  9 14 21 56 14.9980000  0  7G10G 3G 8G28G13G19G27
   -357400.41449  -6221541.16846  22567889.9434   22567887.9084
      2038.1254
  -2395062.25049  -1860852.83247  22758040.6864   22758041.0294
      -400.1884
 -11321945.08649  -8806588.47748  20273638.0454   20273636.7404
      2806.6144
  -9880666.98449  -8478305.95747  22035781.8814   22035780.4044
      4135.9594
   -103634.18049    -80597.48847  20365019.1624   20365017.4324
      -864.5654
 -10311783.14549  -8021871.55947  21855014.2014   21855011.3304
      2018.0704
  -6995777.18049  -5442964.66448  20006199.5924   20006198.0254
      1630.5474
 04  9 14 21 56 29.9980000  0  7G10G 3G 8G28G13G19G27
   -387828.56649  -6245251.38346  22562099.2724   22562098.1394
      2028.5434
  -2388930.15649  -1856074.60246  22759207.6394   22759207.7954
      -408.8064
 -11363989.44949  -8839350.30548  20265637.1074   20265636.0334
      2802.9584
  -9942639.49649  -8526596.19947  22023988.6624   22023987.5374
      4131.5014
    -90556.50849    -70407.10947  20367507.9124   20367506.2914
      -871.8454
 -10341920.11349  -8045354.91447  21849279.0064   21849276.3034
      2009.1314
  -7020187.52749  -5461985.72348  20001554.1934   20001552.8344
      1627.3574
 04  9 14 21 56 44.9970000  0  7G10G 3G 8G28G13G19G27
   -418113.48059  -6268850.02056  22556336.3684   22556335.6694
      2018.9624
  -2382671.71549  -1851197.91846  22760398.5324   22760398.9544
      -417.2294
 -11405978.24249  -8872068.84448  20257646.7284   20257645.7244
      2799.2534
 -10004543.39849  -8574832.97747  22012208.4544   22012206.6534
      4126.9274
    -77373.05549    -60134.30147  20370016.3064   20370014.8454
      -878.8974
 -10371923.12149  -8068733.87147  21843569.4314   21843566.8764
      2000.2014
  -7044550.78149  -5480970.07048  19996918.1574   19996916.7554
      1624.2174
 04  9 14 21 56 59.9970000  0  7G10G 3G 8G28G13G19G27
   -448255.77749  -6292337.49246  22550599.7124   22550600.0794
      2009.4864
  -2376283.20349  -1846219.86747  22761613.9464   22761614.5634
      -425.9014
 -11447913.94549  -8904746.00448  20249666.6734   20249665.5174
      2795.7144
 -10066383.56649  -8623020.09447  22000440.6884   22000439.4074
      4122.6784
    -64079.06249    -49775.36747  20372546.1574   20372544.8454
      -886.2664
 -10401792.80949  -8092008.94147  21837885.6654   21837882.8724
      1991.3134
  -7068866.92649  -5499917.71948  19992290.8604   19992289.3644
      1621.0764
 04  9 14 21 57 14.9970000  0  7G10G 3G 8G28G13G19G27
   -478253.22348  -6315712.14146  22544891.3764   22544892.2354
      1999.8304
  -2369764.94149  -1841140.73446  22762854.6344   22762855.0324
      -434.5514
 -11489793.41449  -8937379.34448  20241697.1264   20241695.8604
      2791.9654
 -10128155.30149  -8671153.89547  21988685.4934   21988684.0174
      4118.1164
    -50675.30949    -39330.90248  20375096.6574   20375095.3294
      -893.5844
 -10431526.78149  -8115178.26647  21832227.3214   21832224.5564
      1982.2654
  -7093133.94549  -5518827.08648  19987672.9464   19987671.5014
      1617.8014
 04  9 14 21 57 29.9970000  0  7G10G 3G 8G28G13G19G27
   -508105.79349  -6338973.84846  22539211.1344   22539210.9624
      1990.1714
  -2363117.03549  -1835960.55546  22764119.5244   22764120.3064
      -443.1944
 -11531616.80549  -8969969.00048  20233738.4784   20233737.3174
      2788.2264
 -10189858.64549  -8719234.39547  21976944.1494   21976942.8214
      4113.5564
    -37161.82049    -28800.93447  20377668.4074   20377666.6384
      -900.8994
 -10461124.86749  -8138241.70347  21826595.2674   21826592.5794
      1973.2064
  -7117351.93049  -5537698.25448  19983064.8064   19983063.2864
      1614.5324
 04  9 14 21 57 44.9970000  0  7G10G 3G 8G28G13G19G27
   -537810.78948  -6362120.58246  22533557.9154   22533558.0524
      1980.3334
  -2356337.27749  -1830677.64547  22765410.1574   22765410.3684
      -451.9844
 -11573381.36349  -9002512.79748  20225790.7044   20225789.7164
      2784.3044
 -10251490.92249  -8767259.52047  21965216.2354   21965214.3414
      4108.8184
    -23536.19549    -18183.58647  20380261.0714   20380259.2784
      -908.3754
 -10490584.46549  -8161197.22747  21820988.9154   21820986.8104
      1963.9734
  -7141518.14149  -5556529.07448  19978465.8294   19978464.7244
      1611.0814
 04  9 14 21 57 59.9970000  0  7G10G 3G 8G28G13G19G27
   -567369.53149  -6385153.37946  22527933.0484   22527933.4784
      1970.5834
  -2349427.39849  -1825293.34447  22766725.0324   22766725.7204
      -460.6594
 -11615088.38349  -9035011.78148  20217854.1654   20217853.5014
      2780.4684
 -10313053.39149  -8815230.24647  21953500.9234   21953499.8964
      4104.1654
     -9800.02749     -7480.09847  20382875.1034   20382873.4464
      -915.7454
 -10519906.79749  -8184045.78947  21815409.2204   21815406.9354
      1954.8224
  -7165634.14849  -5575320.76648  19973876.8214   19973875.7594
      1607.7344
 04  9 14 21 58 14.9970000  0  7G10G 3G 8G28G13G19G27
   -596784.69949  -6408074.22746  22522336.0404   22522335.5324
      1961.0114
  -2342389.98449  -1819809.66047  22768064.1034   22768064.4784
      -469.1614
 -11656740.20749  -9067467.74248  20209928.4934   20209927.2714
      2776.7884
 -10374548.21549  -8863148.27047  21941798.4784   21941797.7474
      4099.6554
      4044.02749      3307.45747  20385509.6574   20385507.8134
      -922.9374
 -10549094.05149  -8206789.10247  21809855.2434   21809852.4194
      1945.8174
  -7189702.03549  -5594074.96148  19969296.7984   19969295.3994
      1604.5264
 04  9 14 21 58 29.9970000  0  7G10G 3G 8G28G13G19G27
   -626054.83249  -6430882.17246  22516766.2284   22516765.2944
      1951.3424
  -2335224.17649  -1814225.93447  22769428.1964   22769428.1034
      -477.7214
 -11698335.76649  -9099879.85248  20202012.8064   20202011.8374
      2773.0374
 -10435974.30949  -8911012.72747  21930109.9934   21930108.6614
      4095.0734
     17996.96549     14179.86347  20388164.8134   20388163.2124
      -930.1964
 -10578145.11749  -8229426.29347  21804326.6574   21804324.3024
      1936.7384
  -7213721.00049  -5612791.04348  19964726.4154   19964724.6734
      1601.2644
 04  9 14 21 58 44.9970000  0  7G10G 3G 8G28G13G19G27
   -655178.15649  -6453575.68446  22511224.2674   22511223.1574
      1941.5554
  -2327928.21149  -1808540.79346  22770816.0634   22770816.4744
      -486.3984
 -11739873.07449  -9132246.57848  20194108.6964   20194107.4544
      2769.1544
 -10497329.55949  -8958822.00047  21918433.9234   21918432.9544
      4090.3504
     32060.48049     25138.42647  20390841.2904   20390839.6494
      -937.5684
 -10607057.85949  -8251955.69947  21798825.0014   21798822.4074
      1927.5164
  -7237688.97349  -5631467.39548  19960165.2434   19960163.7554
      1597.8654
 04  9 14 21 58 59.9970000  0  7G10G 3G 8G28G13G19G27
   -684157.42249  -6476156.87546  22505709.5874   22505707.4424
      1931.9514
  -2320504.82849  -1802756.33246  22772229.0794   22772229.1464
      -494.8924
 -11781354.52749  -9164569.77748  20186214.7284   20186213.8024
      2765.4304
 -10558616.53549  -9006578.05947  21906771.5324   21906770.4424
      4085.7984
     46231.95749     36181.11347  20393537.8994   20393536.7904
      -944.7654
 -10635834.77349  -8274379.26247  21793348.7284   21793346.2594
      1918.4614
  -7261608.41849  -5650105.92648  19955613.4784   19955612.1574
      1594.6304
 04  9 14 21 59 14.9970000  0  7G10G 3G 8G28G13G19G27
   -712992.45749  -6498625.77346  22500222.4154   22500220.5444
      1922.3364
  -2312954.75049  -1796873.19547  22773665.8064   22773666.0324
      -503.3394
 -11822780.89149  -9196850.05548  20178331.7984   20178330.9234
      2761.7584
 -10619835.55149  -9054281.16047  21895121.9704   21895121.1184
      4081.2684
     60510.55949     47307.27747  20396255.0174   20396253.5524
      -951.9074
 -10664476.30149  -8296697.32447  21787898.6654   21787895.9704
      1909.4354
  -7285479.88349  -5668707.06648  19951071.1814   19951069.7124
      1591.4314
 04  9 14 21 59 29.9970000  0  7G10G 3G 8G28G13G19G27
   -741683.51248  -6520982.40246  22494762.2514   22494761.2354
      1912.7374
  -2305277.71549  -1790891.08246  22775126.5014   22775126.2824
      -511.8024
 -11864151.61349  -9229086.97748  20170458.9854   20170458.1494
      2758.0484
 -10680985.90649  -9101930.76647  21883485.3374   21883484.3334
      4076.6904
     74896.71949     58517.25447  20398992.6574   20398991.1184
      -959.0774
 -10692981.85949  -8318909.43747  21782474.1654   21782471.2354
      1900.3714
  -7309302.85249  -5687270.42248  19946537.8134   19946536.1184
      1588.1984
 04  9 14 21 59 44.9970000  0  7G10G 3G 8G28G13G19G27
   -770230.58649  -6543226.84846  22489330.1574   22489329.3414
      1903.1384
  -2297474.21549  -1784810.44947  22776611.8454   22776611.8454
      -520.2334
 -11905466.69949  -9261280.54748  20162597.1104   20162596.3414
      2754.3394
 -10742067.61749  -9149526.87147  21871861.6034   21871861.7314
      4072.1144
     89390.19949     69810.85547  20401750.8454   20401748.5524
      -966.2324
 -10721351.35249  -8341015.53547  21777075.7124   21777072.7824
      1891.2994
  -7333077.30549  -5705795.96548  19942013.2824   19942011.8254
      1584.9644
 04  9 14 21 59 59.9970000  0  7G10G 3G 8G28G13G19G27
   -798629.96949  -6565356.29346  22483925.9784   22483925.3724
      1893.2924
  -2289541.29749  -1778628.97746  22778120.7594   22778120.6964
      -528.8614
 -11946722.77349  -9293428.12148  20154746.0484   20154745.0794
      2750.4054
 -10803077.46949  -9197066.99647  21860251.8214   21860251.4234
      4067.3234
    103993.98849     81190.41047  20404529.3844   20404527.7434
      -973.5864
 -10749581.49649  -8363013.03947  21771703.5794   21771700.8804
      1882.0104
  -7356800.24249  -5724281.37548  19937498.7594   19937497.3884
      1581.5294
 04  9 14 22  0 14.9970000  0  7G10G 3G 8G28G13G19G27
   -826882.96549  -6587371.59846  22478549.7284   22478549.2514
      1883.5334
  -2281479.66849  -1772347.18746  22779655.6184   22779655.4074
      -537.4424
 -11987920.50449  -9325530.24248  20146906.4464   20146905.4114
      2746.5154
 -10864015.85949  -9244551.43447  21848656.3064   21848655.2784
      4062.5594
    118707.29749     92655.30547  20407329.6654   20407327.9074
      -980.8874
 -10777672.72349  -8384902.29747  21766358.1814   21766355.3334
      1872.7484
  -7380472.03149  -5742726.93748  19932994.7284   19932992.8644
      1578.1194
 04  9 14 22  0 29.9970000  0  7G10G 3G 8G28G13G19G27
   -854991.02349  -6609274.04346  22473200.7904   22473199.6034
      1873.8714
  -2273291.82449  -1765967.05146  22781212.5564   22781213.1574
      -545.8564
 -12029062.15249  -9357588.66048  20139077.6574   20139076.2984
      2742.7774
 -10924884.91849  -9291981.86347  21837072.7434   21837071.4424
      4057.9374
    133527.76249    104203.69947  20410149.9314   20410148.1424
      -988.0314
 -10805627.09049  -8406684.91447  21761038.5484   21761036.2984
      1863.6244
  -7404094.93049  -5761134.38748  19928499.3844   19928497.8884
      1574.8604
 04  9 14 22  0 44.9970000  0  7G10G 3G 8G28G13G19G27
   -882954.01249  -6631063.30146  22467879.7824   22467878.2244
      1864.1994
  -2264977.44149  -1759488.35946  22782795.4314   22782795.7434
      -554.2924
 -12070146.99249  -9389602.82048  20131259.3764   20131258.4784
      2738.9894
 -10985684.01649  -9339357.75047  21825503.1424   21825502.4784
      4053.2734
    148455.64549    115835.79347  20412990.3844   20412989.0604
      -995.1924
 -10833444.05949  -8428360.46947  21755745.1264   21755742.6534
      1854.4654
  -7427668.28949  -5779503.24248  19924013.3844   19924011.9624
      1571.5574
 04  9 14 22  0 59.9970000  0  7G10G 3G 8G28G13G19G27
   -910768.66449  -6652737.13746  22462587.1964   22462585.0094
      1854.3104
  -2256533.46149  -1752908.63346  22784402.2514   22784402.0054
      -562.9324
 -12111171.84449  -9421570.23848  20123452.6344   20123451.9464
      2734.9904
 -11046409.66849  -9386676.42647  21813946.9544   21813946.0714
      4048.3774
    163494.28149    127554.19947  20415852.6424   20415850.7714
     -1002.5764
 -10861120.12949  -8449926.22747  21750478.0564   21750475.9624
      1845.0714
  -7451188.85549  -5797830.94948  19919537.4624   19919535.6224
      1568.0384
 04  9 14 22  1 14.9970000  0  7G10G 3G 8G28G13G19G27
   -938438.34449  -6674298.00446  22457321.1184   22457319.6184
      1844.6454
  -2247963.58249  -1746230.81246  22786032.7284   22786033.1774
      -571.3254
 -12152139.92249  -9453493.41048  20115656.4464   20115655.6884
      2731.2054
 -11107065.27049  -9433940.49647  21802405.1104   21802403.4854
      4043.7074
    178639.96149    139356.00847  20418734.3294   20418732.8884
     -1009.7124
 -10888658.60549  -8471384.78147  21745238.1034   21745235.6614
      1835.8984
  -7474660.00849  -5816120.16848  19915071.2204   19915069.0284
      1564.7434
 04  9 14 22  1 29.9970000  0  7G10G 3G 8G28G13G19G27
   -965961.84449  -6695744.80546  22452084.1344   22452082.4114
      1834.9004
  -2239267.22349  -1739454.44546  22787687.9074   22787687.6924
      -579.7574
 -12193050.33649  -9485371.65248  20107871.7514   20107870.7594
      2727.3614
 -11167649.53549  -9481148.99247  21790876.5794   21790874.7904
      4038.9514
    193893.45749    151241.82847  20421637.1104   20421635.3294
     -1016.9004
 -10916058.40649  -8492735.26647  21740023.7284   21740021.5994
      1826.6534
  -7498080.83249  -5834370.15648  19910614.3294   19910612.9544
      1561.3884
 04  9 14 22  1 44.9970000  0  7G10G 3G 8G28G13G19G27
   -993342.50419                  22446873.032
      1825.155
  -2230447.60949  -1732582.05146  22789366.4854   22789366.4354
      -587.9744
 -12233906.30549  -9517207.45748  20100096.9384   20100095.9704
      2723.7314
 -11228165.66049  -9528304.37547  21779360.6104   21779358.2514
      4034.4084
    209251.45349    163209.07847  20424559.7904   20424558.4544
     -1023.8664
 -10943322.61349  -8513980.09447  21734835.8844   21734833.0874
      1817.6144
  -7521454.23449  -5852583.19148  19906166.4384   19906164.9894
      1558.2274
 04  9 14 22  1 59.9970000  0  7G10G 3G 8G28G13G19G27
  -1020577.031 9                  22441691.267
      1815.635
  -2221501.71949  -1725611.22746  22791069.0404   22791068.5954
      -596.3934
 -12274704.41049  -9548998.18748  20092333.4544   20092332.0214
      2719.8744
 -11288610.12949  -9575403.93047  21767858.6734   21767856.1774
      4029.6314
    224717.14849    175260.24647  20427502.6494   20427501.1854
     -1031.0464
 -10970447.86749  -8535116.65247  21729673.7434   21729671.3294
      1808.3504
  -7544776.96949  -5870756.75448  19901728.5714   19901726.9664
      1554.8494
 04  9 14 22  2 14.9970000  0  6G 3G 8G28G13G19G27
  -2212428.68749  -1718541.35246  22792795.7984   22792795.2674
      -604.8694
 -12315443.43449  -9580742.87948  20084581.1184   20084579.7204
      2715.9354
 -11348981.87549  -9622446.81647  21756370.0634   21756367.9354
      4024.7834
    240291.27349    187395.90647  20430466.6104   20430464.8254
     -1038.2754
 -10997433.05549  -8556144.07047  21724539.1184   21724535.9934
      1799.0134
  -7568048.09849  -5888890.10548  19897299.8604   19897298.0404
      1551.4094
 04  9 14 22  2 29.9970000  0  6G 3G 8G28G13G19G27
  -2203232.39849  -1711375.41046  22794544.9314   22794545.1774
      -613.0864
 -12356127.16849  -9612444.47748  20076839.1424   20076838.2554
      2712.2494
 -11409284.49649  -9669435.84447  21744894.9314   21744892.3064
      4020.1754
    255970.17249    199613.21547  20433450.1814   20433448.2124
     -1045.2604
 -11024281.57449  -8577064.98447  21719429.9854   21719426.8414
      1789.9014
  -7591271.02749  -5906985.90248  19892880.9784   19892879.0994
      1548.1954
 04  9 14 22  2 44.9970000  0  7G10G 3G 8G28G13G19G27
    -30382.87118                  22426309.243

  -2193911.41049  -1704112.33247  22796319.1734   22796319.6224
      -621.3994
 -12396753.66449  -9644101.47748  20069108.0714   20069107.2714
      2708.4334
 -11469516.04749  -9716369.49247  21733433.0174   21733430.8334
      4015.4374
    271755.34049    211913.31347  20436453.9314   20436451.9074
     -1052.3454
 -11050991.60949  -8597877.98847  21714346.9704   21714344.0994
      1780.6694
  -7614444.11749  -5925042.84848  19888471.4704   19888470.0444
      1544.8734
 04  9 14 22  2 59.9970000  0  7G10G 3G 8G28G13G19G27
    -57034.53518                  22421239.517

  -2184465.31249  -1696751.73046  22798116.2594   22798117.4744
      -629.7404
 -12437322.27049  -9675713.37548  20061388.5714   20061387.0834
      2704.5744
 -11529675.79349  -9763247.19547  21721985.0564   21721983.3994
      4010.6504
    287647.23049    224296.58647  20439477.9624   20439476.1344
     -1059.4594
 -11077562.41849  -8618582.52047  21709290.6034   21709287.9624
      1771.3874
  -7637566.64849  -5943060.41048  19884071.2354   19884069.3684
      1541.5024
 04  9 14 22  3 14.9970000  0  7G10G 3G 8G28G13G19G27
    -83543.07018                  22416192.290

  -2174895.99649  -1689295.15246  22799937.4704   22799937.9194
      -637.9544
 -12477834.45749  -9707281.30948  20053679.5634   20053677.4974
      2700.8134
 -11589765.11349  -9810070.00447  21710550.7514   21710548.5014
      4005.9554
    303644.08249    236761.64547  20442522.2044   20442520.2784
     -1066.4574
 -11103995.48449  -8639179.70747  21704261.0404   21704257.9664
      1762.2044
  -7660640.11349  -5961039.72748  19879680.6424   19879678.8104
      1538.2314
 04  9 14 22  3 29.9970000  0  7G10G 3G 8G28G13G19G27
                                  22411176.478

  -2165204.01249  -1681742.97346  22801781.1884   22801781.9894
      -646.1324
 -12518290.86749  -9738805.77748  20045980.6654   20045979.0994
      2697.0944
 -11649784.36749  -9856838.23447  21699129.3764   21699127.9034
      4001.2844
    319745.35549    249308.06347  20445585.8764   20445584.5094
     -1073.4184
 -11130291.14849  -8659669.82847  21699256.5794   21699253.9624
      1753.0444
  -7683664.97749  -5978981.18748  19875298.9074   19875297.5054
      1534.9914
 04  9 14 22  3 44.9970000  0  7G10G 3G 8G28G13G19G27
   -136128.281 8                  22406186.548
      1747.985
  -2155389.02049  -1674094.94546  22803649.7674   22803649.7864
      -654.3334
 -12558690.60549  -9770286.07448  20038292.6574   20038291.4974
      2693.3164
 -11709732.74649  -9903551.22747  21687721.8684   21687720.1464
      3996.5594
    335951.57049    261936.27047  20448669.8604   20448668.1144
     -1080.4144
 -11156448.66049  -8680052.30547  21694279.0014   21694276.4854
      1743.8344
  -7706640.40249  -5996884.11348  19870926.6734   19870924.8924
      1531.6954
 04  9 14 22  3 59.9970000  0  7G10G 3G 8G28G13G19G27
   -162203.676 8                  22401224.946
      1738.360
  -2145451.66849  -1666351.55946  22805540.3684   22805540.9314
      -662.4904
 -12599033.98449  -9801722.46948  20030615.6184   20030614.9074
      2689.5594
 -11769610.48049  -9950209.18447  21676327.3134   21676325.8454
      3991.8494
    352262.19149    274645.82447  20451773.8534   20451772.0914
     -1087.3754
 -11182468.11749  -8700327.20747  21689328.1264   21689325.2714
      1734.6304
  -7729566.76249  -6014748.81248  19866564.1104   19866562.6734
      1528.4244
 04  9 14 22  4 14.9970000  0  7G10G 3G 8G28G13G19G27
   -188135.711 8                  22396290.970
      1728.802
  -2135392.78949  -1658513.50047  22807454.6654   22807454.6964
      -670.5924
 -12639321.64549  -9833115.44948  20022949.1344   20022948.0604
      2685.8444
 -11829418.25049  -9996812.60547  21664946.1034   21664944.9154
      3987.1854
    368676.24649    287435.96947  20454897.5324   20454895.3534
     -1094.2704
 -11208350.36749  -8720495.19147  21684403.2124   21684400.2124
      1725.4834
  -7752444.87949  -6032575.91448  19862210.4854   19862209.1964
      1525.2084
 04  9 14 22  4 29.9970000  0  7G10G 3G 8G28G13G19G27
   -213923.426 8                  22391383.188
      1719.181
  -2125211.78149  -1650580.25846  22809391.7044   22809392.4894
      -678.7344
 -12679552.65649  -9864464.28148  20015293.3604   20015292.4034
      2682.0674
 -11889154.99649 -10043360.68747  21653578.2354   21653577.6774
      3982.4504
    385194.43449    300307.26647  20458040.5404   20458038.8994
     -1101.2124
 -11234094.37949  -8740555.44547  21679503.9934   21679501.3064
      1716.2674
  -7775273.69949  -6050364.60548  19857866.2434   19857864.9034
      1521.9214
 04  9 14 22  4 44.9970000  0  7G10G 3G 8G28G13G19G27
   -239567.309 9                  22386504.220
      1709.592
  -2114909.58649  -1642552.60246  22811352.3684   22811353.0524
      -686.8134
 -12719727.95349  -9895769.70348  20007648.0484   20007647.2944
      2678.3534
 -11948821.31249 -10089853.90647  21642224.2984   21642223.1614
      3977.7544
    401815.98049    313259.09847  20461203.4464   20461201.8454
     -1108.1034
 -11259700.66849  -8760508.39847  21674630.8134   21674628.3134
      1707.0864
  -7798053.88749  -6068115.39148  19853531.4784   19853529.9274
      1518.6794
 04  9 14 22  4 59.9970000  0  7G10G 3G 8G28G13G19G27
   -265068.38719                  22381651.204
      1700.003
  -2104487.09449  -1634431.19146  22813335.5714   22813336.1884
      -694.8334
 -12759847.61349  -9927031.77348  20000014.0324   20000012.4354
      2674.6444
 -12008417.55149 -10136292.52047  21630883.8294   21630882.4974
      3973.0834
    418540.09849    326290.85947  20464386.1264   20464384.7434
     -1114.9414
 -11285169.71949  -8780354.40247  21669784.4934   21669781.9504
      1697.9374
  -7820785.95349  -6085828.69548  19849205.6034   19849203.9544
      1515.4714
 04  9 14 22  5 14.9970000  0  7G10G 3G 8G28G13G19G27
   -290424.637 9                  22376825.618
      1690.417
  -2093942.96949  -1626215.00046  22815342.1344   22815342.9624
      -702.9424
 -12799910.19149  -9958249.36748  19992390.0014   19992388.5914
      2670.8394
 -12067942.14849 -10182675.30147  21619556.1264   21619555.4934
      3968.3074
    435368.16849    339403.62547  20467588.5244   20467587.0134
     -1121.8714
 -11310499.87549  -8800092.19547  21664964.2284   21664961.6614
      1688.6774
  -7843468.19549  -6103503.17248  19844889.3534   19844888.0094
      1512.1494
 04  9 14 22  5 29.9970000  0  7G10G 3G 8G28G13G19G27
   -315636.266 8                  22372028.118
      1680.775
  -2083277.52749  -1617904.27746  22817372.2124   22817372.6034
      -711.0294
 -12839915.80149  -9989422.56648  19984777.3684   19984775.8334
      2667.0414
 -12127395.06649 -10229002.21547  21608242.6494   21608242.0604
      3963.5284
    452299.87149    352597.12947  20470810.2904   20470808.8804
     -1128.7804
 -11335691.13749  -8819721.73047  21660170.3064   21660167.7864
      1679.4174
  -7866100.82049  -6121138.97748  19840582.5094   19840580.7824
      1508.8424
 04  9 14 22  5 44.9970000  0  7G10G 3G 8G28G13G19G27
   -340703.45748  -7015657.84456  22367257.2744   22367255.7554
      1671.1464
  -2072490.74649  -1609499.01247  22819424.1884   22819425.0174
      -719.1194
 -12879864.26249 -10020551.23048  19977175.2594   19977173.7554
      2663.2314
 -12186775.99649 -10275273.05547  21596942.9074   21596941.7594
      3958.7294
    469335.16449    365871.36347  20474051.9154   20474050.5714
     -1135.6864
 -11360743.25449  -8839242.86347  21655403.2744   21655400.7204
      1670.1414
  -7888683.63349  -6138735.97748  19836285.1964   19836283.9194
      1505.5214
 04  9 14 22  5 59.9970000  0  7G10G 3G 8G28G13G19G27
   -365628.06249  -7035079.66846  22362514.3454   22362512.8374
      1661.6404
  -2061585.17649  -1601001.15246  22821499.6104   22821500.0014
      -727.0384
 -12919757.54749 -10051636.90248  19969584.0564   19969582.7314
      2659.5524
 -12246086.85249 -10321489.28147  21585656.3294   21585655.2984
      3954.0574
    486471.78949    379224.54747  20477313.5714   20477311.2124
     -1142.4424
 -11385658.24249  -8858657.13347  21650662.3374   21650659.1964
      1660.9994
  -7911218.64149  -6156295.72748  19831996.5564   19831995.6614
      1502.3344
 04  9 14 22  6 14.9970000  0  7G10G 3G 8G28G13G19G27
   -390409.26249  -7054389.77046  22357798.4464   22357797.4784
      1652.0804
  -2050560.21949  -1592410.30546  22823598.1654   22823598.2474
      -734.9974
 -12959594.68449 -10082678.81648  19962003.3604   19962001.6964
      2655.8094
 -12305326.98049 -10367650.39147  21574383.7514   21574382.3604
      3949.3424
    503710.48449    392657.27747  20480593.4234   20480592.3764
     -1149.2464
 -11410435.18749  -8877963.83247  21645947.3214   21645944.2434
      1651.7964
  -7933704.96149  -6173817.52748  19827718.0324   19827716.1494
      1499.0884
 04  9 14 22  6 29.9970000  0  7G10G 3G 8G28G13G19G27
   -415047.46549  -7073588.23446  22353110.2744   22353109.5284
      1642.5474
  -2039416.29349  -1583726.73046  22825718.3844   22825719.2434
      -742.9284
 -12999376.23849 -10113677.42648  19954432.9464   19954431.8104
      2652.1044
 -12364496.42249 -10413756.42247  21563123.5094   21563122.3174
      3944.6294
    521050.60249    406169.02747  20483893.5714   20483891.8134
     -1156.0084
 -11435074.34049  -8897163.17247  21641258.5094   21641256.1384
      1642.6104
  -7956142.88749  -6191301.63348  19823448.0094   19823446.8454
      1495.8624
 04  9 14 22  6 44.9970000  0  7G10G 3G 8G28G13G19G27
   -439542.93749  -7092675.55546  22348448.5174   22348447.9034
      1633.0324
  -2028154.15649  -1574951.06646  22827861.5404   22827862.4784
      -750.8094
 -13039102.47349 -10144632.93048  19946873.4854   19946872.1384
      2648.4164
 -12423595.41049 -10459807.56647  21551877.3604   21551876.2434
      3939.9334
    538491.70349    419759.48447  20487212.2824   20487210.8294
     -1162.7404
 -11459575.96149  -8916255.34447  21636595.7044   21636593.6614
      1633.4414
  -7978532.71549  -6208748.25848  19819187.4384   19819186.1964
      1492.6554
 04  9 14 22  6 59.9970000  0  7G10G 3G 8G28G13G19G27
   -463893.23848  -7111649.78546  22343815.2284   22343813.3104
      1623.3534
  -2016771.43749  -1566081.41847  22830027.8294   22830028.2864
      -758.8484
 -13078770.58249 -10175543.14148  19939325.0484   19939323.3844
      2644.5414
 -12482621.30149 -10505801.74247  21540645.2044   21540643.9544
      3935.0594
    556036.18449    433430.47747  20490551.2984   20490549.5364
     -1169.6324
 -11483937.41049  -8935238.28147  21631959.7594   21631957.4814
      1624.0974
  -8000871.77349  -6226155.32448  19814936.4154   19814935.4354
      1489.2714
 04  9 14 22  7 14.9970000  0  7G10G 3G 8G28G13G19G27
   -488102.76257  -7130514.85956  22339209.3294   22339206.3994
      1613.6754
  -2005270.71149  -1557119.82047  22832215.5324   22832216.7634
      -766.7154
 -13118383.00849 -10206409.95748  19931786.4784   19931785.5404
      2640.8284
 -12541576.32049 -10551740.69147  21529426.5174   21529425.5714
      3930.3354
    573681.44949    447180.02047  20493908.9074   20493907.5244
     -1176.3514
 -11508160.95749  -8954113.76247  21627350.6884   21627348.1694
      1614.9034
  -8023162.52049  -6243524.73448  19810694.4314   19810693.4784
      1486.0504
 04  9 14 22  7 29.9970000  0  7G10G 3G 8G28G13G19G27
    -10892.52318                  22334629.329
      1603.997
  -1993653.34449  -1548067.34446  22834426.5874   22834427.3884
      -774.4914
 -13157940.65249 -10237234.09048  19924259.1734   19924257.6574
      2637.1764
 -12600461.26249 -10597625.03947  21518220.6964   21518219.2514
      3925.6634
    591426.32849    461007.16447  20497286.0564   20497284.4384
     -1182.9924
 -11532247.43049  -8972882.44147  21622766.2744   21622764.4194
      1605.7654
  -8045405.80149  -6260857.15648  19806461.6264   19806460.5014
      1482.8854
 04  9 14 22  7 44.9970000  0  6G 3G 8G28G13G19G27
  -1981916.81249  -1538922.01646  22836660.0954   22836660.6424
      -782.4354
 -13197440.52749 -10268013.21548  19916742.3604   19916741.0214
      2633.3254
 -12659273.36749 -10643452.62947  21507029.6344   21507028.4114
      3920.8074
    609273.38349    474913.93847  20500681.5564   20500680.4584
     -1189.8044
 -11556194.00449  -8991542.10247  21618210.0794   21618207.1064
      1596.4384
  -8067598.78549  -6278150.39548  19802238.3684   19802237.2284
      1479.5324
 04  9 14 22  7 59.9970000  0  7G10G 3G 8G28G13G19G27
    -17752.26218                  22325552.212

  -1970064.08649  -1529686.16446  22838915.2124   22838916.3374
      -790.1824
 -13236885.53949 -10298749.57448  19909235.8844   19909234.9424
      2629.6674
 -12718015.30949 -10689225.54347  21495851.3134   21495849.9974
      3916.1294
    627219.60949    488897.98847  20504096.9704   20504095.1924
     -1196.4154
 -11580003.48449  -9010094.94547  21613679.4704   21613676.7354
      1587.2994
  -8089744.29349  -6295406.63748  19798024.4154   19798022.8024
      1476.3674
 04  9 14 22  8 14.9970000  0  6G 3G 8G28G13G19G27
  -1958093.77349  -1520358.65646  22841193.6344   22841193.8374
      -798.0214
 -13276273.76249 -10329441.69148  19901740.6814   19901739.5324
      2625.8824
 -12776685.21549 -10734942.32847  21484687.3374   21484685.8724
      3911.3274
    645266.55549    502960.52047  20507531.0714   20507529.3684
     -1203.1304
 -11603674.08249  -9028539.56247  21609174.8604   21609172.1774
      1578.0404
  -8111840.50449  -6312624.46948  19793819.8294   19793818.4274
      1473.0814
 04  9 14 22  8 29.9970000  0  6G 3G 8G28G13G19G27
  -1946003.72749  -1510937.85247  22843494.4154   22843494.8334
      -806.0034
 -13315603.23849 -10360088.03148  19894256.4544   19894255.8494
      2621.9654
 -12835280.48449 -10780600.95347  21473536.5244   21473534.7944
      3906.3514
    663416.57849    517103.37947  20510984.8374   20510983.3964
     -1210.0024
 -11627203.30549  -9046874.02047  21604697.6884   21604694.8724
      1568.6154
  -8133885.01249  -6329802.00448  19789624.6654   19789623.3764
      1469.6344
 04  9 14 22  8 44.9970000  0  6G 3G 8G28G13G19G27
  -1933797.35549  -1501426.42646  22845817.3764   22845817.4664
      -813.7584
 -13354876.61749 -10390690.66048  19886783.1734   19886782.3884
      2618.2254
 -12893804.31249 -10826203.89847  21462400.2594   21462398.7044
      3901.5894
    681666.12149    531323.78147  20514457.9854   20514456.3104
     -1216.6364
 -11650594.14849  -9065100.64847  21600246.7984   21600243.6924
      1559.3904
  -8155880.92649  -6346941.68048  19785439.4544   19785437.8884
      1466.3944
 04  9 14 22  8 59.9970000  0  6G 3G 8G28G13G19G27
  -1921473.66449  -1491823.55947  22848162.8454   22848162.9464
      -821.5794
 -13394092.25449 -10421248.29348  19879320.9234   19879319.8134
      2614.3764
 -12952255.15249 -10871749.99647  21451276.9784   21451275.8804
      3896.7234
    700016.36749    545622.65647  20517949.3924   20517948.4424
     -1223.3504
 -11673845.14149  -9083218.30147  21595822.0714   21595819.1104
      1550.0664
  -8177826.79349  -6364042.34848  19781263.0634   19781261.8334
      1463.0584
 04  9 14 22  9 14.9970000  0  7G10G 3G 8G28G13G19G27
                                  22303338.110

  -1909030.77049  -1482127.80546  22850529.6494   22850530.2204
      -829.5264
 -13433248.58649 -10451759.70348  19871869.6964   19871868.5214
      2610.4224
 -13010630.90649 -10917237.57047  21440168.7354   21440166.8534
      3891.7174
    718469.24649    560001.49647  20521461.2904   20521459.8134
     -1230.1924
 -11696954.34849  -9101225.46547  21591424.1964   21591421.8024
      1540.6144
  -8199720.55949  -6381102.42648  19777097.0634   19777095.2594
      1459.5844
 04  9 14 22  9 29.9970000  0  6G 3G 8G28G13G19G27
  -1896472.37949  -1472342.07446  22852919.3684   22852920.2434
      -837.2264
 -13472348.76249 -10482227.37948  19864429.1654   19864427.9464
      2606.6784
 -13068934.92249 -10962669.24647  21429073.2434   21429071.7474
      3886.9344
    737021.19149    574457.54747  20524991.3134   20524990.1384
     -1236.7964
 -11719925.11349  -9119124.75447  21587053.0634   21587050.5674
      1531.3844
  -8221565.70349  -6398124.61748  19772939.7284   19772938.5324
      1456.3434
 04  9 14 22  9 44.9970000  0  6G 3G 8G28G13G19G27
  -1883794.19149  -1462462.99646  22855332.6734   22855332.8764
      -845.2124
 -13511388.17249 -10512647.68748  19857000.3684   19856998.5674
      2602.6274
 -13127162.43449 -11008041.31247  21417993.0324   21417991.4814
      3881.8344
    755676.61349    588994.21147  20528541.5874   20528540.2394
     -1243.6954
 -11742752.62949  -9136912.42647  21582709.5564   21582706.6654
      1521.8344
  -8243357.44949  -6415105.19148  19768793.0094   19768792.0244
      1452.7834
 04  9 14 22  9 59.9970000  0  6G 3G 8G28G13G19G27
  -1870998.50449  -1452492.33647  22857767.2904   22857767.8684
      -853.0464
 -13550368.94149 -10543022.29748  19849582.4234   19849581.0054
      2598.7184
 -13185315.42249 -11053355.28547  21406926.8294   21406925.4354
      3876.8664
    774433.13749    603609.66047  20532110.8844   20532109.2714
     -1250.4354
 -11765438.94549  -9154590.06647  21578392.3994   21578389.6344
      1512.4214
  -8265097.77349  -6432045.70348  19764656.0174   19764654.3134
      1449.3554
 04  9 14 22 10 14.9970000  0  6G 3G 8G28G13G19G27
  -1858083.58649  -1442428.77746  22860224.6964   22860225.9814
      -860.9954
 -13589289.00849 -10573349.62148  19842176.3844   19842174.7714
      2594.6714
 -13243391.78549 -11098609.57047  21395875.6104   21395873.2044
      3871.7584
    793292.66449    618305.38347  20535699.5564   20535698.0404
     -1257.3024
 -11787982.05149  -9172156.12147  21574102.3924   21574099.8414
      1502.8744
  -8286784.68049  -6448944.59848  19760528.7284   19760527.8064
      1445.7944
 04  9 14 22 10 29.9970000  0  6G 3G 8G28G13G19G27
  -1845052.32049  -1432274.57846  22862705.3534   22862705.6424
      -868.7514
 -13628150.78149 -10603631.50848  19834781.2744   19834779.6304
      2590.7854
 -13301394.11349 -11143806.17247  21384838.1654   21384835.5914
      3866.8224
    812252.29349    633079.09847  20539307.2354   20539306.2744
     -1263.9754
 -11810384.43749  -9189612.53147  21569839.3134   21569837.0094
      1493.4924
  -8308420.69949  -6465803.82848  19756412.0094   19756410.2554
      1442.4014
 04  9 14 22 10 44.9970000  0  7G10G 3G 8G28G13G19G27
    -12412.19919                  22277590.743

  -1831906.39549  -1422031.03146  22865206.9074   22865207.4384
      -876.3954
 -13666955.62149 -10633869.03948  19827396.8844   19827395.4814
      2586.9894
 -13359323.54349 -11188945.94147  21373814.1964   21373812.0324
      3861.9624
    831310.59049    647929.69147  20542934.1814   20542932.9114
     -1270.5534
 -11832647.39149  -9206960.27747  21565602.7594   21565600.6304
      1484.1974
  -8330007.22749  -6482624.49648  19752304.0874   19752302.5754
      1439.1024
 04  9 14 22 10 59.9970000  0  7G10G 3G 8G28G13G19G27
                                  22273395.540

  -1818643.91849  -1411696.64546  22867729.7514   22867731.5634
      -884.1654
 -13705701.19949 -10664060.38748  19820023.6424   19820022.2714
      2583.0394
 -13417177.89849 -11234027.22347  21362805.1184   21362802.1884
      3856.9574
    850469.43849    662858.64547  20546580.1814   20546578.4314
     -1277.2574
 -11854768.71549  -9224197.67647  21561393.3134   21561390.8064
      1474.7554
  -8351541.98049  -6499404.82048  19748206.1734   19748204.6494
      1435.6504
 04  9 14 22 11 14.9970000  0  6G 3G 8G28G13G19G27
  -1805265.37549  -1401271.81646  22870276.3924   22870277.3104
      -891.9034
 -13744387.80149 -10694205.78548  19812661.8294   19812660.2904
      2579.1074
 -13474957.28549 -11279050.09047  21351809.6574   21351807.2314
      3851.9594
    869728.36349    677865.57447  20550244.9934   20550243.3994
     -1283.9284
 -11876748.59049  -9241324.84047  21557210.5244   21557208.1734
      1465.3254
  -8373025.16049  -6516144.96548  19744118.0564   19744116.6184
      1432.2124
 04  9 14 22 11 29.9970000  0  7G10G 3G 8G28G13G19G27
                                  22265088.142

  -1791772.51249  -1390757.93046  22872843.5564   22872844.5094
      -899.5244
 -13783016.80149 -10724306.29748  19805311.1654   19805309.5564
      2575.2674
 -13532663.09049 -11324015.61747  21340828.7744   21340826.3494
      3847.0544
    889085.58249    692949.10547  20553928.4784   20553926.6574
     -1290.4814
 -11898588.49249  -9258342.94947  21553054.9234   21553052.0054
      1455.9934
  -8394458.27049  -6532846.09048  19740039.4544   19740037.8724
      1428.8744
 04  9 14 22 11 44.9970000  0  7G10G 3G 8G28G13G19G27
    -31298.301 8                  22260974.274
      1441.010
  -1778165.29749  -1380154.92246  22875433.0714   22875433.7744
      -907.1484
 -13821587.87549 -10754361.66448  19797971.0714   19797969.4074
      2571.4054
 -13590294.85949 -11368923.45347  21329861.7354   21329859.5914
      3842.1184
    908541.39149    708109.46147  20557631.1344   20557629.0054
     -1297.0544
 -11920288.01249  -9275251.65247  21548925.2284   21548922.3884
      1446.6354
  -8415840.94949  -6549507.91048  19735970.6734   19735968.7824
      1425.5124
 04  9 14 22 11 59.9970000  0  7G10G 3G 8G28G13G19G27
    -18028.28118                  22256887.712
      2882.020
  -1764444.43049  -1369463.34046  22878043.9464   22878045.0674
      -914.7244
 -13860101.60549 -10784372.35548  19790642.1574   19790640.8294
      2567.5824
 -13647852.95749 -11413773.88747  21318908.7124   21318906.7554
      3837.2074
    928095.12549    723346.10947  20561352.1264   20561350.2714
     -1303.5824
 -11941847.48849  -9292051.24247  21544822.7354   21544820.1614
      1437.2984
  -8437173.54349  -6566130.71548  19731911.0174   19731909.3564
      1422.1734
 04  9 14 22 12 14.9970000  0  6G 3G 8G28G13G19G27
  -1750609.72749  -1358683.07446  22880676.8294   22880677.4624
      -922.3144
 -13898557.23049 -10814337.77348  19783324.2124   19783323.3964
      2563.7084
 -13705336.80549 -11458566.48847  21307969.7674   21307968.3104
      3832.2574
    947746.98849    738659.23047  20565091.3134   20565089.8844
     -1310.1244
 -11963266.45749  -9308741.34047  21540747.0174   21540743.9624
      1427.9314
  -8458455.42649  -6582714.00048  19727861.0564   19727859.5524
      1418.7924
 04  9 14 22 12 29.9970000  0  6G 3G 8G28G13G19G27
  -1736661.12949  -1347814.03146  22883331.3684   22883332.2514
      -929.9074
 -13936954.25049 -10844257.51648  19776017.0874   19776016.0284
      2559.8014
 -13762745.93749 -11503300.83647  21297045.3134   21297043.8764
      3827.2764
    967497.22749    754049.00047  20568849.8294   20568848.4354
     -1316.6834
 -11984544.47749  -9325321.60547  21536698.2514   21536695.1734
      1418.5354
  -8479686.27349  -6599257.51648  19723821.1574   19723819.5914
      1415.3904
 04  9 14 22 12 44.9970000  0  6G 3G 8G28G13G19G27
  -1722599.15249  -1336856.70746  22886007.5714   22886007.5284
      -937.4654
 -13975293.17649 -10874131.98848  19768722.1654   19768720.6034
      2555.9284
 -13820080.52349 -11547977.12947  21286134.7284   21286133.6654
      3822.3064
    987345.34449    769515.05147  20572626.6734   20572625.2944
     -1323.2084
 -12005681.86349  -9341792.29747  21532675.0564   21532672.7434
      1409.1594
  -8500866.35549  -6615761.47748  19719790.8844   19719788.9934
      1412.0054
 04  9 14 22 12 59.9970000  0  6G 3G 8G28G13G19G27
  -1708425.16049  -1325812.05946  22888704.8374   22888704.8604
      -944.9334
 -14013574.90249 -10903961.90648  19761437.1184   19761435.6734
      2552.1154
 -13877341.69949 -11592596.18747  21275237.6574   21275237.0404
      3817.4124
   1007289.95749    785056.28547  20576422.2044   20576421.0444
     -1329.6414
 -12026679.60949  -9358154.16447  21528679.6574   21528676.8924
      1399.8504
  -8521996.73049  -6632226.69948  19715769.5954   19715767.9704
      1408.6924
 04  9 14 22 13 14.9970000  0  6G 3G 8G28G13G19G27
  -1694137.76649  -1314679.04346  22891423.0954   22891423.5014
      -952.4934
 -14051797.68449 -10933745.87148  19754163.4624   19754162.3334
      2548.1854
 -13934527.57449 -11637156.58647  21264355.7514   21264354.3454
      3812.3924
   1027332.55949    800673.87547  20580236.0954   20580234.7674
     -1336.1734
 -12047535.95349  -9374405.85947  21524711.2674   21524708.2284
      1390.4234
  -8543075.63349  -6648651.81648  19711758.2284   19711756.7714
      1405.2604
 04  9 14 22 13 29.9970000  0  6G 3G 8G28G13G19G27
  -1679737.41049  -1303457.98446  22894164.1104   22894164.1854
      -960.0244
 -14089961.63349 -10963484.00848  19746901.1034   19746899.8104
      2544.2634
 -13991638.30549 -11681658.43747  21253488.7514   21253487.1814
      3807.3824
   1047472.75849    816367.52347  20584068.5794   20584067.8104
     -1342.6804
 -12068251.08649  -9390547.52047  21520768.6494   21520766.1144
      1381.0094
  -8564103.15649  -6665036.90248  19707756.7984   19707755.5214
      1401.8354
 04  9 14 22 13 44.9970000  0  6G 3G 8G28G13G19G27
  -1665222.36349  -1292147.56246  22896925.7434   22896926.2164
      -967.6704
 -14128064.59049 -10993174.62148  19739650.5954   19739649.5484
      2540.1974
 -14048671.69149 -11726100.00847  21242635.2594   21242633.5284
      3802.2264
   1067712.46549    832138.69947  20587919.8294   20587918.9154
     -1349.3144
 -12088822.96549  -9406577.54747  21516854.3294   21516851.7084
      1371.4594
  -8585077.17649  -6681380.29348  19703765.7904   19703764.5524
      1398.2684
 04  9 14 22 13 59.9970000  0  6G 3G 8G28G13G19G27
  -1650595.32049  -1280749.87946  22899708.7904   22899709.8764
      -975.1364
 -14166109.02349 -11022819.62548  19732410.8534   19732409.8134
      2536.2964
 -14105629.91849 -11770483.01647  21231796.7674   21231794.6964
      3797.2154
   1088049.09849    847985.41047  20591789.9074   20591788.5914
     -1355.7764
 -12109253.73849  -9422497.62547  21512966.5794   21512964.0364
      1362.0524
  -8606000.03549  -6697683.82448  19699784.3684   19699782.7354
      1394.8574
 04  9 14 22 14 14.9970000  0  7G10G 3G 8G28G13G19G27
    -11015.19518                  22221341.438

  -1635856.43449  -1269265.05546  22902514.3214   22902514.4664
      -982.5924
 -14204095.00049 -11052419.09048  19725182.2984   19725181.2744
      2532.3984
 -14162512.86349 -11814807.35947  21220972.1964   21220970.5564
      3792.1964
   1108482.52349    863907.53147  20595678.5634   20595677.4704
     -1362.2284
 -12129543.46149  -9438307.78947  21509105.4234   21509102.8414
      1352.6484
  -8626871.75849  -6713947.50048  19695812.4074   19695811.2554
      1391.4484
 04  9 14 22 14 29.9970000  0  7G10G 3G 8G28G13G19G27
                                  22217528.017

  -1621007.43749  -1257694.41846  22905339.4784   22905340.0604
      -989.9334
 -14242023.62149 -11081973.84448  19717964.7594   19717963.6654
      2528.5754
 -14219321.96549 -11859074.16847  21210161.6344   21210159.8764
      3787.2734
   1129011.03549    879903.75847  20599584.8994   20599583.6104
     -1368.5674
 -12149693.48849  -9454009.10247  21505270.6574   21505268.3294
      1343.3354
  -8647693.63349  -6730172.34048  19691850.2514   19691849.1464
      1388.1254
 04  9 14 22 14 44.9970000  0  7G10G 3G 8G28G13G19G27
    -12187.55918                  22213740.743

  -1606048.49649  -1246038.13746  22908186.3294   22908186.2394
      -997.2634
 -14279894.74249 -11111483.80548  19710758.4464   19710756.7084
      2524.7414
 -14276056.90649 -11903283.18447  21199365.2044   21199363.3454
      3782.3294
   1149634.61749    895974.05947  20603509.3924   20603508.1224
     -1374.9054
 -12169703.54349  -9469601.34847  21501462.9464   21501460.5634
      1334.0044
  -8668465.39549  -6746358.12948  19687897.3844   19687896.4814
      1384.7844
 04  9 14 22 14 59.9970000  0  6G 3G 8G28G13G19G27
  -1590979.34849  -1234295.93746  22911054.0484   22911054.2434
     -1004.6104
 -14317707.60949 -11140948.37548  19703562.8684   19703561.1184
      2520.8584
 -14332717.07049 -11947433.93047  21188582.9784   21188581.4354
      3777.3444
   1170353.54349    912118.64847  20607451.8684   20607450.7314
     -1381.2624
 -12189573.07849  -9485084.09047  21497681.6654   21497679.3534
      1324.6364
  -8689186.48049  -6762504.43048  19683954.4854   19683953.0524
      1381.4064
 04  9 14 22 15 14.9970000  0  7G10G 3G 8G28G13G19G27
    -13853.59019                  22206249.345

  -1575799.05949  -1222467.18046  22913942.6814   22913942.9384
     -1012.0194
 -14355461.14549 -11170366.70348  19696378.4544   19696377.1774
      2516.9024
 -14389301.29349 -11991525.50847  21177815.5794   21177814.1854
      3772.2824
   1191168.70749    928338.23447  20611413.0484   20611411.5174
     -1387.6784
 -12209301.01249  -9500456.50447  21493928.4784   21493925.3994
      1315.1964
  -8709855.66049  -6778610.28948  19680021.1184   19680019.7594
      1377.9454
 04  9 14 22 15 29.9970000  0  7G10G 3G 8G28G13G19G27
    -33326.465 9                  22202542.478
      1298.192
  -1560509.96149  -1210553.60546  22916851.7124   22916852.7084
     -1019.2734
 -14393157.31649 -11199740.34048  19689205.0874   19689204.1064
      2513.0784
 -14445811.25849 -12035559.21547  21167061.6654   21167060.4894
      3767.3314
   1212078.11349    944631.26247  20615392.1344   20615390.5364
     -1393.9604
 -12228889.09449  -9515719.94947  21490200.4384   21490197.7354
      1305.8724
  -8730474.83249  -6794677.16848  19676097.6814   19676096.1494
      1374.6114
 04  9 14 22 15 44.9970000  0  7G10G 3G 8G28G13G19G27
    -52654.62549  -7289232.06256  22198865.5404   22198861.6344
      1288.5444
  -1545108.42649  -1198552.42646  22919783.1494   22919783.1534
     -1026.7694
 -14430792.03549 -11229066.07848  19682043.6574   19682042.6304
      2508.9814
 -14502243.13749 -12079532.08247  21156323.0404   21156321.3414
      3762.1254
   1233085.28549    961000.46547  20619389.6034   20619388.4974
     -1400.4784
 -12248333.54349  -9530871.46147  21486500.0404   21486497.3964
      1296.2974
  -8751040.19949  -6810702.13748  19672184.3924   19672182.5994
      1371.0244
 04  9 14 22 15 59.9970000  0  7G10G 3G 8G28G13G19G27
    -71840.52348  -7304182.07846  22195213.9934   22195211.6734
      1279.0604
  -1529597.15649  -1186465.74246  22922734.3924   22922734.6924
     -1034.0854
 -14468367.64149 -11258345.76248  19674893.3134   19674891.5834
      2505.0404
 -14558599.24249 -12123445.89147  21145598.8764   21145597.8024
      3757.0744
   1254187.74249    977443.91847  20623405.2744   20623403.7944
     -1406.8304
 -12267636.68449  -9545912.86747  21482827.6494   21482824.5014
      1286.8764
  -8771554.04749  -6826686.95348  19668280.6654   19668278.9624
      1367.5904
 04  9 14 22 16 14.9970000  0  7G10G 3G 8G28G13G19G27
    -90883.62949  -7319020.94546  22191591.1964   22191588.7864
      1269.5404
  -1513975.95349  -1174293.35946  22925707.7904   22925708.1494
     -1041.4144
 -14505883.95349 -11287579.24648  19667754.0564   19667752.5244
      2501.0884
 -14614878.96949 -12167300.19547  21134889.5714   21134888.0564
      3751.9824
   1275385.61349    993961.71947  20627439.1814   20627437.9854
     -1413.1914
 -12286798.07849  -9560843.81647  21479180.7354   21479178.3214
      1277.4264
  -8792015.76249  -6842631.13748  19664386.9074   19664385.1424
      1364.1144
 04  9 14 22 16 29.9970000  0  7G10G 3G 8G28G13G19G27
   -109784.55949  -7333748.89546  22187993.8764   22187992.6494
      1260.0624
  -1498245.38749  -1162035.78546  22928700.8924   22928700.9974
     -1048.7044
 -14543340.91449 -11316766.48448  19660626.2124   19660624.5634
      2497.1314
 -14671082.64549 -12211095.23047  21124194.3534   21124192.6494
      3746.9124
   1296678.38349   1010553.45347  20631491.1104   20631489.5714
     -1419.5184
 -12305817.98849  -9575664.52347  21475561.5244   21475558.7004
      1267.9944
  -8812425.60949  -6858534.92248  19660502.7824   19660501.7674
      1360.6574
 04  9 14 22 16 44.9970000  0  7G10G 3G 8G28G13G19G27
   -128543.38749  -7348366.13746  22184424.8844   22184423.6184
      1250.5894
  -1482405.70349  -1149693.21546  22931714.4314   22931715.2784
     -1055.9794
 -14580738.45349 -11345907.41048  19653509.6344   19653508.3844
      2493.1694
 -14727209.96549 -12254830.78547  21113513.4154   21113512.1064
      3741.8214
   1318065.91449   1027219.04747  20635560.6734   20635559.6034
     -1425.8354
 -12324696.37949  -9590374.94547  21471968.9854   21471965.9744
      1258.5594
  -8832783.51249  -6874398.21948  19656628.8844   19656627.2554
      1357.1934
 04  9 14 22 16 59.9970000  0  7G10G 3G 8G28G13G19G27
   -147159.26649  -7362872.04346  22180881.7354   22180881.2474
      1241.0594
  -1466456.80149  -1137265.52746  22934749.3604   22934750.2314
     -1063.2604
 -14618075.91449 -11375001.52348  19646404.4784   19646403.3134
      2489.1644
 -14783260.38349 -12298506.40247  21102847.4544   21102845.8334
      3736.6954
   1339548.52349   1043958.71547  20639649.0874   20639647.4274
     -1432.1744
 -12343432.66049  -9604974.64547  21468403.8134   21468400.7284
      1249.0854
  -8853089.07049  -6890220.73048  19652764.9464   19652763.7864
      1353.7044
 04  9 14 22 17 14.9960000  0  7G10G 3G 8G28G13G19G27
   -165633.64859  -7377267.69956  22177365.7854   22177364.8874
      1231.5294
  -1450402.21149  -1124755.45346  22937805.3014   22937804.7234
     -1070.3064
 -14655353.25449 -11404048.79748  19639310.9024   19639309.4494
      2485.1564
 -14839232.39849 -12342120.93747  21092195.8094   21092194.5634
      3731.4684
   1361122.30549   1060769.43447  20643754.3714   20643752.8564
     -1438.2524
 -12362027.68049  -9619464.26247  21464865.0824   21464861.9224
      1239.6684
  -8873342.89849  -6906002.93048  19648910.6214   19648909.4144
      1350.2554
 04  9 14 22 17 29.9960000  0  7G10G 3G 8G28G13G19G27
                                  22173876.5434   22173875.6644
      1221.9994
  -1434238.43749  -1112160.32846  22940880.7234   22940881.3794
     -1077.5854
 -14692573.30949 -11433051.43048  19632227.9654   19632226.8094
      2481.3374
 -14895131.60549 -12385678.72747  21081559.3324   21081557.4024
      3726.6144
   1382791.60949   1077654.58247  20647877.9024   20647876.7664
     -1444.6204
 -12380482.37949  -9633844.53947  21461353.1374   21461350.5204
      1230.3134
  -8893546.04749  -6921745.64548  19645066.2464   19645065.0514
      1346.8774
 04  9 14 22 17 44.9960000  0  6G 3G 8G28G13G19G27
  -1417966.69549  -1099481.07046  22943977.2934   22943977.5784
     -1084.7834
 -14729733.84449 -11462007.68748  19625156.9024   19625155.4774
      2477.3694
 -14950954.19549 -12429176.82447  21070936.3324   21070934.6214
      3721.5064
   1404554.88349   1094612.94947  20652019.4814   20652017.8564
     -1450.8854
 -12398795.46949  -9648114.46947  21457868.2854   21457865.6884
      1220.8734
  -8913696.98449  -6937447.66848  19641231.6524   19641230.3054
      1343.3964
 04  9 14 22 17 59.9960000  0  6G 3G 8G28G13G19G27
  -1401589.32849  -1086719.50846  22947093.8794   22947093.8404
     -1091.8244
 -14766836.55149 -11490918.89148  19618096.3954   19618095.2234
      2473.5144
 -15006702.01649 -12472616.64847  21060327.4574   21060325.5704
      3716.5214
   1426409.89549   1111642.82047  20656177.9734   20656177.1374
     -1457.0014
 -12416968.88349  -9662275.55947  21454410.3164   21454407.4144
      1211.5614
  -8933797.72349  -6953110.58648  19637406.6374   19637405.2344
      1340.0494
 04  9 14 22 18 14.9960000  0  6G 3G 8G28G13G19G27
  -1385103.09849  -1073873.13346  22950231.1374   22950231.8134
     -1099.0824
 -14803878.10949 -11519782.42648  19611047.2314   19611046.1994
      2469.4374
 -15062371.51649 -12515995.44947  21049733.8484   21049731.7584
      3711.3004
   1448359.85949   1128746.65647  20660355.2074   20660353.8134
     -1463.3314
 -12434998.96949  -9676324.97347  21450979.1294   21450976.3484
      1202.0064
  -8953844.61349  -6968731.53548  19633591.9344   19633590.1804
      1336.4594
 04  9 14 22 18 29.9960000  0  6G 3G 8G28G13G19G27
  -1368508.73049  -1060942.46146  22953388.9814   22953389.2234
     -1106.2914
 -14840858.76649 -11548598.51248  19604010.2624   19604009.3954
      2465.3774
 -15117962.97349 -12559313.44947  21039155.4494   21039153.5474
      3706.0974
   1470404.11749   1145923.97747  20664550.3244   20664549.0704
     -1469.6174
 -12452886.19149  -9690263.05547  21447575.2544   21447572.1374
      1192.4824
  -8973838.10249  -6984310.87948  19629787.0274   19629785.3094
      1332.8994
 04  9 14 22 18 44.9960000  0  6G 3G 8G28G13G19G27
  -1351805.33249  -1047926.83646  22956568.0744   22956567.7734
     -1113.5604
 -14877777.23449 -11577366.13748  19596984.6994   19596983.9414
      2461.2314
 -15173475.25849 -12602569.74647  21028591.0514   21028589.8054
      3700.8194
   1492543.80549   1163175.66447  20668763.2704   20668761.9144
     -1475.9794
 -12470629.48849  -9704089.00447  21444198.6764   21444196.1644
      1182.8864
  -8993776.88349  -6999847.58248  19625992.6844   19625991.6454
      1329.2524
 04  9 14 22 18 59.9960000  0  6G 3G 8G28G13G19G27
  -1334994.69949  -1034827.66046  22959766.4414   22959767.1954
     -1120.7094
 -14914634.96549 -11606086.44148  19589970.7544   19589969.7384
      2457.1824
 -15228909.72749 -12645765.41447  21018042.5594   21018040.8674
      3695.6314
   1514777.01249   1180500.21947  20672994.1374   20672992.5204
     -1482.2144
 -12488230.36349  -9717803.96147  21440848.9734   21440846.7894
      1173.3924
  -9013662.46149  -7015342.84048  19622208.3324   19622207.4694
      1325.7054
 04  9 14 22 19 14.9960000  0  6G 3G 8G28G13G19G27
  -1318077.34849  -1021645.30546  22962986.0594   22962985.6844
     -1127.8234
 -14951432.17249 -11634759.59048  19582968.6064   19582967.3564
      2453.1474
 -15284266.41049 -12688900.47747  21007508.6764   21007507.4414
      3690.4464
   1537103.38749   1197897.37547  20677242.6604   20677241.1764
     -1488.4254
 -12505688.84849  -9731407.96147  21437527.3874   21437524.5084
      1163.8994
  -9033494.98049  -7030796.75448  19618434.7934   19618432.9774
      1322.1684
 04  9 14 22 19 29.9960000  0  7G10G 3G 8G28G13G19G27
                                  22146941.387

  -1301051.16449  -1008378.19946  22966225.4494   22966226.3674
     -1135.0794
 -14988166.08249 -11663383.40248  19575978.5354   19575977.0554
      2448.9274
 -15339542.85549 -12731973.01247  20996990.1134   20996988.4184
      3685.0964
   1559525.14549   1215368.85247  20681509.6844   20681507.6764
     -1494.7844
 -12523002.57449  -9744899.17647  21434232.3794   21434229.5944
      1154.2484
  -9053271.85949  -7046207.31248  19614670.8634   19614669.9064
      1318.4594
 04  9 14 22 19 44.9960000  0  6G 3G 8G28G13G19G27
  -1283919.48449   -995028.85946  22969485.8324   22969486.1024
     -1142.1124
 -15024839.90249 -11691960.41448  19568999.7704   19568998.3794
      2444.9214
 -15394742.02049 -12774985.33247  20986485.7934   20986484.4144
      3679.9444
   1582038.92649   1232912.03147  20685793.5664   20685792.3484
     -1500.9194
 -12540174.52349  -9758279.91047  21430964.6294   21430962.0514
      1144.7974
  -9072996.21149  -7061576.93748  19610917.7234   19610916.2384
      1314.9574
 04  9 14 22 19 59.9960000  0  7G10G 3G 8G28G13G19G27
                                  22140477.934

  -1266682.44949   -981597.42246  22972765.2464   22972766.1214
     -1149.1364
 -15061453.44549 -11720490.43048  19562032.3164   19562031.6604
      2440.9034
 -15449863.66449 -12817937.23447  20975996.6684   20975995.2464
      3674.7764
   1604644.84449   1250527.00847  20690095.3794   20690093.9304
     -1507.0614
 -12557204.49249  -9771550.00047  21427723.9814   21427721.2424
      1135.3314
  -9092667.67249  -7076905.34848  19607174.5204   19607173.0864
      1311.4314
 04  9 14 22 20 14.9960000  0  7G10G 3G 8G28G13G19G27
    -23066.52718                  22137286.746

  -1249338.39149   -968082.57046  22976066.4024   22976067.0984
     -1156.2714
 -15098004.69549 -11748971.90648  19555077.0744   19555076.0554
      2436.7504
 -15504905.79749 -12860827.18047  20965522.2624   20965521.1954
      3669.4764
   1627344.45349   1268214.99647  20694415.1524   20694413.8834
     -1513.3074
 -12574090.65649  -9784708.05547  21424510.7234   21424507.7154
      1125.7444
  -9112284.34449  -7092191.05548  19603441.3164   19603440.1174
      1307.7784
 04  9 14 22 20 29.9960000  0  6G 3G 8G28G13G19G27
  -1231889.83649   -954486.32846  22979386.8244   22979386.8404
     -1163.2374
 -15134495.81249 -11777406.54348  19548132.8634   19548131.5904
      2432.7414
 -15559870.54349 -12903656.82847  20955063.0664   20955061.5354
      3664.3164
   1650135.38749   1285974.14147  20698752.0664   20698750.4574
     -1519.3964
 -12590835.18749  -9797755.73047  21421324.4414   21421321.4734
      1116.3024
  -9131848.44949  -7107435.81648  19599718.7314   19599716.9654
      1304.2744
 04  9 14 22 20 44.9960000  0  6G 3G 8G28G13G19G27
  -1214336.79349   -940808.64546  22982727.6764   22982727.5204
     -1170.2034
 -15170926.36349 -11805793.97748  19541200.5354   19541199.2504
      2428.7034
 -15614757.50849 -12946425.86347  20944618.4964   20944616.4264
      3659.1314
   1673017.65249   1303804.45747  20703106.1684   20703104.7584
     -1525.4844
 -12607437.81649  -9810692.84047  21418165.0434   21418162.0704
      1106.8424
  -9151359.57849  -7122639.28548  19596005.8634   19596004.1374
      1300.7424
 04  9 14 22 20 59.9960000  0  5G 8G28G13G19G27
 -15207295.96149 -11834133.91448  19534279.6524   19534278.0594
      2424.6404
 -15669566.16849 -12989133.88347  20934188.5594   20934186.9064
      3653.9114
   1695991.53549   1321706.16447  20707478.0744   20707477.0164
     -1531.5924
 -12623898.12949  -9823519.04747  21415032.4494   21415029.8094
      1097.3544
  -9170817.12549  -7137801.00848  19592303.3324   19592301.4884
      1297.1704
 04  9 14 22 21 14.9960000  0  5G 8G28G13G19G27
 -15243603.56649 -11862425.55148  19527370.4654   19527369.1684
      2420.5074
 -15724295.47349 -13031780.06647  20923773.7934   20923772.3794
      3648.6204
   1719057.73849   1339679.80947  20711867.0824   20711865.8524
     -1537.7474
 -12640215.04349  -9836233.52347  21411927.4024   21411924.9384
      1087.7944
  -9190220.10549  -7152920.21148  19588611.1764   19588609.4384
      1293.5324
 04  9 14 22 21 29.9960000  0  5G 8G28G13G19G27
 -15279849.48449 -11890669.11348  19520473.0354   19520471.6884
      2416.3954
 -15778945.84849 -13074364.74647  20913374.1134   20913372.6484
      3643.3584
   1742215.57849   1357724.85547  20716274.6214   20716273.6024
     -1543.8564
 -12656388.93049  -9848836.55147  21408850.2154   21408847.2584
      1078.2594
  -9209569.07449  -7167997.32848  19584928.8954   19584927.4264
      1289.9314
 04  9 14 22 21 44.9960000  0  6G10G 8G28G13G19G27
                                  22118707.207

 -15316032.20749 -11918863.43048  19513587.5904   19513586.6564
      2412.1824
 -15833515.62549 -13116886.62947  20902990.0354   20902988.1844
      3637.9854
   1765466.44549   1375842.38747  20720698.8484   20720697.7544
     -1550.0584
 -12672418.42649  -9861327.05947  21405799.4344   21405796.7664
      1068.6334
  -9228862.20349  -7183030.93048  19581257.5354   19581256.0394
      1286.2094
 04  9 14 22 21 59.9960000  0  5G 8G28G13G19G27
 -15352151.60549 -11947008.40248  19506714.4964   19506713.0394
      2407.9604
 -15888004.81649 -13159345.71547  20892621.0274   20892619.0084
      3632.6134
   1788809.98849   1394032.14147  20725140.5664   20725139.9844
     -1556.2364
 -12688303.57049  -9873705.08247  21402776.8874   21402773.7584
      1059.0104
  -9248099.69149  -7198021.18048  19577596.7464   19577595.2234
      1282.4994
 04  9 14 22 22 14.9960000  0  5G 8G28G13G19G27
 -15388207.51249 -11975103.90648  19499853.4104   19499851.8754
      2403.7274
 -15942413.18449 -13201741.83247  20882267.9344   20882265.6954
      3627.2244
   1812246.02049   1412293.96547  20729600.7384   20729599.8404
     -1562.4024
 -12704044.23449  -9885970.53147  21399781.2774   21399778.1024
      1049.3784
  -9267281.23849  -7212967.83648  19573946.6844   19573945.1414
      1278.7704
 04  9 14 22 22 29.9960000  0  5G 8G28G13G19G27
 -15424197.03949 -12003147.69148  19493004.4734   19493002.8284
      2399.3024
 -15996737.84049 -13244072.70747  20871929.9884   20871928.2154
      3621.6444
   1835777.25049   1430629.95747  20734078.6064   20734077.6914
     -1568.7494
 -12719637.64149  -9898121.23047  21396813.5274   21396811.1454
      1039.5604
  -9286404.03149  -7227868.71548  19570307.5984   19570306.4064
      1274.8534
 04  9 14 22 22 44.9960000  0  5G 8G28G13G19G27
 -15460123.97349 -12031142.69948  19486167.6294   19486166.6294
      2395.1294
 -16050982.60949 -13286341.32847  20861607.8014   20861605.5394
      3616.3184
   1859399.54349   1449036.91047  20738573.8404   20738572.7114
     -1574.8204
 -12735087.58249  -9910160.13747  21393874.2154   21393871.2734
      1029.9964
  -9305471.69549  -7242726.62548  19566679.5274   19566678.1484
      1271.1784
 04  9 14 22 22 59.9960000  0  5G 8G28G13G19G27
 -15495987.67649 -12059088.42648  19479343.5274   19479341.5904
      2390.9144
 -16105146.80549 -13328547.17247  20851300.4964   20851298.3984
      3610.9464
   1883113.35549   1467515.18847  20743086.7774   20743085.5514
     -1580.9214
 -12750393.52749  -9922086.84047  21390961.6064   21390958.6174
      1020.3964
  -9324483.75049  -7257541.21948  19563061.3634   19563060.0904
      1267.4704
 04  9 14 22 23 14.9960000  0  5G 8G28G13G19G27
 -15531788.29349 -12086985.00848  19472530.3634   19472529.1374
      2386.7084
 -16159230.50849 -13370690.28947  20841008.9024   20841006.7664
      3605.5804
   1906918.16449   1486064.35547  20747615.7774   20747615.4614
     -1586.9874
 -12765555.78949  -9933901.57447  21388076.0744   21388073.2624
      1010.8174
  -9343440.28949  -7272312.54748  19559454.2464   19559452.2854
      1263.7694
 04  9 14 22 23 29.9960000  0  6G10G 8G28G13G19G27
    -13743.20358  -7445635.18756  22098260.7854   22098257.6334

 -15567527.30949 -12114833.58648  19465729.8714   19465728.4694
      2382.6014
 -16213235.43449 -13412772.02747  20830731.7704   20830730.3984
      3600.3284
   1930811.96149   1504682.89147  20752163.0354   20752161.6764
     -1592.9204
 -12780575.98849  -9945605.62547  21385217.8794   21385214.8444
      1001.3474
  -9362343.00049  -7287041.93048  19555857.0124   19555855.3714
      1260.1814
 04  9 14 22 23 44.9960000  0  6G10G 8G28G13G19G27
    -28525.93749  -7457154.07846  22095446.3244   22095444.6724
       985.5164
 -15603203.05549 -12142632.86348  19458940.9574   19458939.5984
      2378.3834
 -16267159.59449 -13454790.82847  20820469.9814   20820468.4144
      3594.9444
   1954796.52749   1523372.14147  20756726.7934   20756725.7894
     -1598.9714
 -12795452.26249  -9957197.52047  21382386.9344   21382384.5554
       991.7524
  -9381189.85249  -7301727.78548  19552270.6684   19552269.3014
      1256.4574
 04  9 14 22 23 59.9960000  0  6G10G 8G28G13G19G27
    -43167.63749  -7468563.26246  22092661.1844   22092658.7234
       976.1134
 -15638815.87149 -12170383.09448  19452163.9414   19452162.2664
      2374.1884
 -16321003.30949 -13496746.94147  20810223.9344   20810222.5354
      3589.5814
   1978871.05149   1542131.48447  20761308.8094   20761306.9264
     -1604.9684
 -12810185.03549  -9968677.59847  21379583.1374   21379580.3634
       982.1854
  -9399981.21149  -7316370.39548  19548695.1684   19548693.2974
      1252.7574
 04  9 14 22 24 14.9960000  0  6G10G 8G28G13G19G27
    -57668.77048  -7479862.92646  22089901.5664   22089899.1884
       966.7424
 -15674365.90649 -12198084.41448  19445399.0204   19445398.0514
      2370.0024
 -16374766.62549 -13538640.42247  20799992.6914   20799991.9814
      3584.2214
   2003035.19949   1560960.66447  20765906.9964   20765905.4574
     -1610.9434
 -12824774.50849  -9980046.00847  21376806.9264   21376804.1134
       972.6324
  -9418717.26649  -7330969.92248  19545129.2854   19545127.9574
      1249.0704
 04  9 14 22 24 29.9960000  0  6G10G 8G28G13G19G27
    -72032.25049  -7491055.10546  22087167.8324   22087166.9814
       957.5654
 -15709855.69149 -12225738.78548  19438645.6134   19438644.1954
      2365.9864
 -16428452.44949 -13580473.50447  20789777.2544   20789775.6134
      3579.0554
   2027285.87549   1579857.27047  20770521.6604   20770519.9734
     -1616.7124
 -12839223.57049  -9991305.01247  21374057.6294   21374054.9454
       963.2714
  -9437400.77349  -7345528.49648  19541574.1994   19541572.6064
      1245.5674
 04  9 14 22 24 44.9960000  0  6G10G 8G28G13G19G27
    -86257.91448  -7502140.06246  22084461.5664   22084459.3634
       948.3784
 -15745285.06249 -12253346.08248  19431903.4184   19431901.6994
      2361.9584
 -16482060.39149 -13622245.89547  20779575.4814   20779574.4024
      3573.8634
   2051623.16049   1598821.37147  20775153.0594   20775151.4814
     -1622.4864
 -12853531.96949 -10002454.40647  21371334.8094   21371332.1294
       953.8934
  -9456031.46149  -7360045.91048  19538028.6764   19538027.3444
      1242.0464
 04  9 14 22 24 59.9960000  0  6G10G 8G28G13G19G27
   -100344.98449  -7513116.92246  22081780.3874   22081779.1764
       939.1384
 -15780653.05549 -12280905.54348  19425173.2384   19425172.0314
      2357.8664
 -16535589.59849 -13663956.94947  20769389.6064   20769388.0234
      3568.6144
   2076047.62549   1617853.39147  20779800.7704   20779799.1804
     -1628.2984
 -12867698.84849 -10013493.53147  21368639.0434   21368635.8754
       944.4594
  -9474608.35549  -7374521.41848  19534493.0274   19534492.0634
      1238.4604
 04  9 14 22 25 14.9960000  0  6G10G 8G28G13G19G27
   -114293.25449  -7523985.74646  22079125.3164   22079124.4304
       929.8854
 -15815959.17649 -12308416.80548  19418454.4574   19418453.2504
      2353.7414
 -16589039.48449 -13705606.18447  20759218.1454   20759216.7584
      3563.3264
   2100559.51649   1636953.53947  20784465.0274   20784463.4924
     -1634.1264
 -12881723.86349 -10024422.10947  21365969.8874   21365967.1724
       935.0014
  -9493130.83249  -7388954.51248  19530969.2314   19530967.6954
      1234.8324
 04  9 14 22 25 29.9960000  0  6G10G 8G28G13G19G27
   -128101.28549  -7534745.17646  22076497.5434   22076496.7934
       920.5354
 -15851202.04349 -12335878.77048  19411748.3094   19411746.9104
      2349.5244
 -16642408.58649 -13747192.47347  20749063.0664   20749060.5704
      3557.9404
   2125160.03549   1656122.75047  20789146.5824   20789145.1994
     -1640.0354
 -12895605.55549 -10035239.00447  21363328.5664   21363325.6994
       925.4464
  -9511597.52049  -7403344.13348  19527454.8484   19527453.2194
      1231.1134
 04  9 14 22 25 44.9960000  0  6G10G 8G28G13G19G27
   -141770.30549  -7545396.44146  22073896.5354   22073894.6254
       911.2684
 -15886382.08649 -12363291.78948  19405053.0984   19405051.8914
      2345.3364
 -16695697.59049 -13788716.34847  20738922.3634   20738920.2234
      3552.6004
   2149847.94949   1675360.06347  20793844.5984   20793843.3594
     -1645.8614
 -12909344.74249 -10045944.87147  21360713.7704   21360711.2624
       915.9464
  -9530009.15249  -7417690.85948  19523951.3404   19523950.0004
      1227.4424
 04  9 14 22 25 59.9960000  0  6G10G 8G28G13G19G27
   -155302.50849  -7555941.01646  22071321.8714   22071319.6844
       902.1474
 -15921501.62949 -12390657.65648  19398370.2544   19398369.2584
      2341.3034
 -16748908.69949 -13830179.52047  20728796.4184   20728794.6214
      3547.4074
   2174620.93049   1694663.65647  20798558.7774   20798557.5044
     -1651.5324
 -12922943.75849 -10056541.50847  21358125.3874   21358123.1454
       906.6014
  -9548367.94549  -7431996.40648  19520457.8094   19520456.4304
      1223.9204
 04  9 14 22 26 14.9960000  0  6G10G 8G28G13G19G27
   -168699.26648  -7566380.04346  22068772.6604   22068770.0274
       893.1174
 -15956561.64849 -12417977.14848  19391698.8484   19391697.7734
      2337.3354
 -16802042.97749 -13871582.82847  20718685.2854   20718683.4964
      3542.2854
   2199477.77349   1714032.59847  20803288.5904   20803287.8404
     -1657.1234
 -12936403.55149 -10067029.64847  21355564.6994   21355562.1484
       897.3204
  -9566674.78949  -7446261.48048  19516974.0204   19516972.7774
      1220.4564
 04  9 14 22 26 29.9960000  0  6G10G 8G28G13G19G27
   -181958.24648  -7576711.73846  22066249.3164   22066247.7034
       883.9324
 -15991560.09449 -12445248.66448  19385038.7854   19385037.9384
      2333.2304
 -16855097.97349 -13912924.36747  20708589.3324   20708587.5234
      3537.0004
   2224420.41849   1733468.39147  20808035.0044   20808033.6524
     -1662.8434
 -12949721.97749 -10077407.64547  21353030.4734   21353027.5634
       887.8954
  -9584927.44149  -7460484.33648  19513500.5904   19513499.3284
      1216.8434
 04  9 14 22 26 44.9960000  0  6G10G 8G28G13G19G27
   -195079.99248  -7586936.55546  22063752.3244   22063751.3524
       874.7834
 -16026496.74649 -12472472.02748  19378390.6294   19378388.4654
      2329.1104
 -16908073.88749 -13954204.26647  20698508.6994   20698506.3484
      3531.7284
   2249448.22349   1752970.54747  20812798.2074   20812796.8984
     -1668.5204
 -12962899.37949 -10087675.74647  21350522.9884   21350519.8634
       878.4934
  -9603126.04749  -7474665.05548  19510037.5984   19510036.2114
      1213.2404
 04  9 14 22 26 59.9960000  0  6G10G 8G28G13G19G27
   -208064.21148  -7597054.04346  22061280.5514   22061281.0394
       865.6154
 -16061371.11349 -12499646.84048  19371754.1064   19371752.7624
      2324.9584
 -16960970.22349 -13995422.17647  20688442.3794   20688440.3794
      3526.4224
   2274561.53549   1772539.34047  20817576.8484   20817575.5044
     -1674.2214
 -12975935.30149 -10097833.60547  21348042.1524   21348039.2504
       869.0614
  -9621270.15249  -7488803.32048  19506585.0744   19506583.0984
      1209.6074
 04  9 14 22 27 14.9960000  0  5G 8G28G13G19G27
 -16096184.63349 -12526774.25448  19365129.7624   19365128.1174
      2320.9014
 -17013788.22749 -14036579.04347  20678391.6214   20678389.2034
      3521.2004
   2299758.82049   1792173.55947  20822371.6524   20822370.6454
     -1679.8194
 -12988831.13749 -10107882.30947  21345588.0904   21345585.5474
       859.7224
  -9639361.02349  -7502900.09848  19503142.4814   19503140.8054
      1206.0584
 04  9 14 22 27 29.9960000  0  6G10G 8G28G13G19G27
     -9310.41018                  22056418.066

 -16130934.29349 -12553851.89848  19358516.8794   19358515.7424
      2316.6444
 -17066525.02049 -14077672.61747  20668356.1764   20668354.0204
      3515.7864
   2325042.68849   1811875.24647  20827183.0514   20827182.2074
     -1685.5914
 -13001584.05949 -10117819.64847  21343161.3634   21343158.4024
       850.1954
  -9657395.68749  -7516953.08248  19499710.4654   19499708.6414
      1202.3114
 04  9 14 22 27 44.9960000  0  6G10G 8G28G13G19G27
    -21885.035 9                  22054024.848
       838.308
 -16165624.23049 -12580883.01248  19351915.4884   19351914.0164
      2312.6634
 -17119184.73449 -14118706.13747  20658334.7314   20658333.4774
      3510.6484
   2350408.70749   1831640.95347  20832010.0824   20832008.9454
     -1691.0684
 -13014198.32049 -10127648.93447  21340760.7854   21340758.5594
       840.9514
  -9675378.29749  -7530965.50448  19496288.1134   19496286.5664
      1198.8414
 04  9 14 22 27 59.9960000  0  6G10G 8G28G13G19G27
    -34323.53518                  22051657.277
      1676.617
 -16200251.64849 -12607865.40648  19345325.8564   19345324.4104
      2308.4954
 -17171764.45349 -14159677.32447  20648329.6134   20648328.1094
      3505.3154
   2375859.39549   1851472.62947  20836853.1134   20836852.4264
     -1696.7124
 -13026671.09049 -10137367.97747  21338387.5664   21338384.9264
       831.5184
  -9693305.85549  -7544935.02748  19492876.6134   19492875.3564
      1195.1714
 04  9 14 22 28 14.9960000  0  6G10G 8G28G13G19G27
    -46624.668 9                  22049316.809
       820.076
 -16234817.16449 -12634799.57448  19338748.3794   19338746.7544
      2304.3684
 -17224264.78549 -14200586.65647  20638339.2234   20638337.3244
      3500.0224
   2401393.74649   1871369.49647  20841712.4734   20841710.9924
     -1702.2904
 -13039003.12949 -10146977.35547  21336041.0904   21336038.2194
       822.1364
  -9711179.11749  -7558862.25048  19489475.7544   19489474.4694
      1191.5514
 04  9 14 22 28 29.9960000  0  6G10G 8G28G13G19G27
    -58790.012 9                  22047002.371
       811.023
 -16269320.88749 -12661685.59048  19332182.5274   19332181.6214
      2300.2484
 -17276686.05949 -14241434.38347  20628363.5744   20628361.5554
      3494.7524
   2427011.41049   1891331.29347  20846587.0124   20846586.1884
     -1707.8444
 -13051194.72349 -10156477.30147  21333720.4964   21333717.8404
       812.7734
  -9728998.29749  -7572747.31648  19486084.8014   19486083.4774
      1187.9454
 04  9 14 22 28 44.9960000  0  6G10G 8G28G13G19G27
    -70821.383 9                  22044713.809
       802.091
 -16303764.61349 -12688524.84448  19325628.1994   19325626.8484
      2296.2484
 -17329029.85549 -14282221.73447  20618402.5204   20618400.1994
      3489.5864
   2452710.24249   1911356.32047  20851477.9104   20851476.2504
     -1713.2554
 -13063247.69949 -10165869.23447  21331427.6294   21331424.5044
       803.5324
  -9746764.91049  -7586591.44148  19482703.7314   19482702.4534
      1184.4414
 04  9 14 22 28 59.9960000  0  6G10G 8G28G13G19G27
    -82717.293 8                  22042448.965
       793.061
 -16338146.63749 -12715316.02048  19319085.5984   19319084.4024
      2292.1354
 -17381294.65249 -14322947.52347  20608456.7544   20608454.8594
      3484.3204
   2478491.51649   1931445.60247  20856383.6214   20856382.6214
     -1718.7524
 -13075160.53149 -10175151.96147  21329160.6064   21329157.3364
       794.1894
  -9764477.59049  -7600393.52748  19479333.2704   19479332.2584
      1180.8454
 04  9 14 22 29 14.9960000  0  6G10G 8G28G13G19G27
    -94478.578 9                  22040211.707
       784.086
 -16372467.32049 -12742059.40248  19312554.5824   19312553.2814
      2288.0464
 -17433480.88349 -14363612.09847  20598525.9264   20598523.8954
      3479.0824
   2504354.72349   1951598.71947  20861305.3714   20861304.3094
     -1724.2144
 -13086933.69149 -10184325.85947  21326919.9264   21326916.9884
       784.8774
  -9782136.55949  -7614153.76248  19475973.0744   19475971.6374
      1177.2654
 04  9 14 22 29 29.9960000  0  6G10G 8G28G13G19G27
   -106105.359 9                  22037998.840
       775.119
 -16406726.75449 -12768755.05948  19306035.2314   19306033.2584
      2283.9624
 -17485588.44149 -14404215.36347  20588610.4264   20588608.2314
      3473.8374
   2530299.36749   1971815.29747  20866242.4734   20866241.4454
     -1729.6434
 -13098567.30949 -10193391.01647  21324706.6064   21324703.0234
       775.5744
  -9799741.89149  -7627872.20348  19472622.7934   19472621.3874
      1173.6894
 04  9 14 22 29 44.9960000  0  6G10G 8G28G13G19G27
   -117597.773 9                  22035812.293
       766.161
 -16440924.74249 -12795402.83648  19299527.4184   19299525.7114
      2279.8664
 -17537617.46549 -14444757.43747  20578709.6374   20578707.1134
      3468.6024
   2556325.17649   1992095.12947  20871194.9264   20871193.8204
     -1735.0544
 -13110061.68049 -10202347.67247  21322518.9414   21322515.7704
       766.2914
  -9817293.57849  -7641548.83648  19469282.6844   19469281.2074
      1170.1134
 04  9 14 22 29 59.9960000  0  6G10G 8G28G13G19G27
   -128955.305 8                  22033650.988
       757.169
 -16475060.73449 -12822002.30948  19293031.6764   19293030.6174
      2275.7334
 -17589566.90649 -14485237.50047  20568824.0274   20568821.6484
      3463.2964
   2582432.73449   2012438.65247  20876163.2074   20876162.1684
     -1740.5044
 -13121415.86749 -10211195.08647  21320358.2074   21320355.5474
       756.9464
  -9834790.70349  -7655182.96148  19465953.3484   19465951.5474
      1166.4754
 04  9 14 22 30 14.9960000  0  6G10G 8G28G13G19G27
   -140177.047 9                  22031515.816
       748.116
 -16509133.42649 -12848552.44948  19286547.9574   19286546.4844
      2271.5134
 -17641435.77049 -14525654.77747  20558953.9414   20558951.0554
      3457.9244
   2608622.81349   2032846.48847  20881146.6764   20881146.1094
     -1746.0054
 -13132628.99649 -10219932.59447  21318224.3404   21318221.4224
       747.5424
  -9852232.30949  -7668773.82448  19462634.1294   19462632.8094
      1162.7744
 04  9 14 22 30 29.9960000  0  6G10G 8G28G13G19G27
   -151262.40218                  22029405.871
       739.064
 -16543142.02049 -12875052.64148  19280076.2544   19280074.6764
      2267.2404
 -17693223.15649 -14566008.56247  20549098.9494   20549096.7774
      3452.4924
   2634895.92649   2053319.02047  20886146.3094   20886145.0354
     -1751.5414
 -13143700.28549 -10228559.55547  21316117.5434   21316115.0704
       738.0864
  -9869617.26649  -7682320.54348  19459325.9734   19459324.5354
      1158.9974
 04  9 14 22 30 44.9960000  0  6G10G 8G28G13G19G27
   -162211.26218                  22027320.770
       730.011
 -16577086.01649 -12901502.51248  19273616.7934   19273614.9694
      2262.9334
 -17744928.82449 -14606298.66447  20539259.3094   20539257.3754
      3447.0454
   2661252.20349   2073856.34447  20891161.5354   20891160.7154
     -1757.0854
 -13154629.56249 -10237075.87947  21314037.4884   21314034.9814
       728.6184
  -9886945.52049  -7695823.07448  19456028.4264   19456026.7854
      1155.2174
 04  9 14 22 30 59.9960000  0  5G 8G28G13G19G27
 -16610964.35249 -12927901.19948  19267170.0824   19267168.6024
      2258.5564
 -17796551.58249 -14646524.16847  20529436.1134   20529434.0314
      3441.5174
   2687692.45749   2094459.10947  20896193.2234   20896192.2114
     -1762.6844
 -13165415.75049 -10245480.68447  21311985.2314   21311982.5434
       719.0794
  -9904215.76649  -7709280.41848  19452741.8794   19452739.9694
      1151.3504
 04  9 14 22 31 14.9960000  0  5G 8G28G13G19G27
 -16644779.25449 -12954250.46548  19260735.4184   19260733.7504
      2254.3274
 -17848093.63349 -14686686.77747  20519627.4964   20519625.9024
      3436.1374
   2714214.15249   2115125.34847  20901240.1684   20901239.3834
     -1768.1134
 -13176061.01249 -10253775.69947  21309959.2704   21309956.7734
       709.6844
  -9921430.16849  -7722694.23448  19449466.3794   19449464.7074
      1147.6274
 04  9 14 22 31 29.9960000  0  5G 8G28G13G19G27
 -16678531.83649 -12980551.17648  19254312.2314   19254311.1524
      2250.1724
 -17899556.29749 -14726787.53147  20509834.5274   20509832.8444
      3430.8444
   2740815.57049   2135853.69947  20906302.4264   20906301.2664
     -1773.4284
 -13186567.02349 -10261962.19947  21307960.5664   21307957.4924
       700.4014
  -9938590.18449  -7736065.67248  19446200.6064   19446199.2704
      1144.0014
 04  9 14 22 31 44.9960000  0  5G 8G28G13G19G27
 -16712219.31649 -13006801.15648  19247901.8714   19247900.4694
      2245.8324
 -17950936.57449 -14766824.09447  20500057.3714   20500055.4454
      3425.3524
   2767499.36749   2156646.23047  20911380.1454   20911379.2274
     -1778.9204
 -13196930.76249 -10270037.84447  21305987.9184   21305985.3484
       690.9164
  -9955692.61749  -7749392.25048  19442946.4264   19442944.7664
      1140.1624
 04  9 14 22 31 59.9960000  0  5G 8G28G13G19G27
 -16745843.09049 -13033001.49248  19241503.4104   19241501.6844
      2241.5854
 -18002235.91049 -14806797.58247  20490295.4734   20490293.3914
      3419.9564
   2794264.00449   2177501.77747  20916473.1294   20916472.4344
     -1784.3094
 -13207153.78549 -10278003.83247  21304042.5124   21304039.8484
       681.5354
  -9972738.97349  -7762675.12948  19439702.5744   19439701.2194
      1136.4244
 04  9 14 22 32 14.9960000  0  5G 8G28G13G19G27
 -16779403.54749 -13059152.48448  19235117.0664   19235115.4494
      2237.3644
 -18053454.64149 -14846708.26647  20480548.8014   20480546.5554
      3414.5824
   2821108.62949   2198419.63347  20921581.7234   20921580.8204
     -1789.6424
 -13217236.73849 -10285860.67647  21302123.9344   21302121.1724
       672.1974
  -9989729.52749  -7775914.52748  19436469.3244   19436467.6174
      1132.7044
 04  9 14 22 32 29.9960000  0  5G 8G28G13G19G27
 -16812899.67249 -13085253.37148  19228743.3324   19228741.5234
      2233.0754
 -18104592.04749 -14886555.57047  20470817.8794   20470815.6294
      3409.1604
   2848033.73449   2219400.20347  20926705.3244   20926704.2814
     -1795.0074
 -13227178.90249 -10293607.81247  21300232.0594   21300229.1484
       662.8114
 -10006663.68749  -7789109.97348  19433246.7234   19433245.0204
      1128.9444
 04  9 14 22 32 44.9960000  0  5G 8G28G13G19G27
 -16846330.36749 -13111303.25848  19222381.3164   19222380.0044
      2228.7134
 -18155646.88349 -14926338.53147  20461102.3014   20461100.5474
      3403.6564
   2875040.29749   2240444.25447  20931844.6844   20931843.4614
     -1800.4374
 -13236979.16449 -10301244.38347  21298367.1454   21298364.3594
       653.3514
 -10023540.12149  -7802260.44948  19430035.5824   19430033.7704
      1125.0964
 04  9 14 22 32 59.9960000  0  5G 8G28G13G19G27
 -16879694.29349 -13137301.11748  19216032.3484   19216031.3674
      2224.2624
 -18206617.72749 -14966056.05147  20451402.7154   20451401.1294
      3398.0564
   2902129.50449   2261552.68847  20936999.6134   20936998.4814
     -1805.9474
 -13246636.06649 -10308769.23847  21296529.4884   21296526.5164
       643.7934
 -10040357.21149  -7815364.67248  19426835.1844   19426834.0474
      1121.1394
 04  9 14 22 33 14.9960000  0  5G 8G28G13G19G27
 -16912992.16049 -13163247.49248  19209695.9964   19209694.4844
      2219.8584
 -18257505.53549 -15005708.85947  20441719.6134   20441717.1174
      3392.5214
   2929299.97749   2282724.46147  20942170.0354   20942169.0204
     -1811.3654
 -13256150.83249 -10316183.34847  21294718.3794   21294716.0354
       634.3184
 -10057116.06649  -7828423.52048  19423646.1374   19423644.3984
      1117.2574
 04  9 14 22 33 29.9960000  0  5G 8G28G13G19G27
 -16946224.64149 -13189142.93048  19203371.8634   19203370.6804
      2215.4994
 -18308311.25049 -15045297.69547  20432051.2544   20432049.0744
      3387.0484
   2956550.60949   2303958.70747  20947355.6604   20947354.7894
     -1816.7094
 -13265524.44149 -10323487.44547  21292935.1134   21292932.1064
       624.9074
 -10073817.51649  -7841437.63348  19420468.0824   19420466.4734
      1113.4304
 04  9 14 22 33 44.9960000  0  5G 8G28G13G19G27
 -16979393.00049 -13214988.39848  19197060.4734   19197058.7624
      2211.2244
 -18359035.81649 -15084823.31647  20422398.6064   20422396.6214
      3381.6384
   2983880.00849   2325254.30547  20952556.1294   20952555.3834
     -1821.9604
 -13274758.13749 -10330682.53147  21291177.8014   21291175.1294
       615.5804
 -10090462.54749  -7854407.78948  19417300.6134   19417298.9734
      1109.6694
 04  9 14 22 33 59.9960000  0  5G 8G28G13G19G27
 -17012496.89149 -13240783.63348  19190760.6764   19190759.4844
      2206.9264
 -18409678.87949 -15124285.41847  20412761.6684   20412759.4964
      3376.2044
   3011288.16449   2346611.27347  20957772.0434   20957770.8674
     -1827.2104
 -13283851.55949 -10337768.32047  21289448.1524   21289444.6334
       606.2284
 -10107050.81249  -7867333.71148  19414143.9104   19414142.4964
      1105.8844
 04  9 14 22 34 14.9960000  0  5G 8G28G13G19G27
 -17045535.78549 -13266528.22348  19184473.6764   19184472.3284
      2202.5934
 -18460239.80949 -15163683.52747  20403139.8634   20403138.2384
      3370.7294
   3038775.49649   2368029.94947  20963002.4024   20963001.4224
     -1832.4894
 -13292804.22349 -10344744.41447  21287743.9654   21287740.6604
       596.8444
 -10123581.66049  -7880214.89548  19410997.9414   19410996.9024
      1102.0574
 04  9 14 22 34 29.9960000  0  5G 8G28G13G19G27
 -17078510.72749 -13292222.97748  19178198.9964   19178197.2854
      2198.3294
 -18510719.87549 -15203018.62147  20393533.7854   20393531.6884
      3365.3384
   3066340.40249   2389509.07847  20968247.8484   20968246.8564
     -1837.6604
 -13301617.60549 -10351611.98847  21286066.9024   21286063.7774
       587.5594
 -10140056.30549  -7893052.28948  19407863.0124   19407861.5274
      1098.3104
 04  9 14 22 34 44.9960000  0  5G 8G28G13G19G27
 -17111421.32849 -13317867.59848  19171936.4184   19171934.6644
      2194.0404
 -18561118.71149 -15242290.41847  20383943.3164   20383941.8564
      3359.9224
   3093982.92249   2411048.67247  20973508.0744   20973507.0394
     -1842.8354
 -13310291.34049 -10358370.75047  21284416.4494   21284413.3984
       578.2494
 -10156474.46149  -7905845.64848  19404738.8874   19404737.4384
      1094.5444
 04  9 14 22 34 59.9960000  0  6G10G 8G28G13G19G27
                                  21995830.973

 -17144270.44549 -13343464.31648  19165685.3014   19165683.8914
      2189.9414
 -18611439.30149 -15281501.25047  20374367.6214   20374365.9614
      3354.7064
   3121699.85549   2432646.25847  20978782.6764   20978781.7154
     -1847.7964
 -13318828.61749 -10365023.18047  21282791.9184   21282788.8404
       569.1524
 -10172838.88749  -7918597.16048  19401624.8244   19401623.0354
      1090.9624
 04  9 14 22 35 14.9960000  0  6G10G 8G28G13G19G27
    -12096.527 8                  21994207.207
       569.068
 -17177054.59449 -13369010.39548  19159446.5824   19159445.0744
      2185.6104
 -18661678.04749 -15320648.31247  20364807.4344   20364805.9024
      3349.2504
   3149494.46949   2454304.37147  20984071.8794   20984070.5004
     -1852.9744
 -13327225.92649 -10371566.54347  21281193.6994   21281191.2544
       559.8214
 -10189146.08249  -7931304.05948  19398521.6844   19398520.6064
      1087.1464
 04  9 14 22 35 29.9960000  0  6G10G 8G28G13G19G27
    -20503.332 9                  21992607.488
       560.454
 -17209776.74649 -13394508.17248  19153219.7704   19153218.6884
      2181.4774
 -18711838.13349 -15359734.06247  20355262.6454   20355260.8524
      3344.0064
   3177363.29349   2476020.30147  20989374.9104   20989374.0354
     -1857.9224
 -13335486.67649 -10378003.48447  21279621.8404   21279619.0044
       550.7174
 -10205399.16049  -7943968.80148  19395429.2314   19395427.0084
      1083.5394
 04  9 14 22 35 44.9960000  0  5G 8G28G13G19G27
 -17242435.61349 -13419956.62948  19147004.9574   19147003.2314
      2177.2584
 -18761918.05149 -15398757.35547  20345732.2314   20345730.8954
      3338.6614
   3205307.47749   2497794.96547  20994692.8324   20994691.8054
     -1862.9464
 -13343609.44949 -10384332.93047  21278075.6374   21278073.0234
       541.5184
 -10221596.60949  -7956590.18748  19392346.6994   19392344.8244
      1079.8304
 04  9 14 22 35 59.9960000  0  5G 8G28G13G19G27
 -17275030.28949 -13445355.08248  19140802.1524   19140801.1064
      2172.9784
 -18811916.80949 -15437717.39847  20336218.2384   20336216.6564
      3333.2514
   3233327.68849   2519628.87147  21000024.6604   21000023.4264
     -1868.0144
 -13351593.31649 -10390554.11747  21276556.6294   21276554.0394
       532.2584
 -10237737.55549  -7969167.54748  19389275.0744   19389273.6844
      1076.0634
 04  9 14 22 36 14.9960000  0  5G 8G28G13G19G27
 -17307562.36749 -13470704.75048  19134611.6764   19134610.4414
      2168.8054
 -18861836.49249 -15476615.83247  20326718.7464   20326717.3634
      3327.9794
   3261421.54349   2541520.16447  21005371.0274   21005369.7704
     -1872.9244
 -13359440.37549 -10396668.71947  21275063.1764   21275061.0084
       523.1374
 -10253823.72749  -7981702.24248  19386213.8324   19386212.4304
      1072.4114
 04  9 14 22 36 29.9960000  0  5G 8G28G13G19G27
 -17340028.15249 -13496002.75848  19128433.7934   19128432.3484
      2164.3864
 -18911673.28149 -15515449.68047  20317235.5124   20317233.3754
      3322.4534
   3289592.62549   2563471.62547  21010731.0124   21010730.6994
     -1878.0724
 -13367147.09849 -10402673.96147  21273597.0044   21273594.2734
       513.7824
 -10269851.45749  -7994191.37148  19383163.8404   19383162.1174
      1068.5154
 04  9 14 22 36 44.9960000  0  5G 8G28G13G19G27
 -17372430.01249 -13521250.96148  19122267.8954   19122266.4814
      2160.1244
 -18961429.62149 -15554220.82047  20307766.2544   20307764.8284
      3317.0894
   3317838.13749   2585481.09047  21016106.9024   21016105.8594
     -1883.0344
 -13374716.12549 -10408571.90247  21272156.4734   21272154.2194
       504.6024
 -10285823.12949  -8006636.82848  19380124.7624   19380122.8244
      1064.7784
 04  9 14 22 36 59.9960000  0  5G 8G28G13G19G27
 -17404766.22349 -13546448.00048  19116114.5124   19116112.9734
      2155.7474
 -19011103.64549 -15592927.83647  20298314.2704   20298312.2854
      3311.6024
   3346159.48849   2607549.64847  21021495.9814   21021495.0084
     -1888.0904
 -13382145.76649 -10414361.23447  21270742.7074   21270740.0824
       495.3094
 -10301736.93749  -8019037.20748  19377095.9574   19377094.5944
      1060.9214
 04  9 14 22 37 14.9960000  0  5G 8G28G13G19G27
 -17437038.16049 -13571594.95748  19109973.2774   19109972.0784
      2151.4634
 -19060696.76649 -15631571.81247  20288877.0664   20288875.3444
      3306.2084
   3374555.18849   2629676.13347  21026899.6454   21026899.0274
     -1893.0474
 -13389437.37149 -10420043.00847  21269354.4734   21269352.3834
       486.1074
 -10317594.19949  -8031393.52048  19374078.9574   19374077.0904
      1057.1514
 04  9 14 22 37 29.9960000  0  5G 8G28G13G19G27
 -17469245.09849 -13596691.26648  19103844.6374   19103842.8404
      2147.1294
 -19110208.13749 -15670152.07447  20279455.0664   20279453.1994
      3300.7584
   3403025.75849   2651860.95747  21032317.2464   21032316.3014
     -1898.0384
 -13396590.32049 -10425616.74647  21267994.3564   21267991.6914
       476.8634
 -10333394.04349  -8043705.08248  19371072.0824   19371070.3014
      1053.3234
 04  9 14 22 37 44.9950000  0  5G 8G28G13G19G27
 -17501384.78949 -13621735.18448  19097728.5234   19097726.7734
      2142.6464
 -19159634.83249 -15708666.36347  20270049.8584   20270047.4174
      3295.1134
   3431568.65649   2674102.14547  21037748.6084   21037748.2264
     -1902.8604
 -13403604.66449 -10431082.48047  21266659.4524   21266656.7334
       467.6234
 -10349135.66849  -8055971.28548  19368076.6164   19368074.8124
      1049.4424
 04  9 14 22 37 59.9950000  0  5G 8G28G13G19G27
 -17533459.04349 -13646728.10948  19091625.1874   19091623.4954
      2138.2844
 -19208980.66849 -15747117.64147  20260659.1944   20260657.1164
      3289.7224
   3460189.96149   2696404.44147  21043194.8514   21043194.5854
     -1908.0874
 -13410478.66449 -10436438.84847  21265351.3514   21265348.8354
       458.2674
 -10364818.46149  -8068191.64848  19365092.3354   19365090.5264
      1045.5204
 04  9 14 22 38 14.9950000  0  5G 8G28G13G19G27
 -17565467.44149 -13671669.71148  19085534.0774   19085532.3864
      2133.8934
 -19258244.36349 -15785504.92647  20251284.6084   20251282.8704
      3284.2464
   3488885.53549   2718764.59447  21048656.0154   21048655.5584
     -1913.0384
 -13417214.02049 -10441687.18047  21264069.2574   21264066.8784
       449.0244
 -10380443.43749  -8080366.96548  19362119.1014   19362117.6554
      1041.6654
 04  9 14 22 38 29.9950000  0  5G 8G28G13G19G27
 -17597411.21949 -13696560.96548  19079454.9764   19079453.7414
      2129.5854
 -19307426.91449 -15823828.96147  20241925.7734   20241923.3154
      3278.8374
   3517653.96549   2741181.51647  21054129.9214   21054129.9444
     -1917.8954
 -13423812.02749 -10446828.47747  21262814.1484   21262811.1364
       439.8674
 -10396011.55149  -8092497.96548  19359156.6874   19359154.8554
      1037.8744
 04  9 14 22 38 44.9950000  0  5G 8G28G13G19G27
 -17629288.91049 -13721400.72348  19073389.1874   19073387.8984
      2125.1794
 -19356527.08649 -15862088.81647  20232582.3744   20232579.5694
      3273.3454
   3546496.31349   2763656.03947  21059619.0624   21059618.5114
     -1922.8234
 -13430271.40649 -10451861.76647  21261585.3274   21261581.8474
       430.6254
 -10411521.40249  -8104583.55948  19356205.3584   19356203.6324
      1033.9904
 04  9 14 22 38 59.9950000  0  5G 8G28G13G19G27
 -17661097.59049 -13746186.71148  19067336.1554   19067335.1594
      2120.5794
 -19405542.09449 -15900282.30947  20223254.9374   20223252.5694
      3267.6674
   3575415.12549   2786190.14147  21065122.5854   21065121.4294
     -1927.9214
 -13436589.54749 -10456784.98447  21260382.0464   21260379.9134
       421.2094
 -10426970.27049  -8116621.64548  19353265.1404   19353263.6514
      1029.9244
 04  9 14 22 39 14.9950000  0  6G10G 8G28G13G19G27
     -7936.93018                  21971586.718

 -17692840.21549 -13770921.21948  19061295.7264   19061294.6514
      2116.1754
 -19454474.78149 -15938411.66447  20213943.3824   20213940.7844
      3262.1794
   3604407.18449   2808781.33247  21070639.1014   21070638.4404
     -1932.8044
 -13442769.47349 -10461600.52347  21259206.6554   21259203.9334
       411.9954
 -10442360.85949  -8128614.30948  19350336.3904   19350334.8354
      1026.0394
 04  9 14 22 39 29.9950000  0  6G10G 8G28G13G19G27
    -14262.039 9                  21970383.335
       421.674
 -17724516.94949 -13795604.38348  19055267.7264   19055266.3904
      2111.7824
 -19503325.41049 -15976477.07447  20204647.3124   20204644.7694
      3256.7094
   3633472.00449   2831429.22347  21076169.9444   21076168.8514
     -1937.6554
 -13448811.56649 -10466308.64147  21258057.0384   21258054.3234
       402.8064
 -10457693.43049  -8140561.77048  19347418.5304   19347417.1084
      1022.1714
 04  9 14 22 39 44.9950000  0  6G10G 8G28G13G19G27
    -20459.090 8                  21969205.171
       413.137
 -17756128.12149 -13820236.46148  19049252.6324   19049251.0264
      2107.4114
 -19552094.23049 -16014478.73047  20195366.9834   20195364.6794
      3251.2554
   3662608.98449   2854133.32847  21081714.7334   21081714.0584
     -1942.4654
 -13454716.19549 -10470909.65647  21256933.9294   21256930.7414
       393.6424
 -10472968.22349  -8152464.20748  19344511.9054   19344510.7764
      1018.3204
 04  9 14 22 39 59.9950000  0  6G29G 8G28G13G19G27
   -185639.53559   -121744.48056  22881399.1794   22881398.8314

 -17787672.98449 -13844816.87948  19043249.8664   19043248.2734
      2102.9914
 -19600780.50849 -16052416.07447  20186102.1324   20186099.8554
      3245.7524
   3691818.43049   2876893.89547  21087273.0074   21087272.3434
     -1947.2964
 -13460482.72349 -10475403.06647  21255835.5544   21255833.0894
       384.4354
 -10488184.42249  -8164320.98848  19341616.2414   19341614.7454
      1014.4134
 04  9 14 22 40 14.9950000  0  7G10G29G 8G28G13G19G27
     -1409.19118                  21966918.101

   -253915.12949   -174946.19946  22868407.1944   22868406.6834
      4551.7064
 -17819151.98849 -13869345.96948  19037259.7024   19037257.7844
      2098.6004
 -19649384.91449 -16090289.62147  20176853.3584   20176851.0814
      3240.2944
   3721099.57049   2899710.34447  21092845.3194   21092844.1714
     -1952.0764
 -13466112.05949 -10479789.55547  21254764.8044   21254761.5194
       375.2894
 -10503342.65649  -8176132.60548  19338731.7494   19338730.2734
      1010.5494
 04  9 14 22 40 29.9950000  0  6G29G 8G28G13G19G27
   -322161.06249   -228124.82446  22855419.7734   22855419.6984
      4549.7294
 -17850568.47749 -13893826.33248  19031281.0544   19031279.6984
      2094.4334
 -19697911.02349 -16128102.14547  20167619.0774   20167616.2104
      3235.0744
   3750448.39549   2922579.52747  21098429.9684   21098429.5894
     -1956.5884
 -13471607.84849 -10484071.98847  21253718.9914   21253715.7454
       366.3864
 -10518446.44549  -8187901.78948  19335857.9134   19335855.7414
      1006.9194
 04  9 14 22 40 44.9950000  0  6G29G 8G28G13G19G27
   -390374.11349   -281277.83246  22842439.5624   22842438.9804
      4547.5374
 -17881919.85949 -13918255.98048  19025314.9134   19025313.8084
      2090.0924
 -19746356.01649 -16165851.47347  20158400.2654   20158397.4014
      3229.6664
   3779867.36749   2945503.37947  21104027.9214   21104027.6484
     -1961.2654
 -13476967.59049 -10488248.41847  21252699.3514   21252695.9724
       357.3164
 -10533493.00049  -8199626.38348  19332994.6244   19332993.1444
      1003.1044
 04  9 14 22 40 59.9950000  0  7G10G29G 8G28G13G19G27
     -6389.46918                  21963670.218

   -458553.47349   -334404.62546  22829464.9134   22829463.9054
      4545.2914
 -17913205.38349 -13942634.32048  19019361.6244   19019360.1594
      2085.7024
 -19794719.13749 -16203536.99247  20149196.8744   20149194.9404
      3224.2084
   3809357.11749   2968482.37147  21109640.0544   21109639.5584
     -1965.9834
 -13482190.57049 -10492318.28547  21251704.8904   21251702.0464
       348.1994
 -10548481.57049  -8211305.79748  19330142.2414   19330140.7694
       999.2384
 04  9 14 22 41 14.9950000  0  7G10G29G 8G28G13G19G27
                                  21962636.030

   -526698.52349   -387504.60546  22816497.6874   22816497.0654
      4543.0034
 -17944424.48849 -13966960.88348  19013420.9684   19013419.6514
      2081.2744
 -19843000.03949 -16241158.46547  20140009.2024   20140007.3904
      3218.7274
   3838917.58249   2991516.46547  21115265.0304   21115265.0974
     -1970.6984
 -13487276.44149 -10496281.30147  21250737.5074   21250734.3624
       339.0584
 -10563411.60249  -8222939.58648  19327301.3124   19327299.6944
       995.3354
 04  9 14 22 41 29.9950000  0  6G29G 8G28G13G19G27
   -594810.20749   -440578.62146  22803536.0384   22803535.9054
      4540.7794
 -17975578.52049 -13991236.75048  19007492.4054   19007491.1944
      2076.9354
 -19891199.93749 -16278716.81247  20130837.1554   20130835.1164
      3213.3274
   3868547.13749   3014604.39547  21120903.2104   21120903.4764
     -1975.3044
 -13492226.80549 -10500138.72747  21249795.3664   21249792.6754
       330.0244
 -10578284.44949  -8234528.81648  19324470.9834   19324469.3704
       991.5234
 04  9 14 22 41 44.9950000  0  6G29G 8G28G13G19G27
   -662888.46549   -493626.60246  22790581.5544   22790581.0694
      4538.5514
 -18006667.51649 -14015461.94548  19001576.4294   19001575.2884
      2072.6004
 -19939318.99649 -16316212.16447  20121680.2414   20121678.3904
      3207.9374
   3898245.45349   3037745.90647  21126554.8584   21126554.7804
     -1979.8884
 -13497041.86349 -10503890.71547  21248879.2334   21248876.2144
       321.0044
 -10593100.07049  -8246073.45748  19321652.0384   19321650.2804
       987.7084
 04  9 14 22 41 59.9950000  0  6G29G 8G28G13G19G27
   -730931.76649   -546647.33246  22777633.4374   22777633.3624
      4536.2204
 -18037690.30549 -14039635.53948  18995672.6794   18995671.6554
      2068.1864
 -19987356.11349 -16353643.66847  20112539.1244   20112537.3274
      3202.4744
   3928013.35549   3060941.64547  21132219.2184   21132219.4444
     -1984.5274
 -13501720.68449 -10507536.55547  21247988.6404   21247985.7574
       311.9214
 -10607857.46549  -8257572.73048  19318843.6014   19318842.0464
       983.8264
 04  9 14 22 42 14.9950000  0  7G29G 8G28G13G19G31G27
   -798939.17649   -599640.08646  22764692.0154   22764691.4294
      4533.8274
 -18068645.75449 -14063756.67248  18989782.5074   18989780.7224
      2063.6974
 -20035310.41449 -16391010.65247  20103413.7494   20103411.4994
      3196.9534
   3957851.34049   3084191.98847  21137897.1324   21137897.5974
     -1989.1994
 -13506262.44949 -10511075.60547  21247123.7334   21247121.5584
       302.7844
   -232025.67659   -150516.04356  22687380.2334   22687381.8004

 -10622555.52749  -8269025.77048  19316046.4834   19316044.8154
       979.8714
 04  9 14 22 42 29.9950000  0  7G29G 8G28G13G19G31G27
   -866912.94549   -652606.67246  22751756.4214   22751756.1444
      4531.5854
 -18099536.53149 -14087827.41048  18983904.2104   18983902.4764
      2059.3854
 -20083184.38349 -16428315.02347  20094303.4994   20094301.6014
      3191.5984
   3987756.48849   3107494.67247  21143588.1484   21143588.0654
     -1993.6774
 -13510669.91449 -10514510.00047  21246285.3904   21246282.9604
       293.8314
   -309861.59449   -211167.35246  22672567.7494   22672569.3864
      5189.0614
 -10637196.81249  -8280434.56248  19313260.5694   19313258.9444
       976.0864
 04  9 14 22 42 44.9950000  0  7G29G 8G28G13G19G31G27
   -934853.40249   -705547.22746  22738828.6244   22738827.4094
      4529.3644
 -18130363.31249 -14111848.25848  18978037.6634   18978036.3124
      2055.1194
 -20130978.71949 -16465557.34447  20085208.9054   20085206.0544
      3186.2894
   4017727.88349   3130848.95747  21149291.3274   21149291.8394
     -1998.0934
 -13514944.08249 -10517840.52047  21245471.9054   21245469.1054
       284.9454
   -387695.90649   -271817.35946  22657756.6874   22657757.2454
      5188.9544
 -10651782.05149  -8291799.68048  19310484.8044   19310483.5894
       972.3494
 04  9 14 22 42 59.9950000  0  7G29G 8G28G13G19G31G27
  -1002759.14149   -758460.84046  22725906.3124   22725905.4804
      4527.0494
 -18161124.58649 -14135818.07848  18972184.1874   18972182.5504
      2050.7524
 -20178692.10549 -16502736.59447  20076129.1944   20076127.2144
      3180.8924
   4047766.58649   3154255.71947  21155007.9994   21155007.5384
     -2002.5804
 -13519083.60549 -10521066.12947  21244684.2414   21244681.6714
       275.9684
   -465526.95749   -332464.89146  22642945.2334   22642946.8044
      5188.7374
 -10666309.76649  -8303119.98048  19307720.4134   19307719.0114
       968.5144
 04  9 14 22 43 14.9950000  0  7G29G 8G28G13G19G31G27
  -1070628.68449   -811346.14846  22712991.0934   22712990.2064
      4524.6364
 -18191819.43049 -14159736.14548  18966342.7334   18966341.3514
      2046.3234
 -20226323.61349 -16539852.04747  20067065.2334   20067062.9524
      3175.4344
   4077873.44949   3177715.57047  21160736.8824   21160736.8044
     -2007.1244
 -13523087.55549 -10524186.10547  21243922.4294   21243919.8474
       266.9304
   -543353.34849   -393108.73046  22628134.9994   22628136.9874
      5188.4264
 -10680778.96549  -8314394.69148  19304966.9444   19304965.4804
       964.6134
 04  9 14 22 43 29.9950000  0  7G29G 8G28G13G19G31G27
  -1138460.62949   -864202.18446  22700083.3984   22700082.3124
      4522.1304
 -18222446.39849 -14183601.31248  18960515.2024   18960513.7884
      2041.7984
 -20273871.87149 -16576902.61347  20058017.6634   20058014.6124
      3169.8844
   4108049.35949   3201229.23847  21166479.6714   21166478.8824
     -2011.7274
 -13526954.88349 -10527199.61347  21243186.7104   21243183.8354
       257.8224
   -621173.51649   -453747.79746  22613327.5304   22613328.4604
      5188.0114
 -10695188.29749  -8325622.74248  19302225.0154   19302223.5814
       960.6224
 04  9 14 22 43 44.9950000  0  7G29G 8G28G13G19G31G27
  -1206256.62949   -917030.25846  22687181.8434   22687181.4564
      4519.7334
 -18253007.27749 -14207414.98048  18954699.3984   18954697.9134
      2037.3924
 -20321338.75049 -16613889.76647  20048984.8044   20048981.7064
      3164.4594
   4138292.13749   3224795.01647  21172233.9914   21172233.6404
     -2016.1854
 -13530687.59849 -10530108.24247  21242476.3434   21242474.0304
       248.8484
   -698988.96549   -514383.11746  22598519.2104   22598520.4374
      5187.6974
 -10709539.45349  -8336805.46948  19299494.0624   19299492.7734
       956.7444
 04  9 14 22 43 59.9950000  0  7G29G 8G28G13G19G31G27
  -1274015.89149   -969829.65646  22674288.0074   22674287.6124
      4517.2844
 -18283501.71549 -14231176.87948  18948896.7024   18948895.5034
      2032.9634
 -20368723.73849 -16650813.12147  20039967.5544   20039964.6594
      3158.9994
   4168601.89849   3248412.96947  21178002.4214   21178001.8554
     -2020.6514
 -13534285.41849 -10532911.73447  21241791.7024   21241789.5304
       239.8554
   -776799.10549   -575014.33646  22583712.4524   22583713.7264
      5187.3434
 -10723832.14849  -8347942.64148  19296774.1484   19296772.9564
       952.8464
 04  9 14 22 44 14.9950000  0  7G29G 8G28G13G19G31G27
  -1341737.10549  -1022599.40646  22661401.0154   22661400.7804
      4514.7484
 -18313928.51249 -14254886.06648  18943106.4604   18943105.3744
      2028.4534
 -20416025.93749 -16687671.95347  20030966.1794   20030963.5654
      3153.4804
   4198979.39149   3272083.72347  21183782.5934   21183782.4604
     -2025.1664
 -13537747.55149 -10535609.51247  21241132.8514   21241130.7654
       230.8094
   -854602.50049   -635640.27746  22568907.5544   22568907.7064
      5186.8934
 -10738065.22349  -8359033.34448  19294066.2334   19294064.1124
       948.8724
 04  9 14 22 44 29.9950000  0  7G29G 8G28G13G19G31G27
  -1409418.02349  -1075337.71146  22648521.8984   22648521.3864
      4512.0614
 -18344285.49249 -14278540.85548  18937329.8044   18937328.5114
      2023.7994
 -20463243.23049 -16724464.62147  20021980.3984   20021978.5464
      3147.8204
   4229426.37949   3295808.60547  21189576.9134   21189575.8354
     -2029.7994
 -13541071.96149 -10538199.97747  21240500.4374   21240497.6014
       221.6274
   -932396.73049   -696259.12546  22554103.8124   22554104.0654
      5186.2824
 -10752236.56649  -8370075.95748  19291369.1324   19291367.2694
       944.7564
 04  9 14 22 44 44.9950000  0  7G29G 8G28G13G19G31G27
  -1477060.40649  -1128046.09846  22635649.8664   22635648.8234
      4509.4924
 -18374574.49249 -14302142.67248  18931565.9994   18931564.3354
      2019.2674
 -20510377.46549 -16761192.57847  20013011.7804   20013009.3274
      3142.2824
   4259940.68849   3319585.94547  21195383.1324   21195382.9334
     -2034.2874
 -13544260.71949 -10540684.72347  21239893.6874   21239890.9174
       212.5844
  -1010183.46149   -756872.04346  22539301.3984   22539301.3004
      5185.7824
 -10766347.93449  -8381071.82848  19288683.7264   19288682.4174
       940.7584
 04  9 14 22 44 59.9950000  0  7G29G 8G28G13G19G31G27
  -1544663.19949  -1180723.60946  22622784.5154   22622785.1984
      4506.8534
 -18404795.07849 -14325691.16848  18925815.3584   18925813.4874
      2014.7064
 -20557428.19149 -16797855.46547  20004057.9684   20004055.4484
      3136.7154
   4290522.42249   3343415.85547  21201202.6244   21201202.2734
     -2038.7824
 -13547313.53549 -10543063.55147  21239312.5464   21239309.8234
       203.5214
  -1087961.80549   -817478.45346  22524500.0774   22524501.0464
      5185.2234
 -10780398.86349  -8392020.60948  19286010.0074   19286008.4564
       936.7294
 04  9 14 22 45 14.9950000  0  7G29G 8G28G13G19G31G27
  -1612227.25449  -1233370.84446  22609927.4134   22609927.7764
      4504.2704
 -18434947.92649 -14349186.89148  18920077.4684   18920075.6834
      2010.1904
 -20604396.20349 -16834453.89847  19995120.2104   19995118.0854
      3131.2014
   4321170.59849   3367297.51247  21207035.1874   21207034.3624
     -2043.2124
 -13550231.41049 -10545337.22347  21238756.6944   21238754.5734
       194.5254
  -1165732.30149   -878078.75446  22509700.8354   22509700.5034
      5184.7004
 -10794389.98049  -8402922.78148  19283347.5074   19283345.8474
       932.7414
 04  9 14 22 45 29.9950000  0  7G29G 8G28G13G19G31G27
  -1679747.33249  -1285983.87146  22597079.4214   22597078.9054
      4501.3394
 -18465028.24649 -14372626.09448  18914353.2414   18914351.5974
      2005.3554
 -20651276.66049 -16870984.11347  19986199.1634   19986197.1484
      3125.3644
   4351889.68849   3391234.44147  21212880.7184   21212879.9604
     -2047.9394
 -13553009.68049 -10547502.11347  21238228.6084   21238225.7804
       185.2184
  -1243489.89149   -938669.02746  22494903.6324   22494904.3354
      5183.8394
 -10808316.59049  -8413774.68048  19280697.4994   19280695.6714
       928.4414
 04  9 14 22 45 44.9950000  0  7G29G 8G28G13G19G31G27
  -1747225.27049  -1338564.07446  22584239.2494   22584238.6014
      4498.5294
 -18495037.85249 -14396010.20748  18908642.1634   18908641.3354
      2000.6404
 -20698071.78149 -16907447.81247  19977294.3824   19977292.1554
      3119.6754
   4382677.35249   3415224.78147  21218739.6084   21218739.3084
     -2052.5114
 -13555650.59849 -10549559.97747  21237726.1244   21237723.4054
       176.0614
  -1321236.23849   -999250.52746  22480108.9684   22480109.3194
      5183.0904
 -10822180.66449  -8424577.86748  19278059.3744   19278057.8704
       924.2724
 04  9 14 22 45 59.9950000  0  7G29G 8G28G13G19G31G27
  -1814660.63749  -1391111.11346  22571406.2964   22571406.0194
      4495.6914
 -18524976.79349 -14419339.25448  18902945.3824   18902943.6404
      1995.9294
 -20744781.28549 -16943844.82047  19968405.6714   19968403.3984
      3113.9674
   4413533.41049   3439268.42247  21224611.3434   21224611.1794
     -2057.0714
 -13558154.06249 -10551510.72747  21237249.7414   21237247.1714
       166.8984
  -1398970.78949  -1059822.82846  22465316.7734   22465316.7764
      5182.3034
 -10835981.94549  -8435332.10948  19275432.9764   19275431.4254
       920.0854
 04  9 14 22 46 14.9950000  0  7G29G 8G28G13G19G31G27
  -1882053.59049  -1443625.06646  22558581.6944   22558581.1404
      4492.8644
 -18554845.03149 -14442613.20348  18897261.7574   18897260.0774
      1991.2164
 -20791405.44949 -16980175.32047  19959533.3514   19959531.1754
      3108.2784
   4444457.12149   3463364.79747  21230495.6554   21230495.3434
     -2061.5814
 -13560520.72749 -10553354.89847  21236799.5384   21236796.4174
       157.7784
  -1476693.70349  -1120386.07846  22450526.7104   22450527.1794
      5181.5284
 -10849720.76249  -8446037.68748  19272818.6404   19272817.0464
       915.9214
 04  9 14 22 46 29.9950000  0  7G29G 8G28G13G19G31G27
  -1949403.11349  -1496105.18046  22545765.4294   22545765.4524
      4489.9684
 -18584642.02749 -14465831.63748  18891591.5074   18891590.0934
      1986.4664
 -20837943.76249 -17016438.93447  19950677.2964   19950675.2654
      3102.5544
   4475448.68849   3487514.02047  21236393.1404   21236393.0504
     -2066.1044
 -13562749.98049 -10555091.98047  21236374.7964   21236372.2884
       148.6174
  -1554403.98849  -1180939.49246  22435738.6874   22435739.9094
      5180.6864
 -10863396.43049  -8456694.05948  19270215.8824   19270215.2304
       911.7114
 04  9 14 22 46 44.9950000  0  7G29G 8G28G13G19G31G27
  -2016710.82849  -1548552.74246  22532957.4764   22532957.0934
      4487.1814
 -18614369.50849 -14488995.90648  18885934.4684   18885933.0384
      1981.8324
 -20884398.10549 -17052637.09847  19941837.5464   19941835.4444
      3096.9564
   4506506.26649   3511714.69147  21242303.1714   21242303.2264
     -2070.5054
 -13564843.87549 -10556723.59447  21235976.5624   21235973.6874
       139.5934
  -1632103.17649  -1241484.27746  22420952.6794   22420952.5774
      5179.9464
 -10877010.72349  -8467302.60248  19267625.0694   19267624.1364
       907.6204
 04  9 14 22 46 59.9950000  0  7G29G 8G28G13G19G31G27
  -2083975.38349  -1600966.62146  22520156.8124   22520156.9684
      4484.3044
 -18644026.17249 -14512104.98848  18880291.2104   18880289.7304
      1977.1114
 -20930767.13349 -17088768.78947  19933013.6714   19933011.7654
      3091.2684
   4537630.72349   3535967.48047  21248226.3744   21248226.3394
     -2074.9644
 -13566801.48049 -10558249.00047  21235604.2024   21235601.6014
       130.5074
  -1709789.78949  -1302019.26646  22406169.4684   22406169.9294
      5179.1084
 -10890562.28549  -8477862.26648  19265046.4764   19265045.3274
       903.4384
 04  9 14 22 47 14.9950000  0  7G29G 8G28G13G19G31G27
  -2151195.05549  -1653345.56646  22507365.6554   22507365.5694
      4481.3114
 -18673610.81649 -14535157.96148  18874661.3274   18874659.8194
      1972.3104
 -20977049.55549 -17124833.00847  19924206.6714   19924205.0734
      3085.4954
   4568823.10549   3560273.19547  21254161.8274   21254162.0384
     -2079.4924
 -13568621.55549 -10559667.25447  21235258.2264   21235255.1594
       121.3384
  -1787462.15649  -1362543.13746  22391389.0624   22391389.1834
      5178.1584
 -10904049.90649  -8488372.10548  19262479.5854   19262478.5154
       899.1754
 04  9 14 22 47 29.9950000  0  7G29G 8G28G13G19G31G27
  -2218366.85949  -1705687.21146  22494583.6714   22494582.8664
      4478.1204
 -18703120.53149 -14558152.53948  18869046.1484   18869044.0934
      1967.3144
 -21023242.69949 -17160827.63747  19915416.1484   19915414.0774
      3079.5434
   4600085.68449   3584633.60947  21260111.0694   21260111.0934
     -2084.1724
 -13570301.54749 -10560976.32047  21234937.8824   21234935.2304
       111.9994
  -1865117.22349  -1423053.49246  22376612.2414   22376612.1164
      5177.0044
 -10917470.73049  -8498829.89848  19259926.1164   19259924.8744
       894.7224
 04  9 14 22 47 44.9950000  0  7G29G 8G28G13G19G31G27
  -2285495.44549  -1757995.16446  22481809.1324   22481808.2184
      4475.2394
 -18732560.34049 -14581092.64548  18863443.3904   18863442.1164
      1962.6544
 -21069351.48449 -17196756.54747  19906642.2104   19906639.5114
      3073.9194
   4631413.21149   3609044.64147  21266072.1084   21266072.4874
     -2088.5024
 -13571846.60249 -10562180.27047  21234643.8434   21234641.4254
       103.0044
  -1942759.59049  -1483553.98047  22361837.7734   22361837.6634
      5176.1584
 -10930829.70349  -8509239.48448  19257383.7494   19257382.4834
       890.5984
 04  9 14 22 47 59.9950000  0  7G29G 8G28G13G19G31G27
  -2352579.15249  -1810268.16046  22469043.4294   22469042.4404
      4472.2474
 -18761928.53949 -14603976.94948  18857854.9294   18857853.7184
      1957.8804
 -21115374.42249 -17232618.55547  19897883.8194   19897881.7804
      3068.1964
   4662806.93849   3633507.24247  21272046.6164   21272046.2414
     -2092.9154
 -13573255.39549 -10563278.03147  21234375.5624   21234373.1674
        93.9204
  -2020387.46549  -1544043.18047  22347065.0854   22347065.6514
      5175.1924
 -10944125.22349  -8519599.63748  19254853.8514   19254852.6244
       886.3684
 04  9 14 22 48 14.9950000  0  7G29G 8G28G13G19G31G27
  -2419617.78949  -1862506.06246  22456286.8664   22456286.1284
      4469.2424
 -18791225.13749 -14626805.45748  18852279.7024   18852278.5074
      1953.1074
 -21161311.57849 -17268413.72747  19889142.3744   19889140.2764
      3062.4774
   4694266.55149   3658021.18447  21278033.7414   21278033.5194
     -2097.3084
 -13574528.17649 -10564269.81247  21234133.9524   21234131.0654
        84.8524
  -2098000.62949  -1604520.89846  22332296.0074   22332296.5304
      5174.2114
 -10957357.34049  -8529910.37948  19252335.7884   19252334.4484
       882.1414
 04  9 14 22 48 29.9950000  0  7G29G 8G28G13G19G31G27
  -2486609.92249  -1914707.68446  22443538.8744   22443537.9014
      4466.1424
 -18820449.07049 -14649577.35548  18846719.0384   18846717.7924
      1948.2624
 -21207161.82849 -17304141.16847  19880417.7804   19880415.6124
      3056.6834
   4725792.85949   3682587.10947  21284032.3584   21284032.3554
     -2101.7544
 -13575663.92649 -10565154.81647  21233917.4294   21233915.1014
        75.7174
  -2175597.58649  -1664986.00447  22317529.4604   22317530.3664
      5173.1304
 -10970524.83249  -8540170.76648  19249830.2884   19249828.6324
       877.8334
 04  9 14 22 48 44.9950000  0  7G29G 8G28G13G19G31G27
  -2553554.57849  -1966872.32446  22430799.3194   22430798.6674
      4462.9774
 -18849599.39849 -14672291.89148  18841171.6794   18841170.3234
      1943.3554
 -21252924.52049 -17339800.39847  19871708.8904   19871706.8984
      3050.8464
   4757386.36749   3707205.38347  21290044.3434   21290044.5654
     -2106.2344
 -13576662.07849 -10565932.60547  21233727.8584   21233725.2374
        66.5434
  -2253177.19949  -1725437.59047  22302766.2334   22302767.5154
      5171.9744
 -10983626.76649  -8550380.06648  19247336.8124   19247335.0814
       873.4624
 04  9 14 22 48 59.9950000  0  7G29G 8G28G13G19G31G27
  -2620450.82049  -2018999.17646  22418069.2334   22418068.6674
      4459.7494
 -18878675.49649 -14694948.59048  18835638.9294   18835637.1554
      1938.4074
 -21298598.94149 -17375390.84047  19863017.3664   19863015.2454
      3044.9614
   4789047.27749   3731876.19147  21296069.2184   21296068.9834
     -2110.7274
 -13577522.21949 -10566602.84047  21233563.9294   21233561.4874
        57.3434
  -2330738.66449  -1785875.05146  22288006.8744   22288007.7924
      5170.7644
 -10996662.58249  -8560537.84848  19244856.4134   19244854.6634
       869.0544
 04  9 14 22 49 14.9950000  0  7G29G 8G28G13G19G31G27
  -2687299.35549  -2071088.95346  22405348.5304   22405347.2574
      4456.5694
 -18907678.36349 -14717548.22748  18830119.5624   18830118.6284
      1933.5244
 -21344186.08249 -17410913.27347  19854342.4524   19854340.2614
      3039.1434
   4820774.30949   3756598.51647  21302107.1244   21302106.8394
     -2115.1354
 -13578245.54349 -10567166.46147  21233426.4994   21233423.6324
        48.2224
  -2408282.57849  -1846298.80946  22273250.3824   22273251.5624
      5169.5944
 -11009633.25049  -8570644.86348  19242388.0464   19242386.2734
       864.7114
 04  9 14 22 49 29.9950000  0  7G29G 8G28G13G19G31G27
  -2754101.49649  -2123142.54346  22392636.8984   22392635.4094
      4453.4764
 -18936609.35249 -14740091.85548  18824614.5154   18824613.2574
      1928.7334
 -21389687.51649 -17446368.90647  19845684.1554   19845681.6594
      3033.4294
   4852565.59449   3781370.90247  21308156.3124   21308156.7454
     -2119.4194
 -13578833.80149 -10567624.86747  21233314.7494   21233311.6874
        39.2174
  -2485810.21149  -1906709.91446  22258497.5304   22258498.3234
      5168.5094
 -11022540.20349  -8580702.22748  19239932.3044   19239930.7064
       860.4644
 04  9 14 22 49 44.9950000  0  7G29G 8G28G13G19G31G27
  -2820857.19149  -2175159.91846  22379932.9524   22379932.1794
      4450.3804
 -18965468.34049 -14762579.37148  18819122.3584   18819121.4684
      1923.9334
 -21435103.53149 -17481757.99647  19837041.1404   19837039.3904
      3027.7344
   4884420.57449   3806192.93447  21314218.9444   21314218.6904
     -2123.6654
 -13579287.38749 -10567978.31247  21233228.7964   21233225.1324
        30.2394
  -2563321.35549  -1967108.14146  22243747.1874   22243748.7654
      5167.4104
 -11035383.65249  -8590710.11348  19237487.8824   19237486.9054
       856.2304
 04  9 14 22 49 59.9950000  0  7G29G 8G28G13G19G31G27
  -2887566.55149  -2227141.19146  22367237.7734   22367238.5304
      4447.2914
 -18994255.97749 -14785011.29348  18813644.4524   18813642.7734
      1919.1764
 -21480434.64549 -17517080.91847  19828415.0464   19828412.8394
      3022.0744
   4916338.57049   3831064.06647  21320292.0154   21320292.2024
     -2127.8664
 -13579606.83649 -10568227.24247  21233167.4524   21233164.6124
        21.2974
  -2640816.32049  -2027493.75847  22229000.5854   22229002.3044
      5166.3314
 -11048164.10249  -8600668.90248  19235055.9444   19235054.6284
       852.0304
 04  9 14 22 50 14.9950000  0  7G29G 8G28G13G19G31G27
  -2954229.97349  -2279086.67646  22354552.9994   22354552.4174
      4444.2284
 -19022972.85249 -14807388.07848  18808179.8194   18808178.0384
      1914.4584
 -21525681.47349 -17552338.16047  19819805.1794   19819802.8664
      3016.4554
   4948318.62949   3855983.53947  21326378.2494   21326377.7654
     -2132.0044
 -13579793.00449 -10568372.30947  21233131.8824   21233129.3154
        12.4114
  -2718295.26249  -2087866.91447  22214256.9524   22214258.8624
      5165.2634
 -11060881.94949  -8610578.92248  19232635.8824   19232634.2654
       847.8574
 04  9 14 22 50 29.9950000  0  7G29G 8G28G13G19G31G27
  -3020846.75049  -2330995.85946  22341876.5774   22341875.8904
      4441.1184
 -19051618.54349 -14829709.39548  18802728.9444   18802727.2764
      1909.7134
 -21570843.46549 -17587529.31247  19811211.1714   19811208.5584
      3010.7994
   4980360.95749   3880951.55947  21332475.3044   21332474.8584
     -2136.1554
 -13579845.65249 -10568413.33647  21233122.2574   21233119.2964
         3.5104
  -2795757.37549  -2148226.94147  22199515.9994   22199518.0264
      5164.1414
 -11073536.72349  -8620439.78948  19230227.8044   19230226.0504
       843.6524
 04  9 14 22 50 44.9950000  0  7G29G 8G28G13G19G31G27
  -3087414.75849  -2382867.03546  22329209.6084   22329208.3864
      4437.8674
 -19080190.91449 -14851973.57448  18797291.5544   18797290.0814
      1904.8254
 -21615918.77349 -17622652.91047  19802633.3514   19802631.1244
      3005.0214
   5012467.06649   3905969.27347  21338585.0854   21338584.8194
     -2140.4074
 -13579763.18449 -10568349.07047  21233137.4994   21233134.7224
        -5.4984
  -2873201.00049  -2208572.56247  22184779.1554   22184780.9644
      5162.9084
 -11086126.46549  -8630249.97748  19227832.0384   19227830.4644
       839.3164
 04  9 14 22 50 59.9950000  0  8G10G29G 8G28G13G19G31G27
                                  21940745.444

  -3153935.44149  -2434701.26647  22316550.2964   22316549.7694
      4434.7124
 -19108691.65649 -14874181.93748  18791868.1324   18791866.7694
      1900.0494
 -21660908.94949 -17657710.16447  19794072.0304   19794069.5894
      2999.3454
   5044634.99249   3931035.14847  21344706.9604   21344706.0034
     -2144.5284
 -13579547.21149 -10568180.78547  21233178.6874   21233175.8824
       -14.3984
  -2950626.12949  -2268903.75047  22170045.3044   22170047.5384
      5161.6754
 -11098652.83249  -8640010.78148  19225448.3824   19225447.1594
       835.0914
 04  9 14 22 51 14.9950000  0  7G29G 8G28G13G19G31G27
  -3220410.71149  -2486500.19546  22303900.9994   22303899.6444
      4431.6854
 -19137123.05549 -14896336.27348  18786457.8664   18786456.1284
      1895.4274
 -21705816.54749 -17692703.09047  19785526.3824   19785524.0114
      2993.8404
   5076861.97749   3956147.04347  21350839.6084   21350838.9254
     -2148.4664
 -13579200.48049 -10567910.61347  21233244.4914   21233241.7764
       -23.1154
  -3028036.12549  -2329223.18446  22155314.2734   22155317.1794
      5160.6664
 -11111118.07449  -8649723.96148  19223076.3354   19223074.8584
       831.0164
 04  9 14 22 51 29.9950000  0  7G29G 8G28G13G19G31G27
  -3286837.89549  -2538261.59846  22291259.7024   22291258.7374
      4428.4794
 -19165482.30949 -14918434.39148  18781061.2964   18781059.6124
      1890.6174
 -21750638.92249 -17727629.59447  19776996.7964   19776994.8784
      2988.1584
   5109150.50049   3981306.89147  21356983.7104   21356983.2574
     -2152.5684
 -13578720.53149 -10567536.63347  21233336.1714   21233333.2334
       -31.9974
  -3105427.52749  -2389528.12546  22140587.6244   22140589.2614
      5159.4274
 -11123519.56249  -8659387.46148  19220716.2734   19220714.9874
       826.7664
 04  9 14 22 51 44.9950000  0  7G29G 8G28G13G19G31G27
  -3353216.72349  -2589985.31246  22278628.0464   22278627.8234
      4425.2554
 -19193769.75449 -14940476.54748  18775678.4834   18775676.9374
      1885.8304
 -21795376.18049 -17762489.77747  19768483.9294   19768481.4954
      2982.4844
   5141499.97749   4006514.22747  21363140.1404   21363139.1514
     -2156.6324
 -13578107.53949 -10567058.99247  21233453.0464   21233450.2804
       -40.8664
  -3182800.37549  -2449818.59446  22125864.0854   22125866.1404
      5158.1904
 -11135857.38749  -8669001.35548  19218368.5384   19218366.5894
       822.5224
 04  9 14 22 51 59.9950000  0  7G29G 8G28G13G19G31G27
  -3419545.94949  -2641670.41046  22266006.3904   22266005.4604
      4421.9484
 -19221984.19149 -14962461.82048  18770309.9604   18770307.7964
      1880.9634
 -21840027.38349 -17797282.91047  19759986.7414   19759984.5694
      2976.7474
   5173911.33249   4031769.79747  21369306.6874   21369307.1204
     -2160.7574
 -13577360.81649 -10566477.11747  21233594.7964   21233592.0934
       -49.7824
  -3260153.05949  -2510093.32846  22111144.9214   22111145.9954
      5156.8464
 -11148130.39849  -8678564.74248  19216033.0624   19216031.4564
       818.2014
 04  9 14 22 52 14.9950000  0  7G29G 8G28G13G19G31G27
  -3485825.15649  -2693316.52346  22253393.7884   22253392.8194
      4418.6144
 -19250125.05549 -14984389.77048  18764954.6484   18764952.5234
      1876.0584
 -21884592.31649 -17832008.81247  19751506.2884   19751504.0034
      2970.9964
   5206384.34849   4057073.39847  21375487.0694   21375485.9374
     -2164.8684
 -13576480.37149 -10565791.05947  21233762.2024   21233759.7304
       -58.6964
  -3337485.13349  -2570352.06247  22096428.8274   22096430.3274
      5155.4724
 -11160338.39549  -8688077.47348  19213709.9524   19213708.6944
       813.8664
 04  9 14 22 52 29.9950000  0  7G29G 8G28G13G19G31G27
  -3552054.30949  -2744923.65246  22240790.9214   22240789.0814
      4415.2774
 -19278192.87149 -15006260.79348  18759613.2964   18759611.5154
      1871.1884
 -21929071.23849 -17866667.69147  19743042.0694   19743040.1634
      2965.2614
   5238918.34449   4082424.53947  21381677.9684   21381677.7414
     -2168.9334
 -13575466.69949 -10565001.20347  21233955.1714   21233952.7654
       -67.5784
  -3414796.54349  -2630594.66847  22081717.2494   22081718.0624
      5154.0944
 -11172481.67649  -8697539.77048  19211399.2334   19211397.7224
       809.5524
 04  9 14 22 52 44.9950000  0  7G29G 8G28G13G19G31G27
  -3618232.16049  -2796490.76646  22228197.2024   22228196.0934
      4411.8574
 -19306186.64149 -15028074.09848  18754286.0464   18754284.2334
      1866.2514
 -21973463.28149 -17901258.88747  19734594.9834   19734592.3084
      2959.4704
   5271513.99649   4107823.71947  21387879.5934   21387879.6714
     -2173.0434
 -13574319.06249 -10564106.94547  21234173.8584   21234170.7414
       -76.5094
  -3492086.25449  -2690820.35946  22067009.1084   22067010.4684
      5152.6474
 -11184559.11749  -8706950.75448  19209100.6554   19209099.4484
       805.1634
 04  9 14 22 52 59.9950000  0  7G29G 8G28G13G19G31G27
  -3684360.93049  -2848019.67246  22215613.0774   22215612.5194
      4408.5854
 -19334108.84449 -15049831.65648  18748972.6554   18748970.7614
      1861.4804
 -22017770.97749 -17935784.34047  19726163.0854   19726161.1514
      2953.8464
   5304168.49249   4133268.73047  21394094.7654   21394093.8824
     -2176.9664
 -13573040.19549 -10563110.43047  21234417.0854   21234414.1444
       -85.2584
  -3569356.03549  -2751030.50446  22052304.4764   22052306.5544
      5151.3194
 -11196573.37149  -8716312.51248  19206814.6874   19206813.1084
       800.9504
 04  9 14 22 53 14.9950000  0  7G29G 8G28G13G19G31G27
  -3750439.61749  -2899509.58646  22203040.0544   22203037.9564
      4405.2464
 -19361958.41849 -15071532.62548  18743672.8044   18743671.2764
      1856.6384
 -22061993.46549 -17970243.41047  19717748.2104   19717746.1204
      2948.1664
   5336882.24249   4158759.93047  21400319.7884   21400319.1054
     -2180.9174
 -13571629.35949 -10562011.09047  21234685.5694   21234682.7844
       -94.0564
  -3646605.06249  -2811224.48446  22037605.0934   22037605.9214
      5149.9354
 -11208523.30949  -8725624.16048  19204540.7884   19204539.2924
       796.6634
 04  9 14 22 53 29.9950000  0  7G29G 8G28G13G19G31G27
  -3816467.43449  -2950959.76246  22190474.5154   22190473.5734
      4401.8544
 -19389734.69149 -15093176.46548  18738387.2964   18738385.1054
      1851.7524
 -22106130.12149 -18004635.58247  19709349.0694   19709346.8044
      2942.4444
   5369655.76249   4184297.70347  21406555.9054   21406555.7494
     -2184.9014
 -13570086.13749 -10560808.57847  21234978.9834   21234976.7064
      -102.8824
  -3723832.31649  -2871401.50046  22022908.9524   22022909.6634
      5148.4844
 -11220408.44149  -8734885.30548  19202279.0464   19202277.6794
       792.3424
 04  9 14 22 53 44.9950000  0  8G10G29G 8G28G13G19G31G27
       648.35918                  21940944.827

  -3882442.85949  -3002369.18746  22177919.7334   22177918.1874
      4398.3624
 -19417436.84449 -15114762.55148  18733115.5624   18733114.0584
      1846.8104
 -22150180.08649 -18038960.21947  19700966.6244   19700964.2494
      2936.6644
   5402489.63549   4209882.46547  21412803.7884   21412804.1904
     -2188.9254
 -13568409.74649 -10559502.30947  21235298.2024   21235295.4334
      -111.7594
  -3801036.48049  -2931560.54746  22008217.9294   22008218.2924
      5146.9444
 -11232227.61749  -8744095.05148  19200029.6324   19200028.3394
       787.9454
 04  9 14 22 53 59.9950000  0  7G29G 8G28G13G19G31G27
  -3948366.37949  -3053738.15646  22165375.4764   22165373.6404
      4394.9014
 -19445065.27749 -15136291.19948  18727858.4134   18727856.0234
      1841.8964
 -22194144.11349 -18073217.87547  19692600.4444   19692598.4874
      2930.9354
   5435382.74649   4235513.44547  21419064.1634   21419063.2224
     -2192.8744
 -13566601.14849 -10558093.03147  21235642.2334   21235639.7764
      -120.5734
  -3878217.85949  -2991701.80146  21993530.2264   21993530.4174
      5145.4254
 -11243981.55549  -8753253.96148  19197793.3124   19197791.7764
       783.5964
 04  9 14 22 54 14.9950000  0  7G29G 8G28G13G19G31G27
  -4014236.40249  -3105065.40646  22152839.9834   22152838.9644
      4391.3354
 -19472618.57049 -15157761.29748  18722615.0154   18722613.1834
      1836.8864
 -22238020.64849 -18107407.37147  19684251.1794   19684248.8704
      2925.1024
   5468336.39849   4261191.59847  21425334.9994   21425334.3624
     -2196.9104
 -13564659.02749 -10556579.68447  21236011.9764   21236009.2494
      -129.4754
  -3955374.60249  -3051823.94146  21978848.1164   21978847.7534
      5143.7834
 -11255668.68749  -8762360.82848  19195569.5774   19195567.8944
       779.1424
 04  9 14 22 54 29.9950000  0  7G29G 8G28G13G19G31G27
  -4080054.57849  -3156352.29746  22140315.6484   22140314.0304
      4387.8784
 -19500098.50049 -15179174.22348  18717385.9294   18717384.3354
      1831.9954
 -22281811.76249 -18141530.30147  19675917.8744   19675915.5854
      2919.4084
   5501348.08249   4286914.94547  21431616.2494   21431616.1834
     -2200.7794
 -13562585.76649 -10554964.16447  21236406.7264   21236403.8394
      -138.2174
  -4032508.83249  -3111928.48846  21964169.7654   21964170.0034
      5142.2824
 -11267290.94949  -8771417.13748  19193357.7024   19193356.0734
       774.8174
 04  9 14 22 54 44.9950000  0  7G29G 8G28G13G19G31G27
  -4145820.66449  -3207598.55146  22127801.1714   22127799.3004
      4384.4064
 -19527505.16449 -15200530.06248  18712170.6084   18712169.2304
      1827.1114
 -22325517.41849 -18175586.63347  19667600.7574   19667598.7264
      2913.7104
   5534417.51249   4312683.29747  21437909.1324   21437909.0734
     -2204.6294
 -13560381.38749 -10553246.46947  21236826.7104   21236823.0424
      -146.9594
  -4109619.53149  -3172014.68447  21949496.2334   21949497.3784
      5140.7134
 -11278848.38349  -8780422.93048  19191158.2734   19191157.1444
       770.4964
 04  9 14 22 54 59.9950000  0  7G29G 8G28G13G19G31G27
  -4211533.45349  -3258803.30946  22115296.1874   22115294.7654
      4380.8534
 -19554837.25049 -15221827.78548  18706968.9684   18706968.1054
      1822.1394
 -22369136.58249 -18209575.57847  19659300.8434   19659298.6794
      2907.9444
   5567545.65649   4338497.38747  21444212.8434   21444212.8904
     -2208.5434
 -13558045.16049 -10551426.04347  21237271.0854   21237267.8354
      -155.7484
  -4186705.80149  -3232081.82446  21934827.7414   21934827.1984
      5139.0854
 -11290339.76249  -8789377.25848  19188971.4214   19188969.9564
       766.0924
 04  9 14 22 55 14.9950000  0  8G10G29G 8G28G13G19G31G27
      1754.77318                  21942189.819

  -4277190.95349  -3309964.96946  22102801.3194   22102799.9214
      4377.1674
 -19582093.41849 -15243066.35548  18701782.5074   18701781.4564
      1817.0784
 -22412667.96149 -18243496.12947  19651017.0384   19651014.5504
      2902.0924
   5600733.47349   4364358.00047  21450528.8274   21450528.8394
     -2212.5214
 -13555575.79349 -10549501.87147  21237740.2654   21237737.5854
      -164.6244
  -4263765.85249  -3292128.53946  21920162.5304   21920162.6124
      5137.3374
 -11301763.72749  -8798279.05148  19186797.7884   19186796.1944
       761.5984
 04  9 14 22 55 29.9950000  0  8G10G29G 8G28G13G19G31G27
      3252.27018                  21942474.983

  -4342794.27049  -3361084.41846  22090317.6404   22090316.6014
      4373.5544
 -19609274.77049 -15264246.62948  18696610.1014   18696608.7104
      1812.0904
 -22456112.46549 -18277348.96547  19642749.3124   19642747.1754
      2896.3004
   5633979.61349   4390264.02747  21456855.1484   21456855.7694
     -2216.4094
 -13552974.55549 -10547474.93047  21238235.2334   21238233.0544
      -173.4164
  -4340800.47749  -3352155.48046  21905503.4604   21905502.9954
      5135.6424
 -11313121.14849  -8807128.98848  19184636.2964   19184634.7574
       757.1614
 04  9 14 22 55 44.9950000  0  8G10G29G 8G28G13G19G31G27
      4863.27318                  21942780.960

  -4408344.78949  -3412162.71947  22077843.8744   22077843.2804
      4370.0354
 -19636383.01249 -15285369.92648  18691451.8824   18691450.0464
      1807.2164
 -22499472.12149 -18311135.69147  19634498.2884   19634496.3554
      2890.6444
   5667281.92649   4416213.85247  21463192.9374   21463192.8234
     -2220.1544
 -13550243.51649 -10545346.85947  21238754.9134   21238752.3194
      -182.0694
  -4417810.78149  -3412163.45346  21890849.3044   21890849.3904
      5134.0204
 -11324413.94149  -8815928.57448  19182487.5384   19182485.8314
       752.8534
 04  9 14 22 55 59.9950000  0  8G10G29G 8G28G13G19G31G27
      6588.230 8                  21943109.991
      -114.997
  -4473841.56649  -3463199.13746  22065379.7734   22065379.5654
      4366.4524
 -19663417.23849 -15306435.55148  18686307.2104   18686305.4914
      1802.2824
 -22542746.22749 -18344855.76248  19626263.7804   19626261.4484
      2884.9404
   5700640.70349   4442207.66447  21469540.5694   21469540.6944
     -2223.9184
 -13547382.36749 -10543117.39547  21239299.4604   21239296.8514
      -190.7434
  -4494795.55149  -3472151.53147  21876199.6874   21876199.9444
      5132.3184
 -11335641.26249  -8824677.14148  19180351.0544   19180349.4804
       748.4884
 04  9 14 22 56 14.9950000  0  8G10G29G 8G28G13G19G31G27
      8428.441 8                  21943459.944
      -122.681
  -4539282.76649  -3514192.25447  22052927.3194   22052926.5814
      4362.7474
 -19690375.96149 -15327442.34448  18681177.0304   18681175.5384
      1797.2484
 -22585933.22349 -18378507.96147  19618045.3434   19618042.9214
      2879.1334
   5734057.28949   4468246.53547  21475900.1714   21475899.9374
     -2227.7724
 -13544389.48049 -10540785.28147  21239869.3984   21239866.4134
      -199.5264
  -4571754.84049  -3532119.76246  21861554.9764   21861554.7104
      5130.6194
 -11346801.57849  -8833373.49648  19178227.1164   19178225.8704
       744.0214
 04  9 14 22 56 29.9950000  0  8G10G29G 8G28G13G19G31G27
     10383.516 9                  21943831.030
      -130.338
  -4604668.10949  -3565141.81246  22040484.5774   22040484.2334
      4359.0234
 -19717259.18049 -15348390.30148  18676061.2264   18676059.7264
      1792.2154
 -22629033.15249 -18412092.30947  19609843.8584   19609841.9174
      2873.3294
   5767531.39549   4494330.21547  21482269.7884   21482269.8984
     -2231.6074
 -13541265.20349 -10538350.79747  21240463.6014   21240461.3704
      -208.2854
  -4648685.13749  -3592065.39146  21846915.2414   21846914.9294
      5128.6864
 -11357894.87149  -8842017.62948  19176116.2264   19176114.9954
       739.5534
 04  9 14 22 56 44.9950000  0  8G10G29G 8G28G13G19G31G27
     12452.449 8                  21944224.444
      -137.929
  -4669998.02049  -3616048.21947  22028052.6484   22028052.3194
      4355.3274
 -19744067.52749 -15369279.91848  18670960.1794   18670958.0234
      1787.2234
 -22672046.76249 -18445609.38747  19601658.3984   19601656.4054
      2867.5744
   5801061.96149   4520457.87147  21488650.5154   21488650.2534
     -2235.3714
 -13538010.48449 -10535814.64847  21241083.0934   21241080.6984
      -216.9814
  -4725589.80149  -3651991.03946  21832280.8354   21832280.4764
      5126.9784
 -11368921.54349  -8850609.84048  19174018.0624   19174016.5584
       735.1114
 04  9 14 22 56 59.9950000  0  8G10G29G 8G28G13G19G31G27
     14635.039 8                  21944639.702
      -145.506
  -4735272.28549  -3666911.26247  22015631.8044   22015630.7694
      4351.6184
 -19770800.62949 -15390110.91448  18665872.8664   18665871.5154
      1782.2074
 -22714974.00849 -18479059.17647  19593489.3904   19593487.8784
      2861.8164
   5834648.67249   4546629.29747  21495042.0234   21495041.8274
     -2239.1144
 -13534625.51249 -10533177.02347  21241727.0624   21241724.8624
      -225.6654
  -4802466.15249  -3711894.64147  21817651.4764   21817651.7534
      5125.0904
 -11379881.81249  -8859150.32048  19171932.3434   19171930.7454
       730.6854
 04  9 14 22 57 14.9950000  0  8G10G29G 8G28G13G19G31G27
     16930.85918                  21945076.444
      -153.083
  -4800490.36749  -3717730.53547  22003221.0544   22003220.2614
      4347.8724
 -19797458.26649 -15410883.09048  18660800.1244   18660798.4804
      1777.1764
 -22757814.79349 -18512441.59047  19585337.5234   19585335.0624
      2856.0524
   5868291.39549   4572844.35247  21501444.2264   21501444.2964
     -2242.8484
 -13531110.31649 -10530437.91447  21242396.2804   21242393.5304
      -234.3464
  -4879315.26249  -3771777.03547  21803027.3584   21803028.0544
      5123.2744
 -11390775.23849  -8867638.69948  19169859.2024   19169858.0504
       726.2284
 04  9 14 22 57 29.9950000  0  8G10G29G 8G28G13G19G31G27
     19338.57448  -7761919.36356  21945535.1714   21945536.7064
      -160.5144
  -4865653.47349  -3768506.94947  21990820.8744   21990820.3944
      4344.2074
 -19824041.94149 -15431597.63348  18655741.5384   18655739.9094
      1772.2454
 -22800570.44549 -18545757.68047  19577201.3584   19577199.1444
      2850.3774
   5901988.37549   4599101.71547  21507856.1324   21507856.2184
     -2246.4654
 -13527466.54349 -10527598.63347  21243089.4604   21243086.6164
      -242.9184
  -4956138.15649  -3831638.94947  21788408.4914   21788409.6874
      5121.5264
 -11401603.42249  -8876076.25448  19167798.6794   19167797.2224
       721.8794
 04  9 14 22 57 44.9950000  0  8G10G29G 8G28G13G19G31G27
                                  21946014.0384   21946014.8084
      -167.9464
  -4930760.06249  -3819239.35947  21978431.5624   21978430.9994
      4340.4394
 -19850550.38749 -15452253.56248  18650696.4604   18650695.1874
      1767.2304
 -22843239.84449 -18579006.53547  19569081.7734   19569079.3624
      2844.6274
   5935740.57549   4625402.03547  21514279.2264   21514278.3274
     -2250.1474
 -13523693.27049 -10524658.42647  21243807.7024   21243804.6244
      -251.5524
  -5032932.00449  -3891478.24247  21773795.0154   21773795.7694
      5119.5904
 -11412364.89849  -8884461.82048  19165750.9444   19165749.4834
       717.4324
 04  9 14 22 57 59.9950000  0  8G10G29G 8G28G13G19G31G27
     24492.82048  -7757903.11346  21946516.8584   21946515.6594
      -175.6054
  -4995808.22349  -3869926.18747  21966053.5934   21966052.6794
      4336.5444
 -19876981.77749 -15472849.45748  18645667.2964   18645666.0774
      1762.0934
 -22885821.40649 -18612186.96547  19560978.5544   19560976.6124
      2838.7714
   5969549.29749   4651746.49247  21520713.0624   21520712.0584
     -2253.9154
 -13519788.90649 -10521616.07847  21244550.6634   21244548.1674
      -260.2914
  -5109696.03149  -3951294.30546  21759187.2414   21759188.0034
      5117.6024
 -11423058.07049  -8892794.16848  19163716.2734   19163714.7104
       712.8784
 04  9 14 22 58 14.9940000  0  8G10G29G 8G28G13G19G31G27
     27241.78958  -7755761.00456  21947038.8774   21947038.2214
      -183.2644
  -5060791.91449  -3920562.84047  21953687.6434   21953686.6154
      4332.2464
 -19903333.02049 -15493382.89148  18640652.9084   18640651.5534
      1756.7494
 -22928310.82049 -18645295.58647  19552893.6504   19552890.6974
      2832.6284
   6003413.50849   4678134.13747  21527156.5184   21527156.8384
     -2257.6144
 -13515752.50049 -10518470.83647  21245318.9554   21245315.8074
      -269.0944
  -5186422.90649  -4011081.42247  21744586.8614   21744586.7134
      5115.1254
 -11433680.52049  -8901071.41048  19161694.7134   19161693.3894
       708.1634
 04  9 14 22 58 29.9940000  0  8G10G29G 8G28G13G19G31G27
     30103.55548  -7753531.16846  21947583.8614   21947581.9164
      -190.7844
  -5125721.64149  -3971157.37947  21941332.0964   21941330.4044
      4328.6484
 -19929609.74249 -15513858.25048  18635652.3074   18635651.1824
      1751.7824
 -22970716.08649 -18678338.63347  19544823.6584   19544820.9434
      2827.0184
   6037335.00849   4704566.44147  21533610.9944   21533612.1354
     -2261.4334
 -13511586.10249 -10515224.29347  21246111.1584   21246108.7404
      -277.7604
  -5263124.72749  -4070849.03546  21729990.2684   21729991.0574
      5113.4554
 -11444235.93749  -8909296.41448  19159686.0104   19159684.6864
       703.6954
 04  9 14 22 58 44.9940000  0  8G10G29G 8G28G13G19G31G27
     33077.96148  -7751213.43446  21948150.2834   21948148.1354
      -198.2944
  -5190592.62149  -4021706.17647  21928986.8544   21928986.2484
      4324.7324
 -19955809.59849 -15534273.71948  18630666.7524   18630665.2294
      1746.6574
 -23013033.97749 -18711313.59848  19536771.1194   19536768.5884
      2821.1934
   6071311.74249   4731041.78947  21540076.9714   21540077.4004
     -2265.1164
 -13507289.62149 -10511876.39847  21246928.6974   21246926.3654
      -286.4324
  -5339795.75449  -4130592.62947  21715400.4474   21715401.0614
      5111.4024
 -11454723.22749  -8917468.33248  19157690.0804   19157688.7994
       699.1534
 04  9 14 22 58 59.9940000  0  8G10G29G 8G28G13G19G31G27
     36165.14558  -7748807.84056  21948737.0494   21948735.0334
      -205.8034
  -5255403.89549  -4072208.45347  21916654.1584   21916653.3304
      4320.7524
 -19981932.13349 -15554628.93448  18625695.9794   18625694.1664
      1741.5024
 -23055263.98849 -18744220.08648  19528734.9554   19528732.2404
      2815.3344
   6105343.86349   4757560.26647  21546553.4164   21546553.6114
     -2268.8084
 -13502862.91449 -10508427.01647  21247771.4634   21247768.5534
      -295.1144
  -5416435.13349  -4190311.56246  21700816.2214   21700816.2834
      5109.2924
 -11465141.82849  -8925586.71948  19155707.6744   19155706.1584
       694.5734
 04  9 14 22 59 14.9940000  0  8G10G29G 8G28G13G19G31G27
     39364.99258  -7746314.53556  21949346.4164   21949345.0414
      -213.3124
  -5320155.04749  -4122663.86747  21904331.7294   21904331.4904
      4316.7434
 -20007976.90249 -15574923.55948  18620739.6194   18620738.1194
      1736.3184
 -23097405.95349 -18777057.95747  19520715.4714   19520712.7724
      2809.4644
   6139431.24649   4784121.81647  21553040.5724   21553041.0144
     -2272.4924
 -13498306.01249 -10504876.21147  21248638.4404   21248635.7364
      -303.7934
  -5493042.30549  -4250005.41447  21686238.5494   21686238.9204
      5107.1454
 -11475491.39549  -8933651.32848  19153738.3694   19153737.1044
       689.9714
 04  9 14 22 59 29.9940000  0  8G10G29G 8G28G13G19G31G27
                                  21949976.7214   21949976.1904
      -220.8224
  -5384844.10549  -4173070.89547  21892022.1354   21892021.5724
      4312.6044
 -20033942.49649 -15595156.49248  18615798.9944   18615797.1584
      1731.0404
 -23139458.28949 -18809826.00047  19512712.9634   19512710.7404
      2803.4894
   6173575.12549   4810727.39147  21559538.2684   21559537.8854
     -2276.2594
 -13493617.52049 -10501222.84847  21249530.9474   21249528.2014
      -312.5664
  -5569615.30949  -4309672.62547  21671666.6744   21671667.1434
      5104.8674
 -11485770.36349  -8941660.91448  19151782.3934   19151781.0294
       685.2654
 04  9 14 22 59 44.9940000  0  8G10G29G 8G28G13G19G31G27
     46105.98848  -7741061.72746  21950628.2294   21950628.6934
      -228.4724
  -5449471.19149  -4223429.66447  21879724.1354   21879723.4434
      4308.4724
 -20059829.03149 -15615327.80148  18610872.4244   18610870.9084
      1725.7694
 -23181421.42249 -18842524.52748  19504727.7214   19504725.7364
      2797.5424
   6207774.98049   4837376.60247  21566046.0334   21566045.6864
     -2279.9904
 -13488797.99249 -10497467.38747  21250448.4084   21250444.9904
      -321.3024
  -5646154.17649  -4369313.24647  21657102.4324   21657102.7364
      5102.5914
 -11495978.99649  -8949615.69948  19149839.5964   19149838.4474
       680.5764
 04  9 14 22 59 59.9940000  0  8G10G29G 8G28G13G19G31G27
                                  21951300.6504   21951301.9674
      -236.1224
  -5514037.51249  -4273741.03147  21867437.2134   21867436.7794
      4304.4214
 -20085637.66449 -15635438.42248  18605961.3304   18605959.7364
      1720.5764
 -23223296.53149 -18875154.46147  19496759.1824   19496756.7524
      2791.6744
   6242029.03949   4864068.02347  21572563.6744   21572564.2054
     -2283.6044
 -13483849.02349 -10493611.05947  21251389.7754   21251387.0064
      -329.9314
  -5722659.96149  -4428928.07047  21642543.1904   21642543.4474
      5100.3864
 -11506118.57449  -8957516.67248  19147910.1664   19147908.9324
       675.9724
